[[{"header":{"parameterUnit":"m.s-1","parameterCategory":1,"la1":30.6,"la2":28.766,"lo1":-90.7593,"lo2":-88.6598,"dy":0.0162,"dx":0.0183,"nx":116,"ny":114,"refTime":"2024-06-07T06:00:00:Z","depth":0,"parameterNumber":2,"parameterNumberName":"U-component_of_WINDS"},"data":[0.0,0.0,0.0,0.0,0.0,0.0,0.0,0.0,0.0,0.0,0.0,0.0,0.0,0.0,0.0,0.0,0.0,0.0,0.0,0.0,0.0,0.0,0.0,0.0,0.0,0.0,0.0,0.0,0.0,0.0,0.0,0.0,0.0,0.0,0.0,0.0,0.0,0.0,0.0,0.0,0.0,0.0,0.0,0.0,0.0,0.0,0.0,0.0,0.0,0.0,0.0,0.0,0.0,0.0,0.0,0.0,0.0,0.0,0.0,0.0,0.0,0.0,0.0,0.0,0.0,0.0,0.0,0.0,0.0,0.0,0.0,0.0,0.0,0.0,0.0,0.0,0.0,0.0,0.0,0.0,0.0,0.0,0.0,0.0,0.0,0.0,0.0,0.0,0.0,0.0,0.0,0.0,0.0,0.0,0.0,0.0,0.0,0.0,0.0,0.0,0.0,0.0,0.0,0.0,0.0,0.0,0.0,0.0,0.0,0.0,0.0,0.0,0.0,0.0,0.0,0.0,0.0,0.0,0.0,0.0,0.0,0.0,0.0,0.0,0.0,0.0,0.0,0.0,0.0,0.0,0.0,0.0,0.0,0.0,0.0,0.0,0.0,0.0,0.0,0.0,0.0,0.0,0.0,0.0,0.0,0.0,0.0,0.0,0.0,0.0,0.0,0.0,0.0,0.0,0.0,0.0,0.0,0.0,0.0,0.0,0.0,0.0,0.0,0.0,0.0,0.0,0.0,0.0,0.0,0.0,0.0,0.0,0.0,0.0,0.0,0.0,0.0,0.0,0.0,0.0,0.0,0.0,0.0,0.0,0.0,0.0,0.0,0.0,0.0,0.0,0.0,0.0,0.0,0.0,0.0,0.0,0.0,0.0,0.0,0.0,0.0,0.0,0.0,0.0,0.0,0.0,0.0,0.0,0.0,0.0,0.0,0.0,0.0,0.0,0.0,0.0,0.0,0.0,0.0,0.0,0.0,0.0,0.0,0.0,0.0,0.0,0.0,0.0,0.0,0.0,0.0,0.0,0.0,0.0,0.0,0.0,0.0,0.0,0.0,0.0,0.0,0.0,0.0,0.0,0.0,0.0,0.0,0.0,0.0,0.0,0.0,0.0,0.0,0.0,0.0,0.0,0.0,0.0,0.0,0.0,0.0,0.0,0.0,0.0,0.0,0.0,0.0,0.0,0.0,0.0,0.0,0.0,0.0,0.0,0.0,0.0,0.0,0.0,0.0,0.0,0.0,0.0,0.0,0.0,0.0,0.0,0.0,0.0,0.0,0.0,0.0,0.0,0.0,0.0,0.0,0.0,0.0,0.0,0.0,0.0,0.0,0.0,0.0,0.0,0.0,0.0,0.0,0.0,0.0,0.0,0.0,0.0,0.0,0.0,0.0,0.0,0.0,0.0,0.0,0.0,0.0,0.0,0.0,0.0,0.0,0.0,0.0,0.0,0.0,0.0,0.0,0.0,0.0,0.0,0.0,0.0,0.0,0.0,0.0,0.0,0.0,0.0,0.0,0.0,0.0,0.0,0.0,0.0,0.0,0.0,0.0,0.0,0.0,0.0,0.0,0.0,0.0,0.0,0.0,0.0,0.0,0.0,0.0,0.0,0.0,0.0,0.0,0.0,0.0,0.0,0.0,0.0,0.0,0.0,0.0,0.0,0.0,0.0,0.0,0.0,0.0,0.0,0.0,0.0,0.0,0.0,0.0,0.0,0.0,0.0,0.0,0.0,0.0,0.0,0.0,0.0,0.0,0.0,0.0,0.0,0.0,0.0,0.0,0.0,0.0,0.0,0.0,0.0,0.0,0.0,0.0,0.0,0.0,0.0,0.0,0.0,0.0,0.0,0.0,0.0,0.0,0.0,0.0,0.0,0.0,0.0,0.0,0.0,0.0,0.0,0.0,0.0,0.0,0.0,0.0,0.0,0.0,0.0,0.0,0.0,0.0,0.0,0.0,0.0,0.0,0.0,0.0,0.0,0.0,0.0,0.0,0.0,0.0,0.0,0.0,0.0,0.0,0.0,0.0,0.0,0.0,0.0,0.0,0.0,0.0,0.0,0.0,0.0,0.0,0.0,0.0,0.0,0.0,0.0,0.0,0.0,0.0,0.0,0.0,0.0,0.0,0.0,0.0,0.0,0.0,0.0,0.0,0.0,0.0,0.0,0.0,0.0,0.0,0.0,0.0,0.0,0.0,0.0,0.0,0.0,0.0,0.0,0.0,0.0,0.0,0.0,0.0,0.0,0.0,0.0,0.0,0.0,0.0,0.0,0.0,0.0,0.0,0.0,0.0,0.0,0.0,0.0,0.0,0.0,0.0,0.0,0.0,0.0,0.0,0.0,0.0,0.0,0.0,0.0,0.0,0.0,0.0,0.0,0.0,0.0,0.0,0.0,0.0,0.0,0.0,0.0,0.0,0.0,0.0,0.0,0.0,0.0,0.0,0.0,0.0,0.0,0.0,0.0,0.0,0.0,0.0,0.0,0.0,0.0,0.0,0.0,0.0,0.0,0.0,0.0,0.0,0.0,0.0,0.0,0.0,0.0,0.0,0.0,0.0,0.0,0.0,0.0,0.0,0.0,0.0,0.0,0.0,0.0,0.0,0.0,0.0,0.0,0.0,0.0,0.0,0.0,0.0,0.0,0.0,0.0,0.0,0.0,0.0,0.0,0.0,0.0,0.0,0.0,0.0,0.0,0.0,0.0,0.0,0.0,0.0,0.0,0.0,0.0,0.0,0.0,0.0,0.0,0.0,0.0,0.0,0.0,0.0,0.0,0.0,0.0,0.0,0.0,0.0,0.0,0.0,0.0,0.0,0.0,0.0,0.0,0.0,0.0,0.0,0.0,0.0,0.0,0.0,0.0,0.0,0.0,0.0,0.0,0.0,0.0,0.0,0.0,0.0,0.0,0.0,0.0,0.0,0.0,0.0,0.0,0.0,0.0,0.0,0.0,0.0,0.0,0.0,0.0,0.0,0.0,0.0,0.0,0.0,0.0,0.0,0.0,0.0,0.0,0.0,0.0,0.0,0.0,0.0,0.0,0.0,0.0,0.0,0.0,0.0,0.0,0.0,0.0,0.0,0.0,0.0,0.0,0.0,0.0,0.0,0.0,0.0,0.0,0.0,0.0,0.0,0.0,0.0,0.0,0.0,0.0,0.0,0.0,0.0,0.0,0.0,0.0,0.0,0.0,0.0,0.0,0.0,0.0,0.0,0.0,0.0,0.0,0.0,0.0,0.0,0.0,0.0,0.0,0.0,0.0,0.0,0.0,0.0,0.0,0.0,0.0,0.0,0.0,0.0,0.0,0.0,0.0,0.0,0.0,0.0,0.0,0.0,0.0,0.0,0.0,0.0,0.0,0.0,0.0,0.0,0.0,0.0,0.0,0.0,0.0,0.0,0.0,0.0,0.0,0.0,0.0,0.0,0.0,0.0,0.0,0.0,0.0,0.0,0.0,0.0,0.0,0.0,0.0,0.0,0.0,0.0,0.0,0.0,0.0,0.0,0.0,0.0,0.0,0.0,0.0,0.0,0.0,0.0,0.0,0.0,0.0,0.0,0.0,0.0,0.0,0.0,0.0,0.0,0.0,0.0,0.0,0.0,0.0,0.0,0.0,0.0,0.0,0.0,0.0,0.0,0.0,0.0,0.0,0.0,0.0,0.0,0.0,0.0,0.0,0.0,0.0,0.0,0.0,0.0,0.0,0.0,0.0,0.0,0.0,0.0,0.0,0.0,0.0,0.0,0.0,0.0,0.0,0.0,0.0,0.0,0.0,0.0,0.0,0.0,0.0,0.0,0.0,0.0,0.0,0.0,0.0,0.0,0.0,0.0,0.0,0.0,0.0,0.0,0.0,0.0,0.0,0.0,0.0,0.0,0.0,0.0,0.0,0.0,0.0,0.0,0.0,0.0,0.0,0.0,0.0,0.0,0.0,0.0,0.0,0.0,0.0,0.0,0.0,0.0,0.0,0.0,0.0,0.0,0.0,0.0,0.0,0.0,0.0,0.0,0.0,0.0,0.0,0.0,0.0,0.0,0.0,0.0,0.0,0.0,0.0,0.0,0.0,0.0,0.0,0.0,0.0,0.0,0.0,0.0,0.0,0.0,0.0,0.0,0.0,0.0,0.0,0.0,0.0,0.0,0.0,0.0,0.0,0.0,0.0,0.0,0.0,0.0,0.0,0.0,0.0,0.0,0.0,0.0,0.0,0.0,0.0,0.0,0.0,0.0,0.0,0.0,0.0,0.0,0.0,0.0,0.0,0.0,0.0,0.0,0.0,0.0,0.0,0.0,0.0,0.0,0.0,0.0,0.0,0.0,0.0,0.0,0.0,0.0,0.0,0.0,0.0,0.0,0.0,0.0,0.0,0.0,0.0,0.0,0.0,0.0,0.0,0.0,0.0,0.0,0.0,0.0,0.0,0.0,0.0,0.0,0.0,0.0,0.0,0.0,0.0,0.0,0.0,0.0,0.0,0.0,0.0,0.0,0.0,0.0,0.0,0.0,0.0,0.0,0.0,0.0,0.0,0.0,0.0,0.0,0.0,0.0,0.0,0.0,0.0,0.0,0.0,0.0,0.0,0.0,0.0,0.0,0.0,0.0,0.0,0.0,0.0,0.0,0.0,0.0,0.0,0.0,0.0,0.0,0.0,0.0,0.0,0.0,0.0,0.0,0.0,0.0,0.0,0.0,0.0,0.0,0.0,0.0,0.0,0.0,0.0,0.0,0.0,0.0,0.0,0.0,0.0,0.0,0.0,0.0,0.0,0.0,0.0,0.0,0.0,0.0,0.0,0.0,0.0,0.0,0.0,0.0,0.0,0.0,0.0,0.0,0.0,0.0,0.0,0.0,0.0,0.0,0.0,0.0,0.0,0.0,0.0,0.0,0.0,0.0,0.0,0.0,0.0,0.0,0.0,0.0,0.0,0.0,0.0,0.0,0.0,0.0,0.0,0.0,0.0,0.0,0.0,0.0,0.0,0.0,0.0,0.0,0.0,0.0,0.0,0.0,0.0,0.0,0.0,0.0,0.0,0.0,0.0,0.0,0.0,0.0,0.0,0.0,0.0,0.0,0.0,0.0,0.0,0.0,0.0,0.0,0.0,0.0,0.0,0.0,0.0,0.0,0.0,0.0,0.0,0.0,0.0,0.0,0.0,0.0,0.0,0.0,0.0,0.0,0.0,0.0,0.0,0.0,0.0,0.0,0.0,0.0,0.0,0.0,0.0,0.0,0.0,0.0,0.0,0.0,0.0,0.0,0.0,0.0,0.0,0.0,0.0,0.0,0.0,0.0,0.0,0.0,0.0,0.0,0.0,0.0,0.0,0.0,0.0,0.0,0.0,0.0,0.0,0.0,0.0,0.0,0.0,0.0,0.0,0.0,0.0,0.0,0.0,0.0,0.0,0.0,0.0,0.0,0.0,0.0,0.0,0.0,0.0,0.0,0.0,0.0,0.0,0.0,0.0,0.0,0.0,0.0,0.0,0.0,0.0,0.0,0.0,0.0,0.0,0.0,0.0,0.0,0.0,0.0,0.0,0.0,0.0,0.0,0.0,0.0,0.0,0.0,0.0,0.0,0.0,0.0,0.0,0.0,0.0,0.0,0.0,0.0,0.0,0.0,0.0,0.0,0.0,0.0,0.0,0.0,0.0,0.0,0.0,0.0,0.0,0.0,0.0,0.0,0.0,0.0,0.0,0.0,0.0,0.0,0.0,0.0,0.0,0.0,0.0,0.0,0.0,0.0,0.0,0.0,0.0,0.0,0.0,0.0,0.0,0.0,0.0,0.0,0.0,0.0,0.0,0.0,0.0,0.0,0.0,0.0,0.0,0.0,0.0,0.0,0.0,0.0,0.0,0.0,0.0,0.0,0.0,0.0,0.0,0.0,0.0,0.0,0.0,0.0,0.0,0.0,0.0,0.0,0.0,0.0,0.0,0.0,0.0,0.0,0.0,0.0,0.0,0.0,0.0,0.0,0.0,0.0,0.0,0.0,0.0,0.0,0.0,0.0,0.0,0.0,0.0,0.0,0.0,0.0,0.0,0.0,0.0,0.0,0.0,0.0,0.0,0.0,0.0,0.0,0.0,0.0,0.0,0.0,0.0,-3.4197,-3.4197,0.0,0.0,0.0,0.0,0.0,0.0,0.0,0.0,0.0,0.0,0.0,0.0,0.0,0.0,0.0,0.0,0.0,0.0,0.0,0.0,0.0,0.0,0.0,-2.107,-2.2313,-2.228,-2.304,-2.3551,-2.3573,0.0,0.0,0.0,0.0,0.0,-2.0398,-1.9993,-1.977,-1.9727,-2.0213,-2.0445,-2.0458,-2.0915,-2.1545,-2.2333,0.0,0.0,0.0,0.0,0.0,0.0,0.0,0.0,0.0,0.0,0.0,0.0,0.0,0.0,0.0,0.0,0.0,0.0,0.0,0.0,0.0,0.0,0.0,0.0,0.0,0.0,0.0,0.0,0.0,0.0,0.0,0.0,0.0,0.0,0.0,0.0,0.0,0.0,0.0,0.0,0.0,0.0,0.0,0.0,0.0,0.0,0.0,0.0,0.0,0.0,0.0,0.0,0.0,0.0,0.0,0.0,0.0,0.0,0.0,0.0,0.0,0.0,0.0,0.0,0.0,0.0,0.0,0.0,0.0,0.0,-3.4245,-3.4197,0.0,0.0,0.0,0.0,0.0,0.0,0.0,0.0,0.0,0.0,0.0,0.0,0.0,0.0,0.0,0.0,0.0,0.0,0.0,0.0,0.0,-1.7909,-1.7951,-2.0875,-2.2654,-2.2192,-2.3416,-2.3995,-2.3466,-2.2489,0.0,0.0,0.0,-2.143,-2.0701,-2.1344,-2.1704,-2.1764,-2.1693,-2.1614,-2.1527,-2.083,-2.1239,-2.2561,-2.2707,0.0,0.0,0.0,0.0,0.0,0.0,0.0,0.0,0.0,0.0,0.0,0.0,0.0,0.0,0.0,0.0,0.0,0.0,0.0,0.0,0.0,0.0,0.0,0.0,0.0,0.0,0.0,0.0,0.0,0.0,0.0,0.0,0.0,0.0,0.0,0.0,0.0,0.0,0.0,0.0,0.0,0.0,0.0,0.0,0.0,0.0,0.0,0.0,0.0,0.0,0.0,0.0,0.0,0.0,0.0,0.0,0.0,0.0,0.0,0.0,0.0,0.0,0.0,-3.4889,-3.4772,-3.4772,-3.4604,-3.4517,-3.4517,-3.4293,-3.4197,-3.4197,-3.4197,0.0,0.0,0.0,0.0,0.0,0.0,0.0,0.0,0.0,0.0,0.0,0.0,0.0,0.0,0.0,0.0,0.0,0.0,0.0,-1.8017,-1.854,-2.0966,-2.3051,-2.427,-2.4569,-2.4955,-2.5546,-2.4113,0.0,0.0,-2.2691,-2.2336,-2.2221,-2.1821,-2.1894,-2.2469,-2.1779,-2.1121,-2.0507,-2.049,-2.0622,-2.087,-2.1566,-2.2068,-2.2389,0.0,0.0,0.0,0.0,0.0,0.0,0.0,0.0,0.0,0.0,0.0,0.0,0.0,0.0,0.0,0.0,0.0,0.0,0.0,0.0,0.0,0.0,0.0,0.0,0.0,0.0,0.0,0.0,0.0,0.0,0.0,0.0,0.0,0.0,0.0,0.0,0.0,0.0,0.0,0.0,0.0,-3.3866,-3.3344,0.0,0.0,0.0,0.0,0.0,0.0,0.0,0.0,0.0,0.0,0.0,0.0,0.0,-3.5403,-3.5242,-3.5019,-3.4831,-3.4668,-3.4431,-3.4274,-3.4293,-3.4269,-3.4245,-3.4245,-3.4221,0.0,-3.4197,-3.4197,0.0,0.0,0.0,0.0,0.0,0.0,0.0,0.0,0.0,0.0,0.0,0.0,0.0,0.0,0.0,0.0,0.0,0.0,0.0,0.0,0.0,-2.0864,-2.2905,-2.3094,-2.3914,-2.4588,-2.5022,-2.351,-2.2844,-2.3422,-2.2695,-2.2287,-2.2281,-2.19,-2.1874,-2.2211,-2.1549,-2.1105,-2.0853,-2.0499,-2.0383,-2.0503,-2.0831,-2.1107,-2.1309,-2.1291,0.0,0.0,0.0,0.0,0.0,0.0,0.0,0.0,0.0,0.0,0.0,0.0,0.0,0.0,0.0,0.0,0.0,0.0,0.0,0.0,0.0,0.0,0.0,0.0,0.0,0.0,0.0,0.0,0.0,0.0,0.0,0.0,0.0,0.0,0.0,0.0,0.0,0.0,0.0,-3.3269,-3.396,-3.4552,-3.4861,-3.5194,0.0,0.0,0.0,0.0,0.0,0.0,0.0,0.0,0.0,-3.556,-3.5412,-3.5273,-3.5209,-3.5001,-3.4811,-3.4602,-3.4473,-3.434,-3.4197,-3.4197,-3.4197,-3.4197,-3.4197,-3.4197,-3.4197,-3.4197,-3.4124,-3.3972,0.0,0.0,0.0,0.0,-3.1849,-3.1145,0.0,0.0,0.0,0.0,0.0,0.0,0.0,0.0,0.0,0.0,0.0,0.0,-1.7347,-2.0267,-2.2001,-2.1442,-2.2427,-2.3176,-2.3345,-2.2225,-2.2053,-2.3124,-2.2409,-2.207,-2.2275,-2.1893,-2.1512,-2.1167,-2.1022,-2.0895,-2.0803,-2.0373,-2.0268,-2.0414,-2.0405,-2.036,-2.0334,-2.0806,-2.0708,0.0,0.0,0.0,0.0,0.0,0.0,0.0,0.0,0.0,0.0,0.0,0.0,0.0,0.0,0.0,0.0,0.0,0.0,0.0,0.0,0.0,0.0,0.0,0.0,0.0,0.0,0.0,0.0,0.0,0.0,0.0,0.0,0.0,0.0,0.0,0.0,0.0,0.0,-3.3621,-3.4243,-3.5357,-3.5092,-3.5036,0.0,0.0,0.0,0.0,0.0,0.0,-3.5684,-3.5628,-3.5591,-3.5591,-3.5398,-3.5242,-3.5209,-3.5001,-3.4811,-3.4602,-3.4517,-3.4386,-3.4197,-3.4197,-3.4197,-3.4197,-3.4197,-3.4197,-3.4197,-3.4124,-3.3972,-3.3788,-3.3707,-3.3223,-3.2474,-3.2099,-3.1647,-3.1179,0.0,0.0,0.0,0.0,0.0,0.0,0.0,0.0,0.0,0.0,0.0,-1.7137,-1.7449,-1.8914,-1.9987,-2.0246,-2.0362,-2.0523,-2.0776,-2.0727,-2.1235,-2.2483,-2.1936,-2.1969,-2.2758,-2.1881,-2.0679,-1.9157,-2.0079,-2.0189,-1.95,-1.9907,-2.0145,-2.0211,-2.0336,-2.036,-2.0308,-2.026,-2.0487,-2.0768,0.0,0.0,0.0,0.0,0.0,0.0,0.0,0.0,0.0,0.0,0.0,0.0,0.0,0.0,0.0,0.0,0.0,0.0,0.0,0.0,0.0,0.0,0.0,0.0,0.0,0.0,0.0,0.0,0.0,0.0,0.0,0.0,0.0,0.0,0.0,0.0,0.0,0.0,0.0,-3.4739,-3.5238,0.0,0.0,0.0,0.0,-3.5646,-3.493,-3.4833,-3.5665,-3.5628,-3.5591,-3.5591,-3.5534,-3.5383,-3.5209,-3.5001,-3.4811,-3.4602,-3.434,-3.4221,-3.4197,-3.4197,-3.4197,-3.4197,-3.4197,-3.4197,-3.4173,-3.3921,-3.3815,-3.378,-3.3437,-3.2691,-3.1831,-3.2491,-3.2057,-3.1095,0.0,0.0,0.0,0.0,0.0,-1.5306,-1.5183,-1.5088,-1.4927,-1.4644,-1.5748,-1.6529,-1.6465,-1.7983,-1.9036,-1.9168,-1.905,-1.9294,-2.0021,-1.9641,-1.9958,-2.1206,-2.0905,-2.0745,-2.0865,-2.0201,-1.957,-1.8997,-1.9011,-1.911,-1.9273,-1.9433,-1.9725,-2.0084,-2.0201,-2.0283,-2.0302,-2.0225,-2.0556,-2.1003,-1.9902,-2.0338,0.0,0.0,0.0,0.0,0.0,0.0,0.0,0.0,0.0,0.0,0.0,0.0,0.0,0.0,0.0,0.0,0.0,0.0,0.0,0.0,0.0,0.0,0.0,0.0,0.0,0.0,0.0,0.0,0.0,0.0,0.0,0.0,0.0,0.0,0.0,0.0,0.0,-3.5467,-3.5624,0.0,-3.5702,-3.5415,-3.5369,-3.5676,-3.5414,-3.5375,-3.5684,-3.5651,-3.5608,-3.5608,-3.5528,-3.5345,-3.4997,-3.4945,-3.4711,-3.434,-3.4245,-3.4197,-3.4197,-3.4197,-3.4197,-3.4197,-3.4197,-3.4099,-3.3921,-3.3606,-3.3465,-3.3437,-3.3124,-3.2638,-3.2186,-3.2468,-3.2297,-3.1916,0.0,0.0,0.0,0.0,-1.5349,-1.5248,-1.5126,-1.495,-1.4691,-1.4348,-1.5317,-1.5889,-1.5448,-1.6681,-1.7445,-1.727,-1.7055,-1.7203,-1.7873,-1.7823,-1.8293,-1.9475,-1.9555,-1.9358,-1.8901,-1.8471,-1.8299,-1.839,-1.8107,-1.8188,-1.8628,-1.8872,-1.9177,-1.9613,-1.9892,-2.0122,-2.0253,-2.0215,-2.0395,-2.0653,-1.9798,-2.0188,-2.1075,0.0,0.0,0.0,0.0,0.0,0.0,0.0,0.0,0.0,0.0,0.0,0.0,0.0,0.0,0.0,0.0,0.0,0.0,0.0,0.0,0.0,0.0,0.0,0.0,0.0,0.0,0.0,0.0,0.0,0.0,0.0,0.0,0.0,0.0,-3.5554,-3.5918,-3.5927,-3.5836,-3.5768,-3.5741,-3.5704,-3.5699,-3.5695,-3.5704,-3.5704,-3.5704,-3.5643,-3.5601,-3.5601,-3.5553,-3.534,-3.4906,-3.4908,-3.4653,-3.4197,-3.4197,-3.4197,-3.4197,-3.4197,-3.4197,-3.4197,-3.4197,-3.4049,-3.3762,-3.3437,-3.3214,-3.3093,-3.2798,-3.2557,-3.2406,-3.2406,-3.2354,-3.2301,0.0,0.0,0.0,-1.5401,-1.5342,-1.5244,-1.5114,-1.4753,-1.4423,-1.4149,-1.4965,-1.5282,-1.4501,-1.4986,-1.5139,-1.4631,-1.4379,-1.4234,-1.4199,-1.5292,-1.6333,-1.7259,-1.7864,-1.7823,-1.7043,-1.6806,-1.683,-1.7118,-1.7316,-1.7422,-1.7445,-1.8141,-1.8574,-1.8796,-1.9405,-1.9868,-2.0173,-2.0188,-2.0057,-1.979,-1.9521,-1.9795,-2.0334,0.0,0.0,0.0,0.0,0.0,0.0,0.0,0.0,0.0,0.0,0.0,0.0,0.0,0.0,0.0,0.0,0.0,0.0,0.0,0.0,0.0,0.0,0.0,0.0,0.0,0.0,0.0,0.0,0.0,0.0,0.0,0.0,0.0,-3.5893,-3.5896,-3.5925,-3.5996,-3.5827,-3.5733,-3.5786,-3.5735,-3.5704,-3.5704,-3.5704,-3.5704,-3.5704,-3.5643,-3.5601,-3.5601,-3.5596,-3.5388,-3.4906,-3.4906,-3.4656,-3.4197,-3.4197,-3.4197,-3.4197,-3.4197,-3.4197,-3.4197,-3.4197,-3.4049,-3.3762,-3.3437,-3.3093,-3.2781,-3.2507,-3.2406,-3.2406,-3.2406,-3.2319,-3.2179,0.0,0.0,-1.5385,-1.5335,-1.5319,-1.5222,-1.4989,-1.4748,-1.4554,-1.4476,-1.4798,-1.4983,-1.4919,-1.4622,-1.4405,-1.424,-1.3501,-1.3317,-1.3866,-1.4212,-1.4688,-1.5344,-1.5521,-1.5433,-1.5021,-1.4602,-1.4637,-1.5103,-1.5288,-1.5706,-1.6282,-1.7036,-1.7706,-1.8231,-1.8797,-1.9344,-1.9845,-2.0033,-2.0068,-1.9934,-1.9705,-1.9523,-1.936,0.0,0.0,0.0,0.0,0.0,0.0,0.0,0.0,0.0,0.0,0.0,0.0,0.0,0.0,0.0,0.0,0.0,0.0,0.0,0.0,0.0,0.0,0.0,0.0,0.0,0.0,0.0,0.0,0.0,0.0,0.0,-3.4876,-3.5892,-3.5893,-3.5948,-3.5954,-3.5927,-3.5836,-3.5749,-3.5733,-3.5708,-3.5704,-3.5704,-3.5704,-3.5704,-3.5704,-3.5684,-3.5673,-3.5673,-3.5631,-3.5397,-3.498,-3.4925,-3.4656,-3.4197,-3.4197,-3.4197,-3.4197,-3.4197,-3.4197,-3.4197,-3.3998,-3.3734,-3.3408,-3.3093,-3.2766,-3.2489,-3.2422,-3.2406,-3.2406,-3.2406,-3.2319,-3.2179,0.0,-1.5408,-1.538,-1.5307,-1.5292,-1.5206,-1.4936,-1.4632,-1.4338,-1.4102,-1.4159,-1.418,-1.399,-1.3508,-1.3106,-1.2941,-1.2553,-1.2346,-1.2457,-1.2843,-1.3255,-1.3748,-1.3923,-1.3829,-1.347,-1.3341,-1.3326,-1.3417,-1.3653,-1.3974,-1.4364,-1.5452,-1.6104,-1.6357,-1.7325,-1.8126,-1.8802,-1.9159,-1.9433,-1.9629,-1.956,-1.9263,-1.886,-1.8771,-1.8908,-1.925,-1.9747,-2.0274,-2.0873,-2.1722,0.0,0.0,0.0,0.0,0.0,0.0,0.0,0.0,0.0,0.0,0.0,0.0,0.0,0.0,0.0,0.0,0.0,0.0,0.0,0.0,0.0,0.0,0.0,0.0,-3.5171,-3.5866,-3.5896,-3.5954,-3.5996,-3.595,-3.5887,-3.5821,-3.5755,-3.5715,-3.5698,-3.5715,-3.5704,-3.5704,-3.5704,-3.5704,-3.5704,-3.5704,-3.5577,-3.5345,-3.5013,-3.487,-3.4614,-3.4245,-3.4221,-3.4197,-3.4197,-3.4197,-3.4197,-3.4197,-3.3921,-3.3625,-3.3273,-3.2939,-3.2654,-3.2406,0.0,0.0,0.0,0.0,-3.2232,-3.2001,0.0,-1.5408,-1.5381,-1.531,-1.5295,-1.5211,-1.4936,-1.4577,-1.4113,-1.3491,-1.3527,-1.3317,-1.2561,-1.2077,-1.165,-1.1269,-1.1479,-1.1374,-1.0701,-1.1445,-1.2052,-1.236,-1.2694,-1.2626,-1.2109,-1.237,-1.2324,-1.1889,-1.214,-1.2196,-1.2071,-1.354,-1.4042,-1.3774,-1.5196,-1.6265,-1.7059,-1.7567,-1.8084,-1.8575,-1.8782,-1.8798,-1.8664,-1.8514,-1.843,-1.8551,-1.9682,-2.0117,-2.0315,-2.1315,0.0,0.0,0.0,0.0,0.0,0.0,0.0,0.0,0.0,0.0,0.0,0.0,0.0,0.0,0.0,0.0,0.0,0.0,0.0,0.0,0.0,0.0,0.0,0.0,-3.5761,-3.5841,-3.5903,-3.5956,-3.5996,-3.5996,-3.5948,-3.5861,-3.5816,-3.5748,-3.5697,-3.5695,-3.5704,-3.5704,-3.5704,-3.5704,0.0,0.0,0.0,-3.5268,-3.5009,-3.4813,-3.4569,-3.4293,-3.4245,-3.4197,-3.4197,-3.4197,-3.4197,-3.4173,-3.3868,-3.3578,-3.3273,-3.2908,-3.2621,-3.2406,-3.2406,-3.2406,-3.2406,-3.2354,-3.2126,-3.1783,0.0,-1.5408,-1.5381,-1.531,-1.5303,-1.5207,-1.4944,-1.511,-1.4963,-1.4213,-1.4186,-1.3914,-1.3139,-1.1938,-1.1054,-1.0749,-1.0411,-1.0426,-1.0961,0.0,-1.1337,-1.1078,-1.0926,-1.0672,-1.0245,-0.9942,-0.9837,-0.9932,-1.0155,-1.0346,-1.0558,-1.1561,-1.1966,-1.1856,-1.2593,-1.3367,-1.4162,-1.484,-1.5167,-1.5272,-1.5904,-1.7146,-1.8589,-1.8298,-1.8558,-1.9117,-1.9199,-1.9813,-2.0725,-2.1669,-2.2347,-2.2955,-2.3819,-2.4317,0.0,0.0,0.0,0.0,0.0,0.0,0.0,0.0,0.0,0.0,0.0,0.0,0.0,0.0,0.0,0.0,0.0,0.0,0.0,-3.4856,-3.5501,-3.597,-3.5973,-3.5996,-3.5994,-3.5996,-3.5948,-3.5861,-3.5816,-3.5748,-3.5697,-3.5695,-3.5704,-3.5704,-3.5704,-3.5704,-3.5704,-3.5704,-3.5509,-3.5268,-3.5009,-3.4851,-3.4609,-3.4293,-3.4293,0.0,-3.4197,-3.4197,-3.4197,-3.4173,-3.3616,-3.335,-3.3262,-3.2705,-3.2457,-3.2406,-3.2406,-3.2406,-3.2354,-3.2108,-3.1948,-3.1839,-1.5334,-1.5387,-1.5383,-1.5355,-1.5686,-1.5845,-1.5554,-1.5932,-1.5978,-1.5245,-1.4881,-1.444,-1.373,-1.272,-1.1939,-1.1482,-1.0701,-1.0532,0.0,-1.0584,-1.0067,-0.9672,-0.9511,-0.9151,-0.8502,-0.8462,-0.8307,-0.8059,-0.8307,-0.8364,-0.8216,-0.9262,-0.9422,-0.8883,-0.9648,-1.0194,-1.0576,-1.0971,-1.1031,-1.0802,-1.0258,-1.0477,-1.1528,-1.5562,-1.7559,-1.8295,-1.8933,-1.9865,-2.0978,-2.2082,-2.3124,-2.4057,-2.4647,-2.4948,-2.5173,0.0,0.0,0.0,0.0,0.0,0.0,0.0,0.0,0.0,0.0,0.0,0.0,0.0,0.0,-3.2973,-3.3841,0.0,-3.4781,-3.5234,-3.5661,-3.5953,-3.5995,-3.5995,-3.5996,-3.5996,-3.5976,-3.5927,-3.5853,-3.578,-3.5745,-3.5698,-3.5697,-3.5704,-3.5704,-3.5704,-3.5704,-3.5704,-3.5509,-3.5288,-3.5062,-3.4889,-3.467,-3.4386,-3.434,-3.4269,-3.4245,-3.4221,-3.4124,-3.3972,-3.3504,-3.3184,-3.3032,-3.259,-3.2406,-3.2406,-3.2406,-3.2319,-3.2144,-3.1984,-3.1711,-3.1411,-1.5516,-1.5618,-1.5642,-1.5648,-1.6188,-1.6546,-1.6383,-1.6851,-1.693,-1.6114,-1.5586,-1.4989,-1.4178,-1.3589,-1.3047,-1.2448,-1.1406,-1.0922,0.0,-0.996,-0.8953,-0.8497,-0.8388,-0.7977,-0.7119,-0.734,-0.7151,-0.651,-0.6704,-0.6529,-0.6021,-0.7032,-0.6887,-0.5869,-0.6707,-0.6966,-0.6789,-0.6697,-0.6464,-0.596,-0.4456,-0.3553,-0.3858,-1.0617,-1.342,-1.3939,-1.528,-1.72,-1.9271,-2.0522,-2.2677,-2.4859,-2.5061,-2.5155,-2.536,-2.6214,-2.6623,0.0,0.0,0.0,0.0,0.0,0.0,0.0,0.0,-3.1589,-3.2181,-3.2518,-3.3144,-3.3906,-3.4766,-3.4922,-3.5156,-3.5819,-3.5917,-3.5935,-3.5987,-3.5994,-3.5996,-3.5994,-3.5995,-3.5955,-3.589,-3.5827,-3.5768,-3.5702,-3.5708,-3.5704,-3.5704,-3.5704,-3.5704,-3.5704,-3.5509,-3.5302,-3.5114,-3.4907,-3.4711,-3.4495,-3.4386,-3.434,-3.4316,-3.4197,-3.4023,-3.3807,-3.3379,-3.3032,-3.2702,-3.2507,-3.2406,-3.2388,-3.2319,-3.2108,-3.1821,-3.1821,-3.1449,-3.0975,0.0,-1.6503,-1.6542,-1.655,-1.6589,-1.675,-1.7186,-1.771,-1.7564,-1.6183,-1.6257,-1.5806,-1.4194,-1.3745,-1.3336,-1.2782,-1.1761,0.0,-1.1276,-0.9886,-0.872,-0.8078,-0.7682,-0.7128,-0.644,-0.6106,-0.589,-0.5829,-0.5543,-0.528,-0.4978,-0.5221,-0.4762,-0.3732,-0.4029,-0.38,-0.3125,-0.2564,-0.1973,-0.1419,-0.0977,-0.1025,-0.1482,-0.2416,-0.2386,-0.1931,-0.2815,-0.7224,-1.2819,-1.3901,-1.9002,-2.4907,-2.513,-2.5158,-2.5174,-2.5528,-2.6181,-2.6816,-2.6914,-2.6953,-2.7363,-2.9075,-2.8984,-2.9081,0.0,-3.199,-3.2519,-3.4014,-3.44,-3.4738,-3.5605,-3.5762,-3.5819,-3.5962,-3.5999,-3.5979,-3.5994,-3.5996,-3.6001,-3.6005,-3.5957,-3.5879,-3.5827,-3.5742,-3.571,-3.5693,-3.5708,-3.5704,-3.5704,-3.5704,-3.5704,-3.5704,-3.5509,-3.5302,-3.5114,-3.4963,-3.4752,-3.4495,-3.4495,-3.445,-3.4363,-3.4074,-3.3921,-3.3842,-3.3166,-3.2702,-3.2457,-3.2422,-3.2406,-3.2354,-3.2055,-3.1802,-3.1542,-3.1542,-3.1312,-3.0935,0.0,-1.7021,-1.7571,-1.8122,-1.8125,-1.8096,-1.8255,-1.8764,-1.8832,-1.7962,-1.7699,-1.7236,-1.6308,-1.5487,-1.4709,-1.4015,-1.2672,-1.1604,-1.1111,-0.9572,-0.8345,-0.7618,-0.6929,-0.6306,-0.5847,-0.5156,-0.4835,-0.4835,-0.4484,-0.4156,-0.3867,-0.3658,-0.2948,-0.1867,-0.1679,-0.0937,0.0264,0.1211,0.2214,0.337,0.5404,0.626,0.6347,0.694,0.7561,0.6829,-0.3073,-0.9021,0.0,-1.4908,-1.9182,-2.3345,-2.2397,-2.2937,-2.4005,-2.4671,-2.534,-2.5894,-2.5963,-2.6734,-2.7679,-2.8388,-2.912,-2.9932,-3.1006,-3.1697,-3.2446,-3.3647,-3.4313,-3.4918,-3.579,-3.5966,-3.5966,-3.5994,-3.5991,-3.5991,-3.5991,-3.5991,-3.5982,-3.5956,-3.5917,-3.589,-3.5868,-3.5802,-3.5742,-3.5702,-3.5708,-3.5704,-3.5704,-3.5704,-3.5704,-3.5704,-3.5509,-3.5302,-3.5114,-3.4963,-3.4772,-3.4561,-3.4517,-3.4473,-3.4386,-3.4221,-3.3928,-3.3522,-3.283,-3.2489,-3.2406,-3.2406,-3.2406,-3.2354,-3.202,-3.1453,-3.0834,-3.0628,-3.0359,-2.9976,0.0,-1.746,-1.8264,-1.9453,-1.9567,-1.9441,-1.9289,-1.9598,-1.9729,-1.9291,-1.877,-1.8266,-1.7771,-1.6795,-1.5877,-1.5122,-1.3585,-1.2201,-1.1068,-0.9479,-0.8144,-0.7168,-0.6366,-0.5726,-0.5167,-0.4442,-0.3986,-0.3796,-0.341,-0.3008,-0.2536,-0.2047,-0.1136,0.0041,0.0492,0.1608,0.3248,0.4421,0.5716,0.7229,0.9922,1.131,1.1836,1.2585,1.2572,1.051,-0.153,-0.8042,-1.1367,-1.4298,-1.8748,-2.2757,-2.1042,-2.1692,-2.33,-2.4045,-2.4668,-2.5103,-2.5234,-2.619,-2.7292,-2.7724,-2.8916,-3.014,-3.084,-3.1538,-3.2298,-3.3161,-3.4074,-3.4882,-3.5474,-3.5802,-3.5981,-3.5923,-3.5958,-3.5988,-3.5981,-3.5988,-3.5982,-3.5937,-3.5937,-3.5918,-3.5891,-3.5814,-3.5749,-3.5741,-3.5708,-3.5704,-3.5704,-3.5704,-3.5704,-3.5704,-3.5565,-3.5364,-3.5114,-3.4997,-3.4851,-3.4602,-3.4333,-3.4289,-3.445,-3.4203,-3.3707,-3.3037,-3.2608,-3.2406,-3.2406,-3.2406,-3.2231,-3.1917,-3.16,-3.0844,-2.9884,-2.9366,-2.9148,-2.9052,0.0,0.0,-1.8466,-2.0251,-2.0503,-2.0386,-2.0183,-2.0118,-1.9888,-1.9378,-1.9036,-1.8519,-1.7608,-1.701,-1.6401,-1.5722,-1.4429,-1.2981,-1.1388,-0.9886,-0.8342,-0.6684,-0.6165,-0.537,-0.4257,-0.391,-0.3414,-0.284,-0.2299,-0.1678,-0.0963,-0.0348,0.0723,0.2106,0.2476,0.3708,0.5682,0.6865,0.8216,0.9588,1.0791,1.1591,1.2103,1.2318,1.0398,0.7444,0.6448,0.0,-0.6998,-0.9035,-1.6328,-2.4229,-2.2501,-2.2648,-2.3548,-2.3836,-2.4341,-2.4841,-2.4901,-2.5011,-2.5505,-2.7274,-2.7894,-2.872,-3.1204,-3.1841,-3.215,-3.3025,-3.4009,-3.4666,-3.4555,-3.5339,-3.5934,-3.5741,-3.5869,-3.5981,-3.5919,-3.5951,-3.5994,-3.5994,-3.5994,-3.5966,-3.5917,-3.5773,-3.5723,-3.5786,-3.5745,-3.5704,-3.5704,-3.5704,-3.5704,-3.5704,-3.5684,-3.5496,-3.5114,-3.5098,-3.4944,-3.4583,-3.3813,-3.3851,-3.4561,-3.3865,-3.3124,-3.2422,-3.2406,-3.2406,-3.2406,-3.2406,-3.1795,-3.082,-3.0535,-2.9782,-2.8727,-2.7744,-2.7831,-2.8445,0.0,0.0,0.0,-2.0387,-2.0586,-2.0539,-2.0419,-2.023,-2.0,-1.9743,-1.9149,0.0,0.0,0.0,0.0,0.0,-1.5007,-1.3728,-1.2328,-1.0623,-0.8998,-0.7477,-0.6091,-0.5062,-0.4328,-0.315,-0.2359,-0.2049,-0.0913,0.0046,0.0799,0.1712,0.2788,0.3935,0.4286,0.5472,0.7358,0.8169,0.9471,1.1177,1.2358,1.2533,1.1817,1.0011,0.7081,0.3318,0.0,0.0,-0.7685,-1.1959,-1.6299,-1.9718,-1.8616,-1.9578,-2.1362,-2.2704,-2.3004,-2.2923,-2.3225,-2.3444,-2.3783,-2.453,-2.5736,-2.7148,-2.8679,-2.9506,-3.0414,-3.1948,-3.254,-3.3099,-3.4182,-3.4641,-3.5045,-3.5618,-3.5757,-3.5794,-3.576,-3.5858,-3.5934,-3.5934,-3.5978,-3.5999,-3.5972,-3.5891,-3.5806,-3.573,-3.5721,-3.5699,-3.5695,-3.5704,-3.5704,-3.5704,-3.5565,-3.5438,-3.5302,-3.5066,-3.4908,-3.4792,-3.4344,-3.4211,-3.4316,-3.3707,-3.3214,-3.2866,-3.2541,-3.2267,-3.2073,-3.2073,-3.1461,-3.0501,-3.0207,-2.9242,-2.8003,-2.7494,-2.7131,-2.6949,0.0,0.0,0.0,0.0,0.0,0.0,0.0,0.0,0.0,0.0,0.0,0.0,0.0,0.0,0.0,0.0,0.0,-1.4342,-1.2986,-1.153,-0.9963,-0.827,-0.6878,-0.575,-0.479,-0.3494,-0.2514,-0.1891,-0.0346,0.0903,0.1824,0.3284,0.4715,0.6059,0.6669,0.7897,0.9635,1.0114,1.1002,1.2017,1.184,1.126,1.0052,0.6694,0.3094,0.0,0.0,-0.8838,-1.0118,-1.4633,-1.7081,-1.8071,-1.6982,-1.7883,-1.9565,-2.0763,-2.1045,-2.0958,-2.1057,-2.1422,-2.1953,-2.261,-2.3822,-2.5299,-2.6973,-2.7834,-2.8804,-3.0667,-3.1334,-3.1984,-3.3313,-3.389,-3.4436,-3.5194,-3.553,-3.5669,-3.5553,-3.5702,-3.5833,-3.5833,-3.5869,-3.5899,-3.5965,-3.5929,-3.5857,-3.5788,-3.5743,-3.5737,-3.5708,-3.5689,-3.5707,-3.5704,-3.5577,-3.5438,-3.5302,-3.4797,-3.4319,-3.3884,-3.3979,-3.3864,-3.3605,-3.3442,-3.3099,-3.2501,-3.2117,-3.162,-3.1097,-3.1026,-3.0364,-2.9408,-2.9208,-2.832,-2.7138,-2.6955,-2.6435,-2.5855,0.0,0.0,0.0,0.0,0.0,0.0,0.0,0.0,0.0,0.0,0.0,0.0,0.0,0.0,0.0,0.0,0.0,0.0,-1.3422,-1.2545,0.0,-0.9133,-0.8453,-0.7268,-0.5535,-0.4847,-0.3813,-0.2371,-0.0654,0.0868,0.2212,0.4247,0.6211,0.8189,0.9117,1.049,1.2032,1.2405,1.2324,1.1847,0.928,0.7806,0.6636,0.2563,0.0,0.0,-0.7587,-1.0645,-1.3879,-1.6487,-1.8271,-1.9082,-1.7418,-1.7419,-1.8079,-1.81,-1.8501,-1.8842,-1.8458,-1.8943,-1.9889,-2.1348,-2.207,-2.318,-2.6042,-2.6815,-2.7452,-2.9252,-3.0449,-3.1382,-3.2046,-3.3153,-3.4103,-3.4525,-3.5192,-3.554,-3.5215,-3.548,-3.5685,-3.5685,-3.5693,-3.5753,-3.5878,-3.5899,-3.5907,-3.5897,-3.5848,-3.5772,-3.5702,-3.569,-3.5697,-3.5695,-3.5704,-3.5489,-3.5073,-3.4251,-3.327,-3.218,-3.2795,-3.2876,-3.2515,-3.3085,-3.2637,-3.1434,-3.1175,-3.0539,-2.9643,-2.9385,-2.8626,-2.7685,-2.7685,-2.7052,-2.622,-2.617,-2.574,-2.5259,0.0,0.0,0.0,0.0,0.0,0.0,0.0,0.0,0.0,0.0,0.0,0.0,0.0,0.0,0.0,0.0,0.0,0.0,-1.5198,-1.3902,0.0,-1.0899,-0.9139,-0.7695,-0.6595,-0.5304,-0.4189,-0.3273,-0.1699,0.0,0.1687,0.3023,0.4371,0.5723,0.6334,0.6986,0.7753,0.8599,0.7829,0.5939,0.0,0.2971,-0.0319,0.0,0.0,0.0,-1.2776,-1.4774,-1.6199,-1.5661,-1.5277,-1.4913,-1.4476,-1.447,-1.478,-1.5548,-1.5469,-1.5355,-1.6136,-1.6212,-1.6369,-1.7543,-1.9012,-2.0871,-2.3422,-2.5056,-2.66,-2.8553,-2.9824,-3.0843,-3.1605,-3.2692,-3.3715,-3.4482,-3.4756,-3.4886,-3.4887,-3.5147,-3.5354,-3.5399,-3.5573,-3.571,-3.5745,-3.5846,-3.5909,-3.5896,-3.5879,-3.5818,-3.5709,-3.5694,-3.5696,-3.5695,-3.5704,-3.5353,-3.4588,-3.3489,-3.2968,-3.3081,-3.3094,-3.2966,-3.2711,-3.2584,-3.1809,-3.0588,-3.0317,-2.9833,-2.9155,-2.9013,-2.8303,-2.7411,-2.7411,-2.6906,-2.6137,-2.559,-2.5624,-2.5837,0.0,0.0,0.0,0.0,0.0,0.0,0.0,0.0,0.0,0.0,0.0,0.0,0.0,0.0,0.0,0.0,0.0,0.0,0.0,-1.561,-1.4544,-1.3482,-1.1695,-1.0401,-0.9729,-0.7948,-0.6481,-0.5445,0.0,0.0,-0.0109,0.1273,0.2552,0.3741,0.4242,0.4794,0.5241,0.5303,0.0,0.0,0.0,0.0,0.0,0.0,0.0,-1.4209,-1.6311,-1.655,-1.5712,-1.4618,-1.3762,-1.3102,-1.2863,-1.2813,-1.2914,-1.3299,-1.3297,-1.3277,-1.3895,-1.4087,-1.4373,-1.5439,-1.7334,-1.9518,-2.1554,-2.3784,-2.5885,-2.7592,-2.9004,-3.0161,-3.0965,-3.2114,-3.3199,-3.3901,-3.4357,-3.4591,-3.4551,-3.4813,-3.504,-3.5076,-3.524,-3.5405,-3.5521,-3.5582,-3.571,-3.5883,-3.5923,-3.5894,-3.5786,-3.5766,-3.5573,-3.5194,-3.5136,-3.4461,-3.3102,-3.2684,-3.2615,-3.2837,-3.2579,-3.2562,-3.2785,-3.2009,-3.1073,-2.9982,-2.9537,-2.8914,-2.8186,-2.7837,-2.7367,-2.6816,-2.6816,-2.6568,-2.6118,-2.5478,-2.536,-2.5389,0.0,0.0,0.0,0.0,0.0,0.0,0.0,0.0,0.0,0.0,0.0,0.0,0.0,0.0,0.0,0.0,0.0,0.0,0.0,0.0,0.0,-1.6395,-1.5212,-1.4306,-1.3661,-1.1679,-0.9958,-0.8515,-0.5806,0.0,0.0,0.0,0.0,0.0,0.0,0.0,0.0,0.0,0.0,0.0,0.0,0.0,0.0,0.0,0.0,0.0,-1.8623,-1.7159,-1.4482,-1.3841,-1.3077,-1.235,-1.1909,-1.1807,-1.1774,-1.1456,-1.1624,-1.1942,-1.1929,-1.2448,-1.3246,-1.4287,-1.635,-1.8588,-2.0262,-2.2818,-2.5253,-2.6721,-2.8287,-2.9621,-3.0451,-3.1681,-3.2703,-3.3164,-3.3906,-3.4357,-3.4128,-3.4464,-3.4733,-3.4772,-3.4831,-3.498,-3.5211,-3.5282,-3.5446,-3.5801,-3.5814,-3.5833,-3.5898,-3.5737,-3.5232,-3.4353,-3.4119,-3.3176,-3.1422,-3.1846,-3.2033,-3.1936,-3.1615,-3.1824,-3.2453,-3.137,-3.0333,-2.9368,-2.8829,-2.8066,-2.7149,-2.6624,-2.6312,-2.6203,-2.6203,-2.6118,-2.5947,-2.5538,-2.4948,-2.4454,0.0,0.0,0.0,0.0,0.0,0.0,0.0,0.0,0.0,0.0,-2.2488,-2.2411,0.0,0.0,0.0,0.0,0.0,0.0,0.0,0.0,0.0,-1.8737,-1.8026,-1.7132,-1.6049,-1.4742,-1.3389,-1.2092,-1.0401,-0.9139,0.0,0.0,0.0,0.0,0.0,0.0,0.0,0.0,0.0,0.0,0.0,0.0,0.0,0.0,0.0,0.0,-1.9786,-1.8532,-1.6954,-1.492,-1.2516,-1.0344,-1.0426,-1.0214,-1.003,-1.0401,-1.0277,-1.0215,-1.0916,-1.1446,-1.202,-1.2982,-1.4985,-1.7261,-1.9354,-2.1948,-2.4557,-2.6778,-2.8644,-3.0131,-3.0941,-3.1987,-3.2791,-3.2872,-3.3255,-3.3542,-3.3542,-3.3981,-3.4375,-3.452,-3.4711,-3.4851,-3.4963,-3.517,-3.5335,-3.5399,-3.5065,-3.5145,-3.5859,-3.5211,-3.4381,-3.3458,-3.2551,-3.1859,-3.1403,-3.0687,-3.0598,-3.1109,-3.0886,-3.0791,-3.0808,-3.0418,-2.9562,-2.8344,-2.8205,-2.7729,-2.7085,-2.6889,-2.659,-2.626,-2.626,-2.5719,-2.4837,-2.4713,-2.4397,-2.3967,0.0,0.0,0.0,0.0,0.0,0.0,0.0,-2.1932,-2.2626,-2.3007,-2.3723,-2.4126,-2.3924,-2.3947,-2.3945,0.0,0.0,0.0,0.0,0.0,0.0,0.0,-2.0795,-1.9929,-1.9239,-1.7743,-1.6314,-1.5015,0.0,-1.2589,-1.2544,-1.0788,-1.01,-1.0354,-0.9728,-0.9771,-1.0416,-1.136,-1.3989,-1.7596,-1.8673,-2.0595,0.0,0.0,0.0,0.0,0.0,-2.0087,-1.8571,-1.7146,-1.4705,-1.2045,-1.1012,-1.0567,-1.0481,-1.0532,-1.0429,-1.0377,-1.0787,-1.1217,-1.1849,-1.3162,-1.552,-1.7956,-1.958,-2.2783,-2.5692,-2.679,-2.8798,-3.0489,-3.0872,-3.1843,-3.2519,-3.2519,-3.2813,-3.3063,-3.3075,-3.3478,-3.3821,-3.3917,-3.4232,-3.4502,-3.467,-3.4925,-3.4967,-3.4647,-3.4545,-3.4709,-3.5193,-3.4003,-3.3066,-3.2532,-3.1576,-3.0972,-3.0781,-3.0704,-3.0741,-3.0902,-3.0621,-3.0469,-3.0383,-2.9649,-2.8956,-2.8326,-2.7982,-2.7408,-2.6714,-2.6326,-2.5781,-2.518,-2.4977,-2.4556,-2.4037,-2.3506,-2.3447,-2.353,0.0,0.0,0.0,0.0,0.0,0.0,0.0,-2.2266,-2.3241,-2.3612,-2.479,-2.5621,-2.5717,-2.5888,-2.6025,0.0,0.0,0.0,0.0,0.0,0.0,0.0,0.0,-2.273,-2.2169,0.0,0.0,-1.7925,-1.6299,0.0,0.0,0.0,0.0,0.0,-1.4642,-1.4638,-1.4983,-1.6741,-1.8801,0.0,0.0,-2.3449,0.0,0.0,0.0,0.0,0.0,-2.1787,-2.0273,-1.9413,-1.7448,-1.5001,-1.3145,-1.2078,-1.1547,-1.1339,-1.1104,-1.0912,-1.1048,-1.1319,-1.1998,-1.3635,-1.6153,-1.8631,-2.0004,-2.3547,-2.6656,-2.6996,-2.8938,-3.0659,-3.0886,-3.1549,-3.2109,-3.2179,-3.2453,-3.2684,-3.2684,-3.3014,-3.3284,-3.3284,-3.3671,-3.4012,-3.4274,-3.4419,-3.4319,-3.394,-3.3865,-3.391,-3.4067,-3.2824,-3.196,-3.166,-3.0763,-3.0285,-3.0235,-3.0624,-3.075,-3.0697,-3.0381,-3.0209,-3.0083,-2.9137,-2.8554,-2.824,-2.7751,-2.6981,-2.6063,-2.5589,-2.489,-2.4097,-2.3786,-2.3453,-2.3084,-2.2514,-2.2578,-2.2913,0.0,0.0,0.0,0.0,0.0,0.0,0.0,-2.3047,-2.3749,-2.526,-2.5538,-2.614,-2.7586,-2.691,-2.6637,0.0,0.0,0.0,0.0,0.0,0.0,0.0,0.0,0.0,0.0,0.0,0.0,-2.1155,-2.0021,0.0,0.0,0.0,0.0,0.0,0.0,-1.734,-1.7733,-1.931,0.0,0.0,0.0,0.0,0.0,0.0,0.0,0.0,0.0,-2.3533,-2.2673,-2.0882,-1.9417,-1.824,-1.7207,-1.473,-1.2217,-1.267,-1.191,-1.1022,-1.1509,-1.1604,-1.1987,-1.3678,-1.5647,-1.7696,-1.9826,-2.2983,-2.5922,-2.7536,-2.9155,-3.0523,-3.1522,-3.1528,-3.1487,-3.1783,-3.2126,-3.2352,-3.2352,-3.2651,-3.289,-3.2934,-3.3136,-3.3372,-3.368,-3.3364,-3.3302,-3.36,-3.2635,-3.2113,-3.2316,-3.2185,-3.1695,-3.0846,-2.9847,-2.9666,-3.0367,-2.936,-2.9241,-2.9986,-2.9832,-2.9565,-2.9215,-2.9101,-2.8364,-2.7146,-2.7094,-2.6329,-2.5115,-2.5074,-2.4588,-2.3902,-2.3885,-2.2975,-2.1748,-2.2216,-2.2171,-2.1939,0.0,0.0,0.0,0.0,0.0,0.0,-2.2284,-2.3261,-2.416,-2.4822,-2.5354,-2.608,-2.7165,-2.7342,-2.7691,-2.8491,0.0,0.0,0.0,0.0,0.0,0.0,0.0,0.0,0.0,0.0,-2.3917,-2.2916,-2.2657,0.0,0.0,0.0,0.0,0.0,0.0,-2.0382,-2.0735,-2.2152,0.0,0.0,0.0,0.0,0.0,0.0,0.0,0.0,0.0,0.0,-2.3758,-2.2571,-2.1206,-1.9934,-1.9355,-1.7501,-1.5289,-1.429,-1.3345,-1.2648,-1.2288,-1.2622,-1.3497,-1.5186,-1.6883,-1.8878,-2.177,-2.4575,-2.7006,-2.8505,-2.9914,-3.0955,-3.1167,-3.1083,-3.1083,-3.1466,-3.16,-3.1785,-3.1948,-3.2109,-3.2282,-3.2519,-3.2663,-3.288,-3.3314,-3.3489,-3.3409,-3.3077,-3.2161,-3.1497,-3.1212,-3.1243,-3.1094,-3.078,-2.9825,-2.9423,-2.9624,-2.8536,-2.8118,-2.8331,-2.8035,-2.7825,-2.7664,-2.7449,-2.704,-2.6489,-2.6187,-2.5482,-2.4539,-2.4196,-2.3592,-2.2906,-2.2407,-2.1827,-2.127,-2.1378,-2.1576,-2.1849,0.0,0.0,0.0,0.0,0.0,-2.2067,-2.2557,-2.3633,-2.459,-2.5098,-2.5698,-2.6342,-2.7129,-2.7899,-2.8709,-2.9516,-2.9939,0.0,0.0,0.0,0.0,0.0,0.0,0.0,0.0,0.0,-2.5282,-2.5049,-2.5011,-2.5322,0.0,0.0,-2.374,-2.4073,0.0,0.0,0.0,0.0,0.0,0.0,0.0,0.0,0.0,0.0,0.0,0.0,0.0,0.0,0.0,0.0,0.0,-2.1758,-2.1397,-2.017,-1.8349,-1.5938,-1.4778,-1.4158,-1.3323,-1.3682,-1.4696,-1.6414,-1.8114,-2.0118,-2.312,-2.5669,-2.7786,-2.905,-3.0222,-3.0965,-3.0845,-3.0707,-3.0747,-3.1083,-3.1123,-3.124,-3.1466,-3.1565,-3.1696,-3.1823,-3.2127,-3.2431,-3.2791,-3.3268,-3.3269,-3.2569,-3.1862,-3.1172,-3.0527,-3.036,-3.0323,-3.0382,-2.926,-2.8715,-2.8811,-2.778,-2.7307,-2.7369,-2.7007,-2.6783,-2.6683,-2.641,-2.6036,-2.5632,-2.5234,-2.4559,-2.3676,-2.3255,-2.2635,-2.1945,-2.1385,-2.1007,-2.081,-2.0885,-2.1288,-2.1952,0.0,0.0,0.0,0.0,0.0,0.0,-2.4117,-2.4394,-2.5019,-2.6758,-2.6928,-2.7229,-2.8084,-2.8846,-2.9617,-3.043,-3.043,0.0,0.0,0.0,0.0,0.0,0.0,0.0,0.0,0.0,-2.7103,-2.795,-2.7157,-2.7193,-2.7932,-2.6602,-2.5889,-2.5756,0.0,0.0,0.0,0.0,0.0,0.0,0.0,0.0,0.0,0.0,0.0,0.0,0.0,0.0,0.0,0.0,0.0,0.0,0.0,-2.2599,-2.0809,-1.7642,-1.6037,-1.5192,-1.4701,-1.4657,-1.5186,-1.6953,-1.89,-2.0969,-2.3298,-2.5713,-2.7843,-2.905,-2.9857,-3.0418,-3.0764,-3.0543,-3.0418,-3.0747,-3.0804,-3.0804,-3.0788,-3.1083,-3.1162,-3.0828,-3.16,-3.2073,-3.1933,-3.2386,-3.2544,-3.2139,-3.1663,-3.1049,-3.0239,-2.964,-2.9357,-2.9414,-2.7807,-2.7312,-2.8099,-2.7046,-2.6883,-2.7599,-2.7258,-2.6953,-2.6703,-2.656,-2.5687,-2.4337,-2.4294,-2.3562,-2.2327,-2.231,-2.1932,-2.1308,-2.1308,-2.0812,-2.0192,-2.0864,-2.1477,-2.2085,0.0,0.0,0.0,0.0,0.0,0.0,0.0,-2.541,-2.6387,-2.6934,-2.7499,-2.7945,-2.8168,-2.944,-3.0335,-3.0548,-3.1012,0.0,0.0,0.0,0.0,0.0,0.0,0.0,0.0,0.0,-2.7267,-2.7861,-2.8164,-2.8682,-2.9352,-2.8367,-2.7882,-2.7822,-2.7132,-2.652,0.0,0.0,0.0,0.0,0.0,0.0,0.0,0.0,0.0,0.0,0.0,0.0,0.0,0.0,0.0,0.0,0.0,0.0,0.0,-2.0882,-1.9176,-1.7889,-1.7872,-1.7965,-1.8592,-2.0724,-2.1696,-2.2878,-2.5621,-2.6907,-2.7906,-2.9414,-2.9992,-3.0267,-3.0215,-3.0103,-3.013,-3.0418,-3.046,-3.0543,-3.0764,-3.0666,-3.0666,-3.0804,-3.1393,-3.1877,-3.2213,-3.2775,-3.269,-3.1704,-3.1883,-3.1229,-2.9404,-2.8734,-2.844,-2.8509,-2.7468,-2.7,-2.72,-2.6246,-2.5823,-2.5953,-2.5627,-2.5338,-2.5115,-2.4945,-2.4535,-2.3957,-2.3631,-2.3237,-2.2807,-2.2186,-2.1827,-2.165,-2.1632,-2.1489,-2.1354,-2.2171,-2.2583,-2.2833,0.0,0.0,0.0,0.0,0.0,0.0,0.0,-2.6093,-2.7129,-2.7441,-2.8242,-2.8768,-2.8697,-3.0193,-3.1164,-3.1099,-3.2076,0.0,0.0,0.0,0.0,0.0,0.0,0.0,0.0,-2.8199,-2.8575,-2.9402,-2.9611,-2.9898,-3.0202,-2.9393,-2.9195,-2.9453,-2.8728,-2.8144,0.0,0.0,0.0,0.0,0.0,0.0,0.0,0.0,0.0,0.0,0.0,0.0,0.0,0.0,0.0,0.0,0.0,0.0,0.0,0.0,-2.2736,-2.1478,-2.0511,-2.0708,-2.1555,-2.3012,-2.3816,-2.4806,-2.6903,-2.7708,-2.8343,-2.9659,-3.0017,-3.0087,-2.9946,-2.9918,-2.9946,-3.013,-3.0156,-3.0199,-3.0452,-3.0351,-3.046,-3.0925,-3.1184,-3.1585,-3.2317,-3.2559,-3.2426,-3.1801,-3.1458,-3.0519,-2.8874,-2.7934,-2.7346,-2.7121,-2.6659,-2.638,-2.6345,-2.5737,-2.5359,-2.5231,-2.4866,-2.4595,-2.4389,-2.4135,-2.3855,-2.3518,-2.3236,-2.2985,0.0,-2.2073,-2.1721,-2.1636,-2.1756,-2.1733,-2.1748,-2.2778,-2.3167,-2.3218,0.0,0.0,0.0,0.0,0.0,0.0,0.0,-2.6523,-2.7383,-2.8184,-2.9101,-2.9686,-2.9691,-3.1141,-3.209,-3.2089,0.0,0.0,0.0,0.0,0.0,0.0,0.0,0.0,-3.0261,-3.0106,-3.0686,-3.2013,-3.1299,-3.0827,-3.0621,-2.9876,-2.9969,-3.0674,-2.993,-2.9574,0.0,0.0,0.0,0.0,0.0,0.0,0.0,0.0,0.0,0.0,0.0,0.0,0.0,0.0,0.0,0.0,0.0,0.0,0.0,0.0,0.0,0.0,0.0,-2.3024,-2.4025,-2.4295,-2.5379,-2.6621,-2.7409,-2.8224,0.0,-2.9756,-2.9918,-2.9918,-2.9918,-2.9918,-2.9918,-2.9918,-2.9918,-2.9918,-2.9918,-3.0113,-3.0502,-3.1123,-3.0965,-3.1133,-3.2161,-3.1888,-3.1757,-3.2047,-3.0454,-2.9157,-2.8426,-2.7179,-2.6178,-2.5511,-2.5564,-2.5602,-2.5605,-2.5531,-2.5437,-2.5313,-2.4924,-2.4625,-2.4407,-2.4059,-2.3606,-2.3116,-2.3091,-2.2782,-2.231,-2.1965,-2.1636,-2.1422,-2.1782,-2.1666,-2.1516,-2.2871,-2.3332,-2.3299,0.0,0.0,0.0,0.0,0.0,0.0,0.0,0.0,0.0,0.0,-2.9648,-3.084,-3.1484,-3.2423,-3.3243,0.0,0.0,0.0,0.0,0.0,0.0,0.0,0.0,0.0,-3.2072,-3.155,-3.1312,-3.1331,-3.1312,-3.1184,-3.0977,-3.0789,-3.1092,-3.1742,-3.1555,-3.1376,0.0,0.0,0.0,0.0,0.0,0.0,0.0,0.0,0.0,0.0,-2.821,-2.7954,0.0,0.0,0.0,0.0,0.0,0.0,0.0,0.0,-2.8013,-2.8241,-2.7173,0.0,-2.6001,-2.7381,-2.7656,-2.7908,0.0,-2.9033,-2.9,-2.9756,-2.9918,-2.9918,-2.9918,-2.9918,-2.9918,-2.9918,-2.9918,-2.9918,-2.9918,-2.9946,-3.013,-3.0502,-3.0477,-3.049,-3.072,-3.0907,-3.0416,-2.8998,-2.9028,-2.8331,-2.6474,-2.6355,-2.6049,-2.543,-2.5483,-2.5541,-2.5601,-2.5532,-2.5466,-2.5369,-2.519,-2.4896,-2.454,-2.4155,-2.3767,-2.3387,-2.2985,-2.2738,-2.2559,-2.2299,-2.2151,-2.2101,-2.2707,-2.2578,-2.2209,-2.3579,-2.3748,-2.3277,0.0,0.0,0.0,0.0,0.0,0.0,0.0,0.0,0.0,0.0,0.0,-3.1503,-3.1511,-3.2916,0.0,0.0,0.0,0.0,0.0,0.0,0.0,0.0,0.0,-3.2603,-3.336,-3.2641,-3.2114,-3.1819,-3.1531,-3.1104,-3.0549,-3.0445,-3.1017,-3.2122,-3.2393,-3.2452,0.0,0.0,0.0,0.0,0.0,0.0,0.0,0.0,0.0,0.0,-2.8597,-2.8264,0.0,-2.7636,-2.7809,-2.8186,0.0,0.0,0.0,0.0,-2.9026,-2.945,-2.8801,-2.8295,-2.8126,-2.9098,-2.9093,-2.9034,-2.9717,-2.961,-2.9432,-2.9837,-2.9918,-2.9918,-2.9918,-2.9918,-2.9918,-2.9918,-2.9918,-2.9918,-2.9918,-2.9918,-3.0017,-3.0267,-3.0013,-2.9952,-3.0166,-2.9593,-2.8812,-2.7877,-2.7331,-2.6597,-2.5614,-2.5421,-2.5283,-2.5168,-2.5335,-2.5465,-2.5605,-2.5564,-2.5504,-2.5387,-2.5235,-2.4956,-2.4591,-2.4281,-2.4049,-2.3916,-2.3618,-2.3411,-2.3241,-2.2651,-2.2263,-2.2091,-2.2294,-2.2147,-2.1947,-2.2994,-2.3029,-2.251,0.0,0.0,0.0,0.0,0.0,0.0,0.0,0.0,0.0,0.0,0.0,0.0,0.0,0.0,0.0,0.0,0.0,0.0,0.0,0.0,0.0,0.0,0.0,-3.3583,-3.418,-3.3603,-3.305,-3.256,-3.1929,-3.1054,-2.9934,-2.975,-3.0528,-3.212,-3.2598,-3.2934,0.0,0.0,0.0,0.0,0.0,0.0,0.0,0.0,0.0,0.0,0.0,0.0,0.0,-2.8113,-2.8312,-2.8729,-2.9143,0.0,0.0,0.0,0.0,0.0,-2.8864,-2.9146,-2.9772,-2.9886,-2.9837,-2.974,-2.974,-2.9659,-2.9578,-2.9578,-2.9659,-2.974,-2.974,-2.9837,-2.9918,-2.9918,-2.9918,-2.9918,-2.9918,-2.9918,-2.9941,-3.0077,-2.9494,-2.9168,-2.9529,-2.798,-2.6995,-2.7087,-2.5525,-2.473,-2.5093,-2.4506,-2.4391,-2.4866,-2.512,-2.535,-2.5551,-2.5576,-2.5527,-2.5395,-2.5226,-2.4943,-2.4607,-2.4388,-2.4365,-2.4484,-2.4385,-2.4219,-2.3957,-2.3046,-2.236,-2.1856,-2.1574,-2.1399,-2.1399,-2.204,-2.2018,-2.1594,0.0,0.0,0.0,0.0,0.0,0.0,0.0,0.0,0.0,0.0,0.0,0.0,0.0,0.0,0.0,0.0,0.0,0.0,0.0,0.0,0.0,-3.5315,-3.518,-3.4814,-3.4199,-3.4795,-3.4032,-3.1853,-3.2404,-3.1782,-3.008,-3.0032,-3.0758,-3.2102,-3.2024,-3.273,-3.3956,0.0,0.0,0.0,-3.4141,0.0,0.0,0.0,0.0,0.0,0.0,0.0,0.0,-2.9026,-2.9407,-2.9822,-3.0283,0.0,0.0,0.0,0.0,0.0,-2.8143,-2.8401,-2.9097,-2.9756,-2.9448,-2.8951,-2.8951,-2.8482,-2.8045,-2.8045,-2.853,-2.8951,-2.8951,-2.9497,-2.9918,-2.9918,-2.9918,-2.9918,-2.9918,-2.9918,-2.9675,-2.9101,-2.8387,-2.7597,-2.6746,-2.5826,-2.4895,-2.3968,-2.3971,-2.394,-2.371,-2.3967,-2.4331,-2.4799,-2.5023,-2.5195,-2.535,-2.5469,-2.5479,-2.5395,-2.5312,-2.5056,-2.4673,-2.4368,-2.4446,-2.4792,-2.4284,-2.4058,-2.4061,-2.3567,-2.2947,-2.2311,-2.2181,-2.1778,-2.1399,-2.204,-2.1879,-2.1316,0.0,0.0,0.0,0.0,0.0,0.0,0.0,0.0,0.0,0.0,0.0,0.0,0.0,0.0,0.0,0.0,0.0,0.0,0.0,0.0,0.0,-3.4814,-3.4795,-3.4603,-3.4199,-3.4122,-3.3314,-3.1698,-3.1602,-3.1047,-3.0128,-3.0845,-3.145,-3.1974,-3.2739,-3.351,-3.4179,-3.3807,0.0,0.0,0.0,0.0,0.0,0.0,0.0,0.0,0.0,0.0,0.0,0.0,-2.9668,-3.0077,-3.0543,0.0,0.0,0.0,0.0,0.0,-2.7611,-2.7972,-2.8683,-2.9194,-2.9367,-2.9372,-2.9372,-2.8806,-2.8401,-2.879,-2.8822,-2.8903,-2.9335,-2.9691,-2.9918,-2.9918,-2.9918,-2.9918,-2.9918,-2.9194,-2.8579,-2.8255,-2.6879,-2.581,-2.5431,-2.4379,-2.357,-2.3217,-2.313,-2.2894,-2.2464,-2.2783,-2.3174,-2.3648,-2.4004,-2.4468,-2.5081,-2.5392,-2.5529,-2.5445,-2.5379,-2.5138,-2.4741,-2.457,-2.478,-2.5291,-2.463,-2.4396,-2.4475,-2.3503,-2.2637,-2.1808,-2.1424,-2.1044,-2.0727,-2.0632,-2.0356,-2.002,0.0,0.0,0.0,0.0,0.0,0.0,0.0,0.0,0.0,0.0,0.0,0.0,0.0,0.0,0.0,0.0,0.0,0.0,0.0,0.0,-3.5226,-3.4552,-3.4321,-3.402,-3.3622,-3.3141,-3.2314,-3.1083,-3.0833,-3.0478,-3.009,-3.126,-3.1813,-3.1857,-3.3287,-3.4011,-3.4197,-3.4197,-3.4197,0.0,0.0,0.0,0.0,0.0,0.0,0.0,0.0,0.0,0.0,0.0,0.0,0.0,0.0,0.0,0.0,-2.8844,-2.8323,-2.7679,-2.6896,-2.7389,-2.8217,-2.8345,-2.8936,-2.9468,-2.9512,-2.8963,-2.8522,-2.9113,-2.8963,-2.8866,-2.9355,-2.9657,-2.9766,-2.9604,-2.9615,-2.9659,-2.9659,-2.8385,-2.7413,-2.7235,-2.56,-2.446,-2.431,-2.344,-2.2847,-2.2781,-2.2635,-2.2245,-2.1547,-2.1803,-2.2121,-2.2407,-2.2809,-2.343,-2.4312,-2.4721,-2.5017,-2.5197,-2.515,-2.4812,-2.4263,-2.4176,-2.4504,-2.5075,-2.454,-2.4373,-2.436,-2.327,-2.2232,-2.1264,-2.0643,-2.0354,-2.0235,-1.9617,-1.925,-1.9026,0.0,0.0,0.0,0.0,0.0,0.0,0.0,0.0,0.0,0.0,0.0,0.0,0.0,0.0,0.0,0.0,0.0,0.0,0.0,0.0,-3.5558,-3.5495,-3.4711,-3.355,-3.1929,-3.2545,-3.1718,-2.9294,-3.0833,-3.1033,-2.9937,-3.0602,-3.1233,-3.1838,-3.2692,-3.3491,-3.4197,-3.4197,-3.4197,-3.4197,0.0,0.0,0.0,0.0,0.0,0.0,0.0,0.0,0.0,0.0,0.0,0.0,0.0,0.0,-2.9813,-2.8188,-2.7441,-2.6918,-2.5744,-2.6439,-2.7428,-2.7169,-2.7632,-2.8199,-2.8435,-2.7778,-2.713,-2.7178,-2.7869,-2.8371,-2.8183,-2.8889,-2.9323,-2.8698,-2.8742,-2.8871,-2.8871,-2.7656,-2.6523,-2.5843,-2.5017,-2.4,-2.2702,-2.3091,-2.2864,-2.155,-2.2443,-2.2529,-2.1302,-2.1642,-2.1803,-2.1607,-2.1799,-2.214,-2.2585,-2.2803,-2.3361,-2.429,-2.4284,-2.3724,-2.2646,-2.2539,-2.2801,-2.338,-2.3469,-2.336,-2.3127,-2.2878,-2.2132,-2.1087,-2.0577,-2.0354,-2.0304,-2.0235,-1.9762,-1.9101,0.0,0.0,0.0,0.0,0.0,0.0,0.0,0.0,0.0,0.0,0.0,0.0,0.0,0.0,0.0,0.0,0.0,0.0,0.0,-3.565,-3.5387,-3.4874,-3.45,-3.3747,-3.2528,-3.2274,-3.1426,-2.9905,-3.0355,-3.0601,-3.0646,-3.1183,-3.1834,-3.2581,-3.338,-3.3918,-3.4197,-3.4197,-3.4197,-3.4197,-3.4197,0.0,0.0,0.0,0.0,0.0,0.0,0.0,0.0,0.0,-3.0466,-3.0475,-3.0532,-2.9868,-2.8956,-2.8288,-2.7433,-2.6573,-2.6112,-2.6564,-2.7068,-2.6675,-2.7095,-2.7843,-2.8661,-2.787,-2.7273,-2.8113,-2.8218,-2.8136,-2.8063,-2.8025,-2.7965,-2.7822,-2.7859,-2.7985,-2.8109,-2.6911,-2.5924,-2.5648,-2.458,-2.3479,-2.2491,-2.2637,-2.2394,-2.139,-2.1864,-2.1807,-2.0827,-2.1207,-2.1288,-2.0902,-2.12,-2.1598,-2.2077,-2.2334,-2.2508,-2.2593,-2.313,-2.3062,-2.2429,-2.2348,-2.2405,-2.258,-2.2636,-2.2503,-2.2237,-2.2212,-2.1661,-2.0811,-2.0224,-1.9925,-1.9696,-1.9332,-1.8997,-1.8707,0.0,0.0,0.0,0.0,0.0,0.0,0.0,0.0,0.0,0.0,0.0,0.0,0.0,0.0,0.0,0.0,0.0,0.0,-3.5399,-3.5305,-3.4991,-3.4429,-3.4359,-3.4044,-3.3415,-3.2551,-3.1546,-3.0398,-2.9846,-3.0073,-3.1013,-3.1609,-3.2277,-3.3027,-3.3844,-3.4197,-3.4197,-3.4197,-3.4197,-3.4197,-3.4197,-3.4197,0.0,0.0,0.0,0.0,0.0,0.0,0.0,0.0,-3.0279,-3.023,-3.011,-2.9368,-2.8447,-2.8027,-2.7335,-2.6699,-2.6557,-2.6911,-2.7178,-2.6566,-2.692,-2.755,-2.8218,-2.7545,-2.718,-2.8607,-2.8217,-2.7609,-2.7512,-2.7089,-2.6844,-2.6862,-2.6914,-2.7038,-2.7243,-2.5841,-2.4772,-2.4756,-2.3781,-2.2813,-2.1987,-2.2392,-2.2329,-2.1358,-2.1722,-2.1565,-2.055,-2.0713,-2.0601,-2.0021,-2.0188,-2.0481,-2.0889,-2.1211,-2.1264,-2.1033,-2.1718,-2.1943,-2.176,-2.1602,-2.1465,-2.1349,-2.1358,-2.1201,-2.0966,-2.1205,-2.1051,-2.066,-2.005,-1.9681,-1.9479,-1.8959,-1.8655,-1.8436,0.0,0.0,0.0,0.0,0.0,0.0,0.0,0.0,0.0,0.0,0.0,0.0,0.0,0.0,0.0,0.0,0.0,0.0,-3.4505,-3.4489,-3.4466,-3.4399,-3.4399,-3.4359,-3.4306,-3.3454,-3.2146,-3.0409,-2.9404,-2.9554,-3.0846,-3.1709,-3.2409,-3.3045,-3.3844,-3.4179,-3.4197,-3.4197,-3.4197,-3.4197,-3.4197,-3.4197,0.0,0.0,0.0,0.0,0.0,0.0,0.0,0.0,-2.9148,-2.9458,-2.8134,-2.8228,-2.8543,-2.7194,-2.7147,-2.7394,-2.6929,-2.7377,-2.7753,-2.6917,-2.7039,-2.7271,-2.6784,-2.6473,-2.6673,-2.8104,-2.7509,-2.6635,-2.6184,-2.6107,-2.6072,-2.5726,-2.5827,-2.6059,-2.623,-2.4441,-2.3044,-2.2905,-2.2611,-2.1987,-2.0906,-2.2419,-2.2863,-2.1391,-2.2147,-2.2042,-2.0566,-2.0217,-1.9753,-1.9018,-1.8669,-1.8585,-1.8699,-1.9166,-1.9536,-1.9799,-2.0078,-2.0266,-2.0383,-2.0049,-1.9763,-1.95,-1.9505,-1.9347,-1.9172,-1.9904,-2.0399,-2.0644,-2.0015,-1.9788,-1.9752,-1.9479,-1.8997,-1.8422,0.0,0.0,0.0,0.0,0.0,0.0,0.0,0.0,0.0,0.0,0.0,0.0,0.0,0.0,0.0,0.0,0.0,0.0,-3.4562,-3.3999,-3.39,-3.4445,-3.4429,-3.4679,-3.5267,-3.4392,-3.333,-3.2153,-3.1016,-3.1231,-3.277,-3.2152,-3.2594,-3.3826,-3.3491,-3.3658,-3.4197,-3.4197,-3.4197,-3.4197,-3.4197,-3.4197,0.0,0.0,0.0,0.0,0.0,0.0,0.0,0.0,0.0,0.0,-2.9116,-2.9005,-2.8605,-2.7701,-2.7519,-2.7403,-2.6709,-2.6655,-2.6602,-2.5715,-2.6201,-2.6639,-2.5606,-2.5667,-2.6016,-2.6189,-2.5785,-2.5258,-2.4911,-2.4462,-2.4177,-2.4228,-2.393,-2.3749,-2.3937,-2.3018,-2.2322,-2.2284,-2.2189,-2.1802,-2.1013,-2.1414,-2.1194,-1.9857,-2.0,-1.9925,-1.934,-1.9349,-1.9151,-1.861,-1.8643,-1.8642,-1.848,-1.8768,-1.914,-1.9579,-1.9952,-2.0141,-2.0196,-2.0095,-1.9772,-1.9306,-1.9542,-1.9617,-1.9631,-2.0337,-2.0473,-2.0181,-1.9854,-1.9479,-1.9072,-1.8836,-1.8397,-1.7908,0.0,0.0,0.0,0.0,0.0,0.0,0.0,0.0,0.0,0.0,0.0,0.0,0.0,0.0,0.0,0.0,0.0,0.0,0.0,-3.356,-3.3465,-3.3923,-3.4565,-3.5151,-3.5651,-3.4735,-3.4109,-3.3815,-3.2333,-3.2258,-3.3468,-3.2331,-3.2488,-3.3696,-3.3213,-3.3268,-3.3733,-3.4048,-3.4197,-3.4197,-3.4197,-3.4197,-3.4141,0.0,0.0,0.0,0.0,0.0,0.0,0.0,0.0,0.0,-3.0176,-2.9689,-2.8941,-2.8679,-2.8387,-2.802,-2.7442,-2.7224,-2.699,-2.6027,-2.6385,-2.6641,-2.5288,-2.53,-2.5416,-2.4787,-2.4499,-2.431,-2.4095,-2.3522,-2.3084,-2.3065,-2.2651,-2.2337,-2.245,-2.1575,-2.1024,-2.1317,-2.0955,-2.055,-2.0369,-2.033,-1.9878,-1.894,-1.9012,-1.8885,-1.8377,-1.8566,-1.8496,-1.8119,-1.8236,-1.8257,-1.808,-1.8362,-1.8784,-1.9335,-1.9595,-1.984,-2.0098,-2.0099,-1.9812,-1.9317,-1.9413,-1.9533,-1.9674,-2.0172,-2.0344,-2.0254,-1.9782,-1.942,-1.9124,-1.876,-1.8372,-1.7975,0.0,0.0,0.0,0.0,0.0,0.0,0.0,0.0,0.0,0.0,0.0,0.0,0.0,0.0,0.0,0.0,0.0,0.0,0.0,0.0,-3.3206,-3.3228,-3.4814,-3.5662,-3.5604,-3.4757,-3.4601,-3.5209,-3.3386,-3.2808,-3.34,-3.2381,-3.234,-3.3101,-3.3027,-3.3027,-3.3138,-3.3807,-3.4086,-3.4067,-3.4011,-3.3974,-3.3974,-3.4073,0.0,0.0,0.0,0.0,0.0,0.0,0.0,0.0,-3.1136,-3.0341,-2.959,-2.9947,-2.9591,-2.8994,-2.8619,-2.854,-2.8239,-2.7074,-2.6925,-2.6718,-2.5426,-2.5059,-2.4725,-2.3764,-2.3529,-2.3533,-2.3515,-2.2876,-2.2334,-2.2088,-2.1672,-2.1369,-2.1376,-2.0073,-1.9353,-2.0031,-1.9128,-1.8664,-1.9155,-1.9038,-1.876,-1.8263,-1.853,-1.8329,-1.7443,-1.761,-1.765,-1.7499,-1.751,-1.7502,-1.7542,-1.7936,-1.8422,-1.8977,-1.9039,-1.9409,-2.0039,-2.0049,-1.9807,-1.9369,-1.925,-1.9234,-1.9329,-1.9634,-2.0082,-2.0534,-1.9788,-1.9485,-1.9456,-1.8945,-1.8606,-1.8268,0.0,0.0,0.0,0.0,0.0,0.0,0.0,0.0,0.0,0.0,0.0,0.0,0.0,0.0,0.0,0.0,0.0,0.0,0.0,0.0,-3.3477,-3.4089,-3.5082,-3.562,-3.5604,-3.5354,-3.521,-3.5209,-3.3938,-3.3695,-3.4301,-3.3258,-3.3157,-3.39,-3.3268,-3.3343,-3.39,-3.3436,-3.325,-3.3194,-3.2562,-3.2302,-3.24,-3.3197,-3.3393,0.0,0.0,0.0,0.0,0.0,0.0,0.0,-3.1434,-3.1293,-3.1058,-3.0558,-3.0174,-2.9627,-2.8202,-2.7899,-2.7575,-2.587,-2.4798,-2.4178,-2.4057,-2.3425,-2.2818,-2.255,-2.2355,-2.2131,-2.1832,-2.1011,-2.0329,-2.0279,-1.9503,-1.8862,-1.8857,-1.8162,-1.7717,-1.7854,-1.7638,-1.7558,-1.7666,-1.7275,-1.6813,-1.6263,-1.5929,-1.5549,-1.5139,-1.5443,-1.5757,-1.5973,-1.6463,-1.685,-1.7052,-1.7499,-1.7868,-1.8151,-1.8644,-1.9082,-1.9475,-1.9638,-1.9268,-1.8521,-1.9486,-1.9358,-1.8636,-1.9763,-1.9777,-1.9095,-1.9394,-1.8877,-1.8024,-1.8408,-1.8014,-1.7297,0.0,0.0,0.0,0.0,0.0,0.0,0.0,0.0,0.0,0.0,0.0,0.0,0.0,0.0,0.0,0.0,0.0,0.0,0.0,-3.3809,-3.4149,-3.4999,-3.5422,-3.562,-3.5604,-3.556,-3.5388,-3.5054,-3.449,-3.4356,-3.4583,-3.3496,-3.3213,-3.3603,-3.3175,-3.3008,-3.3045,-3.3008,-3.299,-3.2953,-3.2525,-3.26,-3.2957,-3.3112,-3.3399,-3.368,-3.3417,0.0,0.0,0.0,0.0,0.0,0.0,0.0,-3.1286,-3.0677,-3.0314,-2.9747,-2.8075,-2.7836,-2.762,-2.5805,-2.4524,-2.382,-2.3961,-2.2847,-2.1689,-2.1491,-2.1513,-2.1336,-2.0657,-2.0086,-1.9507,-1.9034,-1.8288,-1.7725,-1.7682,-1.6999,-1.6595,-1.6769,-1.6625,-1.6595,-1.6811,-1.6189,-1.5549,-1.5031,-1.4691,-1.4237,-1.3624,-1.431,-1.4882,-1.5242,-1.5749,-1.6111,-1.638,-1.6962,-1.7332,-1.7417,-1.8061,-1.866,-1.9208,-1.9589,-1.9473,-1.9048,-1.9787,-1.974,-1.9235,-2.005,-2.0023,-1.9459,-1.9489,-1.909,-1.8461,-1.8503,-1.8173,-1.7639,0.0,0.0,0.0,0.0,0.0,0.0,0.0,0.0,0.0,0.0,0.0,0.0,0.0,0.0,0.0,0.0,0.0,0.0,0.0,-3.4137,-3.4949,-3.5665,-3.5684,-3.5651,-3.5604,-3.5591,-3.536,-3.4908,-3.4908,-3.4866,-3.4723,-3.3701,-3.3213,-3.3213,-3.3213,-3.2841,-3.2247,-3.2767,-3.299,-3.299,-3.2841,-3.3175,-3.3714,-3.3222,-3.3469,-3.3995,-3.3636,-3.3855,-3.4293,-3.4404,0.0,0.0,0.0,0.0,-3.1011,-3.061,-3.0269,-2.965,-2.8027,-2.7744,-2.7502,-2.5994,-2.4878,-2.4162,-2.4071,-2.2608,-2.1139,-2.0548,-2.0678,-2.0573,-1.9578,-1.927,-1.8866,-1.7983,-1.7422,-1.7081,-1.6956,-1.6219,-1.5812,-1.6145,-1.5788,-1.5668,-1.6003,-1.5242,-1.4535,-1.407,-1.3914,-1.3431,-1.2531,-1.3519,-1.4215,-1.4481,-1.4945,-1.5286,-1.5503,-1.6215,-1.6553,-1.652,-1.7309,-1.8146,-1.9011,-1.9591,-1.9911,-1.9991,-2.0227,-2.0241,-2.0128,-2.027,-2.0164,-1.9851,-1.943,-1.9148,-1.895,-1.8531,-1.8344,-1.8147,0.0,0.0,0.0,0.0,0.0,0.0,0.0,0.0,0.0,0.0,0.0,-3.5664,-3.4805,-3.4643,0.0,0.0,0.0,0.0,-3.4186,0.0,0.0,-3.5684,-3.5643,-3.5608,-3.5604,-3.5528,-3.5311,-3.4908,-3.4908,-3.5068,-3.5343,-3.4463,-3.403,-3.403,-3.403,-3.3974,-3.3844,-3.325,-3.299,-3.2934,-3.2228,-3.2005,-3.2195,-3.2975,-3.332,-3.3529,-3.4189,-3.4467,-3.4517,-3.4316,-3.3757,0.0,0.0,0.0,-3.102,-3.061,-3.0269,-2.965,-2.8027,-2.6681,-2.5623,-2.5265,-2.4427,-2.3555,-2.3051,-2.2067,-2.1027,-1.9997,-1.9448,-1.8967,-1.8398,-1.7544,-1.6883,-1.6721,-1.633,-1.5997,-1.5969,-1.5513,-1.5198,-1.5277,-1.4812,-1.4525,-1.456,-1.3728,-1.3162,-1.3095,-1.2636,-1.2159,-1.1689,-1.2401,-1.2728,-1.2495,-1.3413,-1.4033,-1.4255,-1.4902,-1.514,-1.4918,-1.6217,-1.746,-1.8608,-1.9387,-1.9928,-2.0294,-2.0877,-2.0809,-2.0273,-2.0046,-1.9171,-1.7996,-1.8262,-1.7813,-1.7071,-1.7683,-1.7679,-1.731,0.0,0.0,0.0,0.0,0.0,0.0,0.0,0.0,0.0,0.0,0.0,-3.5664,-3.4805,-3.4667,0.0,0.0,0.0,0.0,-3.3644,-3.4485,0.0,0.0,-3.5403,-3.5651,-3.5604,-3.556,-3.5407,-3.5072,-3.4964,-3.492,-3.4988,-3.4455,-3.4457,-3.4903,-3.442,-3.3956,-3.3491,-3.3138,-3.299,-3.2971,-3.26,-3.273,-3.3143,-3.3146,-3.3411,-3.3751,-3.332,-3.343,-3.3639,-3.3175,-3.2695,-3.2247,-3.1668,0.0,0.0,0.0,-2.9551,-2.9343,-2.8152,-2.67,-2.548,-2.5322,-2.443,-2.3508,-2.3113,-2.168,-2.0182,-1.9463,-1.8324,-1.7437,-1.7222,-1.6815,-1.6349,-1.5812,-1.5546,-1.5289,-1.4994,-1.4766,-1.4536,-1.4269,-1.4003,-1.3758,-1.3484,-1.2428,-1.185,-1.2107,-1.1423,-1.1073,-1.118,-1.1678,-1.1984,-1.2021,-1.253,-1.2967,-1.3285,-1.3767,-1.4362,-1.5168,-1.5449,-1.656,-1.8342,-1.8306,-1.8904,-2.0007,-2.0669,-2.0689,-2.0247,-2.0192,-1.9516,-1.8508,-1.8738,-1.8087,-1.7029,-1.7317,-1.6954,-1.6318,0.0,0.0,0.0,0.0,0.0,0.0,0.0,0.0,0.0,0.0,0.0,0.0,-3.4741,0.0,0.0,0.0,0.0,0.0,-3.2783,0.0,0.0,0.0,0.0,-3.545,-3.5604,-3.5591,-3.5435,-3.5124,-3.4963,-3.4884,-3.4813,-3.4405,-3.4661,-3.5442,-3.4587,-3.3863,-3.3287,-3.3287,-3.3287,-3.3287,-3.3287,-3.3658,-3.4123,-3.3528,-3.3677,-3.4054,-3.301,-3.2776,-3.2943,-3.255,-3.1998,-3.1374,-3.0761,-3.0361,0.0,0.0,0.0,-2.8617,-2.7893,-2.6766,-2.5738,-2.546,-2.4527,-2.3595,-2.3363,-2.1437,-1.9557,-1.9093,-1.7676,-1.6436,-1.6163,-1.612,-1.5856,-1.5006,-1.488,-1.4731,-1.4351,-1.4061,-1.3779,-1.3457,-1.3092,-1.2783,-1.2423,-1.1435,-1.0921,-1.112,-1.0618,-1.0419,-1.0743,-1.1098,-1.145,-1.1899,-1.179,-1.1912,-1.2242,-1.2412,-1.3265,-1.4717,-1.4431,-1.5354,-1.7322,-1.7245,-1.7959,-1.9339,-2.028,-2.0662,-2.0621,-2.0477,-1.9954,-1.9248,-1.9133,-1.8385,-1.7357,-1.7096,-1.6506,-1.5816,0.0,0.0,0.0,0.0,0.0,0.0,0.0,0.0,0.0,0.0,0.0,0.0,-3.4613,-3.4517,-3.3813,-3.205,0.0,0.0,0.0,0.0,0.0,0.0,0.0,0.0,-3.5584,-3.5591,-3.5379,-3.4927,-3.4908,-3.5084,-3.5429,-3.4587,-3.4661,-3.5442,-3.4587,-3.4179,-3.4141,-3.4141,-3.4141,-3.4141,-3.4141,-3.416,-3.4197,-3.4141,-3.416,-3.4179,-3.4128,-3.3626,-3.3018,-3.3181,-3.2088,-3.0674,-3.0764,-3.012,-2.9274,0.0,0.0,0.0,-2.6957,-2.6435,-2.5901,-2.5497,-2.4648,-2.3752,-2.3392,-2.1437,-1.9557,-1.9093,-1.7676,-1.6207,-1.5322,-1.5153,-1.496,-1.4362,-1.4305,-1.4305,-1.4222,-1.3447,-1.2861,-1.2861,-1.1931,-1.1301,-1.1301,-1.0874,-1.0497,-1.0208,-1.0419,-1.0529,-1.034,-1.0536,-1.0966,-1.1614,-1.101,-1.0794,-1.1095,-1.0791,-1.1216,-1.2373,-1.2927,-1.3812,-1.5037,-1.6528,-1.7572,-1.8276,-1.9908,-2.1061,-2.173,-2.0855,-2.0074,-1.9335,-1.8687,-1.8143,-1.7572,-1.6883,-1.6544,-1.6343,0.0,0.0,0.0,0.0,0.0,0.0,0.0,0.0,0.0,0.0,0.0,0.0,0.0,-3.5334,-3.4853,-3.3662,-3.2996,0.0,0.0,0.0,0.0,0.0,0.0,0.0,0.0,-3.5591,-3.5435,-3.5089,-3.4945,-3.4922,-3.4899,-3.4418,-3.4364,-3.4643,-3.4327,-3.4197,-3.4197,-3.4148,-3.4148,-3.4124,-3.4099,-3.4099,-3.4093,-3.3573,-3.3393,-3.3287,-3.2247,-3.2024,-3.2158,-3.1704,-3.1123,-3.0615,-3.066,-3.0039,-2.9218,-2.8815,-2.8281,-2.7765,-2.7474,-2.6841,-2.6173,-2.5762,-2.4776,-2.3794,-2.3392,-2.1451,-1.9635,-1.9114,-1.7447,-1.5799,-1.4776,-1.4823,-1.4674,-1.3836,-1.3647,-1.3351,-1.2618,-1.2236,-1.1882,-1.1566,-1.0872,-1.0431,-1.0431,-0.9815,-0.9471,-0.9739,-0.9687,-0.9773,-1.0092,-1.0169,-1.0328,-1.057,-1.0337,-1.018,-1.0038,-1.0164,-1.0723,-1.1635,-1.15,-1.2511,-1.4576,-1.5222,-1.6192,-1.7474,-1.8856,-1.9822,-2.0415,-2.0205,-1.9604,-1.8827,-1.8793,-1.8108,-1.717,-1.7044,-1.6225,-1.5174,0.0,0.0,0.0,0.0,0.0,0.0,0.0,0.0,0.0,-3.5877,0.0,0.0,0.0,0.0,-3.5374,-3.4505,-3.3626,-3.284,-3.227,-3.3325,0.0,0.0,0.0,0.0,0.0,-3.5302,-3.5012,-3.477,-3.4564,-3.4224,-3.3776,-3.4055,-3.4048,-3.3788,-3.3788,-3.3956,-3.4197,-3.4148,-3.4124,-3.4124,-3.4074,-3.3907,-3.366,-3.3099,-3.2776,-3.2451,-3.1396,-3.1173,-3.1321,-3.0828,-3.0453,-3.0206,-3.0253,-2.9816,-2.9178,-2.8821,-2.8412,-2.8047,-2.7771,-2.7115,-2.6436,-2.6016,-2.5035,-2.4059,-2.3508,-2.1773,-2.004,-1.9403,-1.7734,-1.6022,-1.4788,-1.4647,-1.4247,-1.3016,-1.257,-1.212,-1.1384,-1.0981,-1.0669,-1.0305,-0.9636,-0.9169,-0.9169,-0.8642,-0.8437,-0.8728,-0.8623,-0.8856,-0.9604,-0.9573,-0.9636,-0.9874,-0.9957,-0.9773,-0.9225,-0.952,-0.9908,-1.0354,-1.0434,-1.1461,-1.3297,-1.3883,-1.5064,-1.6685,-1.7697,-1.8742,-1.9754,-1.9892,-1.9579,-1.8948,-1.8761,-1.8156,-1.7315,-1.6942,-1.5994,-1.4854,0.0,0.0,0.0,0.0,0.0,0.0,0.0,0.0,-3.5877,-3.5819,0.0,0.0,0.0,0.0,0.0,-3.4403,-3.363,-3.3147,-3.314,-3.316,0.0,0.0,0.0,0.0,-3.5584,-3.4718,-3.4134,-3.3891,-3.3691,-3.3091,-3.2178,-3.3533,-3.3751,-3.299,-3.299,-3.3417,-3.4123,-3.4123,-3.4141,-3.416,-3.4087,-3.3629,-3.2953,-3.2882,-3.2405,-3.1745,-3.1727,-3.1247,-3.0618,-3.0748,-3.0203,-2.9483,-2.9589,-2.9433,-2.9138,-2.8814,-2.8428,-2.8047,0.0,0.0,0.0,-2.621,-2.5438,-2.461,-2.3794,-2.2308,-2.0872,-1.9985,-1.8549,-1.6941,-1.54,-1.4595,-1.361,-1.1891,-1.1183,-1.0771,-1.0618,-0.9799,-0.9176,-0.9176,-0.8178,-0.7492,-0.7492,-0.7492,-0.7336,-0.7042,-0.7297,-0.7902,-0.8834,-0.8721,-0.889,-0.9562,-0.9872,-0.9595,-0.8707,-0.8768,-0.868,-0.8537,-0.9767,-1.0626,-1.1132,-1.2608,-1.4214,-1.5878,-1.6522,-1.7982,-1.9921,-2.0027,-1.9976,-1.9742,-1.8543,-1.815,-1.8054,-1.653,-1.586,-1.5517,0.0,0.0,0.0,0.0,0.0,-3.5996,-3.5996,-3.5896,-3.5821,0.0,0.0,0.0,-3.5604,-3.5591,-3.5488,-3.5253,-3.5037,-3.4631,-3.4008,-3.4549,-3.4723,-3.4337,-3.4958,-3.54,-3.5604,-3.536,-3.4776,-3.3891,-3.369,-3.3374,-3.2964,-3.3235,-3.3213,-3.299,-3.299,-3.2785,-3.2451,-3.2405,-3.2715,-3.3252,-3.3179,-3.2723,-3.2048,-3.2024,-3.157,-3.0875,-3.0281,-3.0299,-3.0615,-3.0642,-3.0881,-3.1043,-3.0511,-2.9832,-2.9262,-2.9156,-2.8845,-2.8456,-2.8147,0.0,0.0,0.0,0.0,0.0,-2.3837,-2.2731,-2.1495,-2.0112,-1.8864,-1.7581,-1.598,-1.4552,-1.3363,-1.2442,-1.1733,-1.1099,-1.0517,-0.9909,-0.919,-0.8343,-0.7972,-0.7658,-0.7241,-0.7182,-0.7208,-0.7242,-0.7298,-0.7517,-0.7856,-0.8364,-0.889,-0.9465,-0.9636,-0.9494,-0.9043,-0.8855,-0.8738,-0.8738,-0.9249,-0.9894,-1.0664,-1.2177,-1.335,-1.4254,-1.603,-1.7176,-1.7909,-1.8832,-1.9192,-1.8976,-1.7658,-1.6953,-1.6492,-1.5354,-1.4287,-1.3412,0.0,0.0,0.0,-3.5996,-3.5996,-3.5996,-3.5954,-3.5877,-3.5788,0.0,0.0,0.0,-3.5554,-3.5554,-3.5566,-3.5565,-3.5572,-3.536,-3.4874,-3.5319,-3.5222,-3.4334,-3.4797,-3.5056,-3.502,-3.466,-3.4314,-3.4036,-3.3465,-3.3087,-3.2919,-3.2713,-3.2579,-3.247,-3.2135,-3.1912,-3.1745,-3.1054,-3.1589,-3.2943,-3.2871,-3.239,-3.17,-3.1343,-3.0735,-3.0039,-2.9574,-2.9704,-3.0113,-3.0113,-3.0411,-3.0727,-3.0262,-2.9736,-2.9302,-2.9302,-2.9021,-2.8669,-2.8456,-2.7936,-2.7334,-2.6774,0.0,0.0,-2.4471,-2.3676,-2.2657,-2.1101,-2.0173,-1.9079,-1.7242,-1.5703,-1.4405,-1.3421,-1.2488,-1.1532,-1.0387,-0.9496,-0.8659,-0.7765,-0.7391,-0.6966,-0.6381,-0.6327,-0.6381,-0.6485,-0.6485,-0.675,-0.7439,-0.8196,-0.8883,-0.9465,-0.9562,-0.9475,-0.9182,-0.8985,-0.8795,-0.854,-0.9249,-0.9734,-1.0128,-1.1542,-1.2633,-1.3434,-1.4775,-1.5946,-1.6999,-1.8017,-1.7095,-1.5198,-1.6658,-1.5638,-1.3483,-1.4369,-1.4232,-1.342,0.0,0.0,-3.5996,-3.5996,-3.5996,-3.5974,-3.5918,-3.5846,-3.5748,0.0,-3.5543,-3.5509,-3.5507,-3.5493,-3.5501,-3.5502,-3.5502,-3.5534,-3.5572,-3.5591,-3.5206,-3.4338,-3.4333,-3.4263,-3.4058,-3.3493,-3.3468,-3.4064,-3.3087,-3.2553,-3.2424,-3.2109,-3.185,-3.166,-3.0931,-3.0946,-3.1452,-3.0113,-3.0782,-3.273,-3.2683,-3.2256,-3.1578,-3.0828,-3.0049,-2.9407,-2.9407,-2.9407,-2.9407,-2.95,-2.9481,-2.9425,-2.9518,-2.9439,-2.9323,-2.9323,-2.9044,-2.8743,-2.8718,-2.8273,-2.7713,-2.7396,-2.6757,0.0,-2.5373,-2.4831,-2.4039,-2.2493,-2.1851,-2.0931,-1.8746,-1.749,-1.6253,-1.4618,-1.3433,-1.2087,-1.0324,-0.9072,-0.8072,-0.745,-0.675,-0.6105,-0.5407,-0.5356,-0.5352,-0.5297,-0.5297,-0.5946,-0.7385,-0.809,-0.8778,-0.951,-0.9526,-0.9453,-0.9226,-0.9153,-0.8846,-0.8312,-0.9572,-0.9999,-0.9686,-1.0995,-1.2126,-1.3044,-1.32,-1.4513,-1.6601,-1.7358,-1.495,-1.1268,-1.5751,-1.4606,-1.0768,-1.3462,-1.4538,-1.4332,0.0,-3.5996,-3.5996,-3.5996,-3.5953,-3.5918,-3.5907,-3.5807,-3.5687,-3.5601,-3.5546,-3.5488,-3.5507,-3.5493,-3.5501,-3.5502,-3.5495,-3.5515,-3.5515,-3.5515,-3.513,-3.4263,-3.4923,-3.4673,-3.3249,-3.4385,-3.4392,-3.3141,-3.2852,-3.2634,-3.2549,-3.1525,-3.1033,-3.0993,-3.0716,-3.0336,-2.989,-3.0225,-3.0652,-3.1058,-3.1058,-3.0965,-3.0816,-3.0649,-3.0092,-2.9407,-2.9407,-2.9407,-2.95,-3.015,-2.9946,-2.9518,-3.0169,-2.9906,-2.9386,-2.9386,-2.9262,-2.9048,-2.8766,-2.8565,-2.8228,-2.75,-2.7192,0.0,-2.5508,-2.5144,-2.4469,-2.2463,-2.2103,-2.1443,-1.9107,-1.8312,-1.7408,-1.5767,-1.4593,-1.3109,-1.0937,-1.0072,-0.9124,-0.7771,-0.7503,-0.6972,-0.5791,-0.5686,-0.5576,-0.5301,-0.5297,-0.5841,-0.7133,-0.7396,-0.809,-0.9256,-0.9112,-0.917,-0.9526,-0.9029,-0.8853,-0.9026,-1.0191,-1.0471,-1.0068,-1.1504,-1.2057,-1.1972,-1.2852,-1.3848,-1.4964,-1.6272,-1.6947,-1.7012,-1.6022,-1.5388,-1.4707,-1.2177,-1.1659,-1.215,-3.5996,-3.5996,-3.5996,-3.5953,-3.5923,-3.588,-3.5819,-3.571,-3.5631,-3.5554,-3.5515,-3.5493,-3.5493,-3.5493,-3.5507,-3.5495,-3.5488,-3.5488,-3.5495,-3.5495,-3.4918,-3.3609,-3.4,-3.3672,-3.2377,-3.3166,-3.3378,-3.2891,-3.2442,-3.234,-3.2577,-3.1063,-3.0734,-3.1428,-3.042,-3.0002,-3.0002,-3.0002,-3.0243,-3.0615,-3.0615,-3.0593,-3.0513,-3.0086,-2.9697,-2.9344,-2.9344,-2.9365,-2.9463,-2.9872,-2.9785,-2.9547,-2.9893,-2.9766,-2.9492,-2.9492,-2.939,-2.9222,-2.9129,-2.8883,-2.8482,-2.7908,-2.753,0.0,0.0,-2.5892,-2.5373,-2.3902,-2.3381,-2.2636,-2.0876,-1.9615,-1.8355,-1.6898,-1.5941,-1.4491,-1.1997,-1.1101,-1.0016,-0.819,-0.8078,-0.7655,-0.6473,-0.6102,-0.5785,-0.5305,-0.5297,-0.5841,-0.7133,-0.7343,-0.7978,-0.9256,-0.9256,-0.9504,-0.9984,-0.9457,-0.9449,-0.9987,-1.0512,-1.0425,-0.9911,-1.1252,-1.1535,-1.0987,-1.2188,-1.3112,-1.3925,-1.5494,-1.6818,-1.7786,-1.7146,-1.4964,-1.2171,-1.2253,-1.2307,-1.213,-3.5976,-3.5996,-3.5975,-3.5918,-3.5887,-3.5831,-3.5704,-3.5621,-3.5568,-3.5515,-3.5501,-3.5493,-3.5493,-3.5493,-3.5493,-3.5493,-3.5493,-3.5493,-3.5493,-3.5493,-3.4795,-3.3218,-3.3141,-3.2699,-3.1718,-3.1852,-3.2256,-3.2891,-3.2083,-3.2026,-3.2577,-3.0896,-3.0749,-3.1783,-3.0458,-3.0225,-3.0782,-2.9983,-2.9959,-3.0491,-3.0324,-3.0361,-3.0435,-2.9598,-2.9302,-2.9323,-2.9323,-2.9365,-2.9407,-2.9407,-2.9471,-2.9532,-2.9429,-2.9471,-2.957,-2.957,-2.9453,-2.937,-2.9455,-2.9037,-2.8554,-2.835,-2.7756,-2.7174,0.0,0.0,0.0,-2.5183,-2.4505,-2.3669,-2.2251,-2.0639,-1.9145,-1.8037,-1.7134,-1.5742,-1.3462,-1.2473,-1.1135,-0.8758,-0.8588,-0.8257,-0.7136,-0.6393,-0.5861,-0.5474,-0.5381,-0.5876,-0.7241,-0.7444,-0.8078,-0.9309,-0.94,-0.971,-1.0241,-0.9864,-0.9961,-1.0496,-1.0776,-1.0461,-0.9738,-1.0872,-1.1006,-1.0379,-1.1361,-1.2295,-1.3195,-1.4587,-1.5817,-1.6855,-1.7898,-1.4233,-0.8798,-1.2546,-1.3106,-1.1756,-3.5859,-3.5996,-3.5975,-3.5918,-3.5841,-3.5768,-3.563,-3.5546,-3.5515,-3.5501,-3.5507,-3.5493,-3.5493,-3.5493,-3.5493,-3.5493,-3.5493,-3.5493,-3.5493,-3.5493,-3.5064,-3.4083,-3.4045,-3.3314,-3.1737,-3.2391,-3.2814,-3.2891,-3.2083,-3.2026,-3.2649,-3.1504,-3.0976,-3.0977,-3.1352,-3.1578,-3.1597,-3.082,-3.035,-3.0094,-2.9318,-2.9628,-3.0501,-2.962,-2.9344,-2.9386,-2.9386,-2.9386,-2.9407,-2.9407,-2.9427,-2.9409,-2.9407,-2.9427,-2.9409,-2.9409,-2.9434,-2.9456,-2.9349,-2.8812,-2.8305,-2.8591,-2.7813,-2.7057,-2.7191,0.0,-2.6236,-2.4431,0.0,-2.3433,-2.1288,0.0,0.0,-1.9323,-1.7865,-1.6456,-1.5559,-1.4767,-1.2963,-0.951,-0.9118,-0.8669,-0.7439,-0.6336,-0.5764,-0.6078,-0.5595,-0.5949,-0.7419,-0.7515,-0.8043,-0.9211,-0.8938,-0.9076,-0.9666,-0.9845,-0.9771,-0.9415,-1.1159,-1.1301,-1.0087,-1.0755,-1.0983,-1.0802,-1.0532,-1.1274,-1.2687,-1.3128,-1.4616,-1.6631,-1.6846,-1.3915,-0.9844,-1.1869,-1.0596,-0.8101,-3.582,-3.5996,-3.5973,-3.5869,-3.583,-3.5741,-3.5568,-3.5509,-3.5501,-3.5507,-3.5493,-3.5493,-3.5493,-3.5493,-3.5493,-3.5493,-3.593,-3.6007,-3.5532,-3.5949,-3.5603,-3.4257,-3.4199,-3.341,-3.1737,-3.2025,-3.1968,-3.1448,-3.1121,-3.1028,-3.1178,-3.0649,-3.0825,-3.1539,-3.1241,-3.1377,-3.1764,-3.1429,-3.0676,-2.9673,-2.958,-2.9567,-2.9513,-2.9108,-2.8813,-2.8577,-2.8415,-2.8186,-2.8031,-2.8496,-2.8724,-2.8895,-2.928,-2.9451,-2.9551,-2.9645,-2.957,-2.9454,-2.9608,-2.8876,-2.8192,-2.8631,-2.7991,-2.7294,-2.7549,-2.7143,-2.6337,-2.5173,0.0,0.0,0.0,0.0,0.0,0.0,-1.9751,-1.8565,-1.7251,-1.6582,-1.4804,-1.0933,-1.0637,-1.008,-0.8601,-0.774,-0.7365,-0.7505,-0.682,-0.693,-0.8178,-0.8183,-0.8521,-0.9309,-0.9233,-0.9482,-1.0079,-0.9948,-1.0083,-1.0501,-1.0839,-1.0719,-1.0252,-1.0972,-1.0984,-1.0542,-1.1073,-1.1535,-1.201,-1.2716,-1.3848,-1.5258,-1.6166,-1.5411,-1.3765,-1.3521,-1.2441,-1.0964,-3.5469,-3.582,-3.5948,-3.5851,-3.5781,-3.5693,-3.554,-3.5501,-3.5493,-3.5493,-3.5493,-3.5493,-3.5493,-3.5493,-3.5493,-3.5493,-3.6238,-3.6372,-3.5551,-3.6257,-3.6065,-3.4622,-3.4334,-3.3622,-3.241,-3.216,-3.1718,-3.1102,-3.0871,-3.0644,-3.0452,-3.0288,-3.0768,-3.1727,-3.1408,-3.1426,-3.1714,-3.1691,-3.0766,-2.9352,-2.9435,-2.9091,-2.8485,-2.8372,-2.8145,-2.7812,-2.749,-2.7161,-2.699,-2.7566,-2.8016,-2.8409,-2.889,-2.9266,-2.957,-2.9735,-2.9458,-2.9231,-2.9661,-2.8783,-2.7953,-2.8736,-2.8182,-2.7489,-2.7656,-2.7181,-2.6472,-2.5678,-2.4496,0.0,0.0,0.0,-2.1759,-2.1969,0.0,-2.0194,-1.9287,-1.857,-1.6593,-1.2517,-1.1734,-1.1076,-0.9736,-0.8989,-0.8594,-0.8687,-0.7968,-0.7966,-0.8899,-0.8862,-0.8971,-0.9361,-0.951,-0.9784,-1.0253,-1.0082,-1.0287,-1.0867,-1.047,-1.029,-1.0288,-1.074,-1.0808,-1.0608,-1.1297,-1.1542,-1.159,-1.2401,-1.3162,-1.3942,-1.5379,-1.622,-1.6475,-1.5303,-1.4001,-1.2574,-3.457,-3.5364,-3.5893,-3.5903,-3.5742,-3.5581,-3.5515,-3.5507,-3.5493,-3.5493,-3.5493,-3.5493,-3.5493,-3.5493,-3.5493,-3.5493,-3.6238,-3.6372,-3.5551,-3.6257,-3.6334,-3.5488,-3.4641,-3.416,-3.4122,-3.3295,-3.2852,-3.2814,-3.2045,-3.1559,-3.1346,-3.1143,-3.0995,-3.0902,-3.2281,-3.2395,-3.1507,-3.1366,-3.0495,-2.9116,-2.8234,-2.7806,-2.7712,-2.7515,-2.7476,-2.7447,-2.6909,-2.6799,-2.6916,-2.6935,-2.7455,-2.8106,-2.8143,-2.8719,-2.9407,-2.9409,-2.8951,-2.8576,-2.9226,-2.8353,-2.7565,-2.8938,-2.8423,-2.7556,-2.744,-2.718,-2.6614,-2.5286,-2.4427,-2.3753,-2.3304,-2.201,-2.145,-2.2751,-2.1481,0.0,0.0,-2.0815,-1.8264,-1.4134,-1.2075,-1.0891,-1.0562,-0.9432,-0.8822,-0.9239,-0.8698,-0.861,-0.9252,-0.9267,-0.9296,-0.942,-0.9413,-0.9519,-0.9833,-1.0341,-1.0211,-0.9572,-1.0322,-1.0511,-1.02,-0.9692,-1.0203,-1.1394,-1.0608,-1.0723,-1.1516,-1.1957,-1.2496,-1.3162,-1.431,-1.5424,-1.6445,-1.6576,-1.381,-1.0245,-3.4531,-3.531,-3.5821,-3.5786,-3.5716,-3.564,-3.5528,-3.5493,-3.5295,-3.4718,-3.5141,-3.5064,-3.391,-3.4814,-3.5276,-3.468,-3.5911,-3.6372,-3.5551,-3.5757,-3.5795,-3.5512,-3.4661,-3.4199,-3.4199,-3.391,-3.3218,-3.2102,-3.1833,-3.1257,-3.0399,-3.0335,-3.045,-3.0681,-3.1195,-3.1154,-3.0728,-3.1238,-3.0472,-2.8887,-2.82,-2.7789,-2.7535,-2.7391,-2.7085,-2.665,-2.6258,-2.5758,-2.5392,-2.5876,-2.6247,-2.66,-2.7139,-2.7511,-2.7772,-2.7904,-2.768,-2.7494,-2.7866,-2.7082,-2.6581,-2.8123,-2.7372,-2.6491,-2.7323,-2.6645,-2.5773,-2.5628,-2.4999,-2.4406,-2.4173,-2.3892,-2.3659,-2.3536,-2.2536,-2.2031,0.0,-2.117,-1.9086,-1.6975,-1.4437,-1.2637,-1.2132,-1.1056,-1.0519,-1.0805,-0.9907,-0.9596,-1.0151,-1.0317,-1.0264,-1.0051,-1.0387,-1.0515,-1.0333,-1.0615,-1.0427,-0.9899,-1.0184,-1.0241,-1.0169,-1.0502,-1.0904,-1.1385,-1.1435,-1.1605,-1.1884,-1.1774,-1.2235,-1.306,-1.3821,-1.5036,-1.637,-1.6176,-1.5209,-1.3801,-3.4508,-3.5284,-3.5781,-3.5774,-3.5468,-3.5156,-3.5046,-3.5045,-3.4718,-3.3853,-3.4507,-3.4487,-3.3064,-3.391,-3.4468,-3.4218,-3.5468,-3.593,-3.5084,-3.5603,-3.5661,-3.5064,-3.4795,-3.4526,-3.4199,-3.4507,-3.3699,-3.1698,-3.1987,-3.1391,-2.9962,-2.9918,-3.0017,-3.0255,-3.0488,-3.0298,-2.9806,-3.0503,-2.9864,-2.8378,-2.7915,-2.763,-2.7421,-2.7313,-2.6838,-2.6103,-2.5535,-2.4922,-2.4431,-2.4875,-2.5319,-2.5764,-2.6303,-2.6674,-2.6935,-2.7045,-2.6785,-2.6563,-2.704,-2.6241,-2.5614,-2.6991,-2.6247,-2.5504,-2.6618,-2.608,-2.5463,-2.5953,-2.5682,-2.5213,-2.4712,-2.4814,-2.4769,-2.405,-2.3471,-2.3176,0.0,-2.1911,-2.0314,-1.9021,-1.6276,-1.4204,-1.365,-1.2517,-1.1865,-1.1859,-1.1144,-1.0763,-1.0707,-1.1193,-1.1198,-1.0718,-1.1006,-1.11,-1.0882,-1.0948,-1.0889,-1.0604,-1.0345,-1.0353,-1.0548,-1.0867,-1.1192,-1.1524,-1.193,-1.2113,-1.2077,-1.1957,-1.2223,-1.274,-1.3439,-1.4534,-1.5773,-1.6433,-1.6591,-1.61,-3.4491,-3.5265,-3.5795,-3.5812,-3.501,-3.4326,-3.4225,-3.4199,-3.3872,-3.2968,-3.3603,-3.3795,-3.2872,-3.2852,-3.3218,-3.4007,-3.4872,-3.5026,-3.418,-3.5584,-3.5757,-3.4199,-3.4891,-3.4949,-3.4141,-3.4988,-3.4224,-3.1744,-3.2513,-3.1949,-3.0152,-2.9965,-2.9786,-2.9626,-3.0271,-2.9917,-2.8907,-2.9285,-2.8762,-2.7672,-2.7421,-2.733,-2.733,-2.7282,-2.6702,-2.5772,-2.4846,-2.4352,-2.4059,-2.402,-2.4669,-2.5523,-2.5597,-2.6172,-2.6786,-2.673,-2.6191,-2.5762,-2.6612,-2.5645,-2.459,-2.5525,-2.5084,-2.4575,-2.5301,-2.5449,-2.5539,-2.6045,-2.6224,-2.5976,-2.4913,-2.481,-2.4764,-2.436,-2.431,-2.4118,-2.3587,-2.3063,-2.2077,-2.0203,-1.7545,-1.5668,-1.5074,-1.3731,-1.2751,-1.2372,-1.2478,-1.2094,-1.1026,-1.191,-1.21,-1.1302,-1.1242,-1.1291,-1.1436,-1.1407,-1.1418,-1.1461,-1.0799,-1.0749,-1.1194,-1.0725,-1.0976,-1.1868,-1.2037,-1.2115,-1.215,-1.2556,-1.2484,-1.2282,-1.3191,-1.3939,-1.4815,-1.7346,-1.7767,-1.6809,-3.5324,-3.5578,-3.5447,-3.4756,-3.4948,-3.4969,-3.4308,-3.4199,-3.366,-3.2199,-3.2718,-3.2679,-3.1198,-3.216,-3.2756,-3.2372,-3.3083,-3.3468,-3.3256,-3.3083,-3.3064,-3.3237,-3.2872,-3.2801,-3.3087,-3.403,-3.3838,-3.2441,-3.2666,-3.21,-3.0823,-3.0033,-2.9608,-2.945,-2.9632,-2.9798,-2.9866,-2.9094,-2.8281,-2.7557,-2.7465,-2.7452,-2.7452,-2.7345,-2.6556,-2.5491,-2.5209,-2.4515,-2.3756,-2.3939,-2.4185,-2.4448,-2.4672,-2.491,-2.4984,-2.4355,-2.4002,-2.3758,-2.3417,-2.2991,-2.2848,-2.368,-2.3256,-2.2817,-2.3562,-2.3285,-2.3047,-2.3713,-2.4376,-2.4927,-2.5171,-2.5634,-2.5909,-2.5726,-2.5632,-2.5201,-2.3967,-2.3599,-2.2849,-2.1274,-2.0165,-1.8518,-1.5839,-1.505,-1.4234,-1.3018,-1.3376,-1.3173,-1.2096,-1.2668,-1.2771,-1.2319,-1.2076,-1.1972,-1.1976,-1.1632,-1.13,-1.0897,-1.0642,-1.0353,-1.0114,-1.029,-1.0707,-1.1359,-1.2017,-1.2414,-1.2556,-1.2591,-1.2847,-1.3225,-1.3166,-1.4276,-1.6053,-1.7364,-1.7402,-1.66,-3.604,-3.6163,-3.5797,-3.4924,-3.4853,-3.4526,-3.3295,-3.3103,-3.2622,-3.1314,-3.1852,-3.1872,-3.0533,-3.1237,-3.1775,-3.1718,-3.2102,-3.2372,-3.2372,-3.2275,-3.2231,-3.2237,-3.2185,-3.2077,-3.2003,-3.328,-3.3157,-3.156,-3.2244,-3.1882,-3.0566,-2.9906,-2.9513,-2.9407,-2.9407,-2.9542,-2.9711,-2.8721,-2.7982,-2.7496,-2.7452,-2.7421,0.0,-2.7313,-2.6454,-2.5227,-2.5181,-2.4435,-2.3491,-2.3584,-2.3777,-2.3999,-2.4172,-2.4081,-2.3835,-2.3338,-2.2947,-2.2588,-2.2182,-2.1779,-2.1569,-2.2095,-2.1566,-2.1211,-2.2325,-2.2233,-2.2105,-2.29,-2.3712,-2.4321,-2.4339,-2.5256,-2.6093,-2.6374,-2.6265,-2.5667,-2.4279,-2.3922,-2.3302,-2.1965,-2.144,-2.0313,-1.8119,-1.7116,-1.5913,-1.4231,-1.4474,-1.4277,-1.3293,-1.3504,-1.3581,-1.3392,-1.2616,-1.2363,-1.2773,-1.2095,-1.1583,-1.1217,-1.0911,-1.0463,-0.9974,-1.019,-1.0473,-1.0828,-1.1902,-1.239,-1.2384,-1.2738,-1.2998,-1.3251,-1.3638,-1.4653,-1.605,-1.7259,-1.7653,-1.7402,-3.645,-3.6633,-3.6219,-3.518,-3.4468,-3.3449,-3.1795,-3.1641,-3.1391,-3.0513,-3.1064,-3.1237,-3.0475,-3.0398,-3.0698,-3.1468,-3.1525,-3.1513,-3.1482,-3.2135,-3.2141,-3.124,-3.1928,-3.1889,-3.093,-3.2463,-3.2248,-3.0204,-3.155,-3.1462,-3.0021,-2.9719,-2.9512,-2.9407,-2.9407,-2.9262,-2.8957,-2.8416,-2.7935,-2.7465,-2.7345,-2.7299,-2.7282,-2.7178,-2.6247,-2.4988,-2.4885,-2.4137,-2.3199,-2.3129,-2.3437,-2.3858,-2.3976,-2.3621,-2.3172,-2.3061,-2.2465,-2.1823,-2.1854,-2.1208,-2.0585,-2.0765,-2.0145,-1.9852,-2.1237,-2.157,-2.1754,-2.2456,-2.3232,-2.3602,-2.2958,-2.4211,-2.563,-2.6507,-2.6399,-2.5733,-2.4357,-2.413,-2.3688,-2.2638,-2.2111,0.0,-2.1068,-1.9543,-1.7788,-1.5947,-1.6003,-1.5675,-1.4761,-1.4574,-1.4493,-1.4496,-1.3053,-1.2692,-1.3477,-1.2551,-1.2019,-1.1838,-1.1378,-1.0834,-1.0254,-1.0254,-1.029,-1.0411,-1.1721,-1.2187,-1.2082,-1.2867,-1.3057,-1.2953,-1.4318,-1.5035,-1.5491,-1.706,-1.8075,-1.8503,-3.583,-3.5732,-3.5007,-3.2756,-3.2795,-3.2564,-3.0891,-3.1237,-3.1391,-3.0513,-3.0533,-3.0571,-3.0417,-3.0398,-3.0456,-3.0609,-3.0641,-3.0554,-3.0379,-3.0513,-3.0462,-3.0178,-3.0311,-3.0213,-2.9869,-3.0954,-3.1292,-3.0752,-3.1017,-3.1017,-3.0697,-2.9848,-2.9409,-2.9407,-2.9407,-2.903,-2.8482,-2.9008,-2.851,-2.7313,-2.733,-2.7299,-2.723,-2.6557,-2.5764,-2.4919,-2.4264,-2.348,-2.2825,-2.3038,-2.3323,-2.361,-2.3837,-2.3546,-2.299,-2.2327,-2.1565,-2.0812,-2.022,-1.9894,-1.9722,-1.9744,-1.9594,-1.9479,-1.9687,-1.9761,-1.9798,-1.9945,-2.0607,-2.1343,-2.1894,-2.3327,-2.4869,-2.6231,-2.6313,-2.5512,-2.3583,-2.4374,-2.4882,-2.4259,-2.3897,-2.3567,-2.3192,-2.164,-1.9889,-1.8033,-1.8758,-1.8561,-1.6943,-1.642,-1.5981,-1.5493,-1.3718,-1.3017,-1.3477,-1.2575,-1.1931,-1.1566,-1.1479,-1.0908,-0.9977,-0.9977,-1.0214,-1.0687,-1.1399,-1.2076,-1.2685,-1.307,-1.3319,-1.3563,-1.4744,-1.5256,-1.5462,-1.6872,-1.78,-1.822,-3.6199,-3.5795,-3.4968,-3.3295,-3.2602,-3.1852,-3.059,-3.0756,-3.0891,-3.0436,-3.0398,-3.0398,-3.0398,-3.0311,-3.0241,-3.0241,-3.0188,-3.0085,-2.9992,-2.9992,-2.9915,-2.9751,-2.9732,-2.9662,-2.9492,-3.0376,-3.064,-3.0227,-3.0581,-3.0581,-3.0208,-2.9658,-2.9407,-2.9386,-2.9181,-2.8827,-2.8422,-2.8568,-2.8135,-2.739,-2.7313,-2.7299,-2.7213,-2.6419,-2.5643,-2.4902,-2.4109,-2.3323,-2.2712,-2.2841,-2.3074,-2.3312,-2.3562,-2.3313,-2.2758,-2.2092,-2.1327,-2.0541,-1.9759,-1.9522,-1.9493,-1.9468,-1.9405,-1.9338,-1.9323,-1.9305,-1.9305,-1.9305,-1.9601,-2.0262,-2.1564,-2.3474,-2.4924,-2.5212,-2.5896,-2.5665,-2.3554,-2.3886,-2.4427,-2.459,-2.4353,-2.4133,-2.3976,-2.3248,-2.2017,-2.0235,-1.9939,-1.9471,-1.8624,-1.7579,-1.6864,-1.6475,-1.4558,-1.3846,-1.4528,-1.295,-1.2005,-1.1763,-1.1436,-1.089,-1.0084,-0.997,-1.0122,-1.0533,-1.0985,-1.1631,-1.2433,-1.2964,-1.3475,-1.3946,-1.4732,-1.5228,-1.562,-1.6572,-1.7378,-1.7968,-3.6219,-3.5661,-3.4834,-3.3603,-3.2449,-3.141,-3.0533,-3.0367,-3.0355,-3.0398,-3.0398,-3.0379,-3.0343,-3.0196,-3.0095,-3.0066,-2.9946,-2.9886,-2.9836,-2.9836,-2.9751,-2.957,-2.957,-2.9512,-2.9407,-3.002,-3.0083,-2.957,-3.0083,-3.0085,-2.9551,-2.9431,-2.9326,-2.9243,-2.8925,-2.8615,-2.8335,-2.7961,-2.7659,-2.7452,-2.7345,-2.7299,-2.7195,-2.623,-2.5523,-2.4885,-2.3891,-2.3185,-2.2712,-2.2712,-2.2893,-2.3126,-2.3289,-2.3024,-2.2588,-2.219,-2.1426,-2.0532,-1.9915,-1.9608,-1.9468,-1.9405,-1.9357,-1.9268,-1.9069,-1.9032,-1.8996,-1.8831,-1.8794,-1.9344,-2.118,-2.2795,-2.3859,-2.3876,-2.4849,-2.4981,-2.332,-2.3468,-2.3914,-2.4372,-2.4526,-2.4587,-2.4523,-2.4475,-2.3978,-2.2783,-2.1321,-2.0411,-2.0175,-1.8949,-1.8041,-1.7529,-1.5438,-1.4651,-1.5378,-1.3242,-1.2043,-1.19,-1.1411,-1.09,-1.0385,-1.0173,-1.0148,-1.0311,-1.0687,-1.1279,-1.2046,-1.2692,-1.3311,-1.3952,-1.4384,-1.4964,-1.5692,-1.6378,-1.7028,-1.7731,-3.4584,-3.4372,-3.3564,-3.1179,-3.1275,-3.141,-3.0533,-3.0241,-3.0196,-3.0386,-3.0398,-3.0323,-3.0136,-3.0122,-3.0052,-2.9934,-2.9902,-2.982,-2.9644,-2.9626,-2.957,-2.9429,-2.9409,-2.9409,-2.9407,-2.9481,-2.9481,-2.9409,-2.9481,-2.9481,-2.9427,-2.9326,-2.9115,-2.8772,-2.8724,-2.8402,-2.7876,-2.7818,-2.76,-2.733,-2.7299,-2.7299,-2.7144,-2.5661,-2.5057,-2.4816,-2.3333,-2.2763,-2.2712,-2.2712,-2.2893,-2.3102,-2.3126,-2.2905,-2.2618,-2.2624,-2.1679,-2.0599,-2.0591,-2.0007,-1.9405,-1.939,-1.9357,-1.9106,-1.839,-1.8207,-1.8023,-1.7275,-1.7128,-1.7844,-2.0191,-1.962,-1.9664,-2.2389,-2.2502,-2.2189,-2.2064,-2.3656,-2.4599,-2.3957,-2.5092,-2.5829,-2.5569,-2.5395,-2.5463,-2.5922,-2.436,-2.2871,-2.1684,-2.1253,-2.0294,-1.8616,-1.6177,-1.4967,-1.505,-1.2964,-1.1799,-1.1549,-1.1495,-1.1186,-1.0656,-1.0632,-1.0496,-1.0336,-1.0846,-1.1389,-1.1919,-1.2056,-1.2588,-1.331,-1.3603,-1.4383,-1.5448,-1.6297,-1.6914,-1.7463,-3.3487,-3.3026,-3.2372,-3.1371,-3.0945,-3.0611,-3.0221,-3.0018,-2.9962,-3.0041,-3.0071,-3.0056,-2.9977,-2.9883,-2.9784,-2.9715,-2.9645,-2.9551,-2.9431,-2.9412,-2.939,-2.9283,-2.9283,-2.9283,-2.9283,-2.9283,-2.9283,-2.9283,-2.9283,-2.9283,-2.9283,-2.9052,-2.8761,-2.8376,-2.8237,-2.801,-2.773,-2.7587,-2.7421,-2.7299,-2.7299,-2.7299,-2.7126,-2.5592,-2.5005,-2.4798,-2.3264,-2.2712,-2.2712,-2.2712,-2.2764,-2.2893,-2.3045,-2.3094,-2.3031,-2.2763,-2.1972,-2.1057,-2.0731,-1.9932,-1.9246,-1.9308,-1.9323,-1.9072,-1.8176,-1.7979,-1.776,-1.6943,-1.6835,-1.7348,-1.8779,-1.9311,-1.979,-2.0546,-2.1714,-2.23,-2.1693,-2.2731,-2.375,-2.4229,-2.492,-2.5391,-2.5455,-2.5691,-2.5726,-2.551,-2.4692,-2.3795,-2.2821,-2.2154,-2.1069,-1.9464,-1.7103,-1.5844,-1.5844,-1.3502,-1.2199,-1.1987,-1.1609,-1.1252,-1.092,-1.0777,-1.0545,-1.0336,-1.1252,-1.1669,-1.1762,-1.2236,-1.2646,-1.2997,-1.3342,-1.4092,-1.508,-1.5805,-1.6418,-1.6995,-3.2426,-3.1895,-3.1435,-3.1186,-3.0515,-2.9973,-2.9924,-2.978,-2.9678,-2.9678,-2.968,-2.9734,-2.9767,-2.9644,-2.9532,-2.9493,-2.9411,-2.9304,-2.9262,-2.9262,-2.924,-2.92,-2.92,-2.92,-2.92,-2.92,-2.92,-2.92,-2.92,-2.9156,-2.9052,-2.8718,-2.8376,-2.802,-2.7858,-2.7701,-2.7569,-2.7376,-2.7299,-2.7299,-2.7299,-2.7299,-2.7126,-2.5592,-2.5005,-2.4798,-2.3264,-2.2712,-2.2712,-2.2712,-2.2712,-2.2738,-2.2902,-2.3116,-2.3252,-2.2916,-2.2139,-2.1278,-2.086,-1.9933,-1.9081,-1.9148,-1.9013,-1.863,-1.7674,-1.7282,-1.6917,-1.6153,-1.6073,-1.6465,-1.755,-1.8669,-1.9476,-1.9638,-2.0923,-2.188,-2.1786,-2.2313,-2.3175,-2.445,-2.5226,-2.555,-2.5357,-2.5882,-2.5889,-2.5,-2.4738,-2.4199,-2.3226,-2.2805,-2.163,-1.9451,-1.7387,-1.6069,-1.5684,-1.3428,-1.2205,-1.2038,-1.1615,-1.133,-1.1192,-1.0897,-1.0705,-1.0583,-1.1289,-1.1668,-1.1758,-1.2291,-1.2615,-1.2855,-1.331,-1.3972,-1.4767,-1.5447,-1.6031,-1.6575,-3.1286,-3.1118,-3.0837,-2.9969,-2.9767,-2.9713,-2.9713,-2.9533,-2.9399,-2.9399,-2.9272,-2.927,-2.9476,-2.9438,-2.9357,-2.9222,-2.92,-2.92,-2.92,-2.92,-2.92,-2.92,-2.92,-2.92,-2.92,-2.92,-2.92,-2.92,-2.92,-2.903,-2.87,-2.835,-2.8037,-2.7701,-2.7683,-2.7539,-2.7282,-2.7299,-2.7299,-2.7299,-2.7299,-2.7299,-2.7126,-2.5592,-2.5005,-2.4798,-2.3264,-2.2712,-2.2712,-2.2712,-2.2712,-2.2712,-2.2712,-2.2893,-2.3102,-2.3102,-2.2139,-2.109,-2.109,-2.0063,-1.8964,-1.8843,-1.8354,-1.7656,-1.6642,-1.5857,-1.5131,-1.448,-1.433,-1.4852,-1.6588,-1.6927,-1.7715,-2.0099,-1.984,-2.0105,-2.2274,-2.2811,-2.3393,-2.4461,-2.6243,-2.6835,-2.5517,-2.6114,-2.6149,-2.5086,-2.4918,-2.4228,-2.2681,-2.3342,-2.207,-1.8346,-1.6786,-1.5321,-1.395,-1.2394,-1.1541,-1.1413,-1.1399,-1.1399,-1.1399,-1.1108,-1.1015,-1.1085,-1.0815,-1.1206,-1.2012,-1.2012,-1.232,-1.2855,-1.3473,-1.3984,-1.4485,-1.5301,-1.5851,-1.6324,-3.0269,-3.0181,-3.0052,-2.9787,-2.9588,-2.9495,-2.9494,-2.9314,-2.9185,-2.9185,-2.9134,-2.9112,-2.9225,-2.9249,-2.9246,-2.92,-2.92,-2.9178,-2.9134,-2.9134,-2.9112,-2.9085,-2.9044,-2.9044,-2.9044,-2.9044,-2.8975,-2.8773,-2.8773,-2.8533,-2.802,-2.7897,-2.7701,-2.7421,-2.7421,-2.7376,-2.7299,-2.7299,-2.7299,-2.7299,-2.7299,-2.6877,-2.6168,-2.5111,-2.4322,-2.3672,-2.2801,-2.2487,-2.2487,-2.2487,-2.2596,-2.2685,-2.2542,-2.2764,-2.3095,-2.3095,-2.2048,-2.0923,-2.1049,-1.9907,-1.8678,-1.877,-1.8251,-1.7444,-1.6479,-1.5227,-1.422,-1.4002,-1.4145,-1.479,-1.6456,-1.6835,-1.7513,-1.9381,-1.9932,-2.056,-2.1862,-2.2612,-2.3326,-2.4231,-2.5028,-2.5314,-2.4892,-2.5429,-2.549,-2.4794,-2.5235,-2.4871,-2.3342,-2.2775,-2.1387,-1.8959,-1.6838,-1.5211,-1.4133,-1.2704,-1.1927,-1.174,-1.1608,-1.1429,-1.1215,-1.1347,-1.1302,-1.1085,-1.0968,-1.1315,-1.2012,-1.211,-1.2647,-1.3411,-1.3475,-1.4104,-1.4957,-1.4536,-1.4884,-1.5651,-2.957,-2.9514,-2.9475,-2.9475,-2.9357,-2.9251,-2.9246,-2.9156,-2.9044,-2.9044,-2.904,-2.9017,-2.9062,-2.9089,-2.9112,-2.9112,-2.9112,-2.9108,-2.9085,-2.9044,-2.904,-2.9017,-2.8905,-2.8858,-2.8858,-2.8725,-2.8583,-2.8404,-2.8299,-2.8083,-2.7701,-2.76,-2.7465,-2.7299,-2.7299,-2.7299,-2.7299,-2.7299,-2.7299,-2.7264,-2.6877,-2.651,-2.6009,-2.4622,-2.386,-2.3483,-2.2677,-2.2349,-2.2276,-2.2377,-2.2415,-2.2426,-2.2287,-2.2508,-2.2868,-2.2944,-2.1854,-2.0683,-2.0793,-1.9685,-1.8505,-1.8563,-1.802,-1.717,-1.5958,-1.4911,-1.4092,-1.3841,-1.4211,-1.4974,-1.6333,-1.694,-1.7683,-1.8977,-1.992,-2.0813,-2.1692,-2.2483,-2.3363,-2.4344,-2.4701,-2.4723,-2.4453,-2.4819,-2.4759,-2.3907,-2.403,-2.3746,-2.2815,-2.2327,-2.0933,-1.8448,-1.6642,-1.5019,-1.3565,-1.2733,-1.2174,-1.1891,-1.1933,-1.1838,-1.1618,-1.2118,-1.1902,-1.1137,-1.1746,-1.2149,-1.2404,-1.2965,-1.3539,-1.4026,-1.3819,-1.4345,-1.5167,-1.4251,-1.4453,-1.5271,-2.9178,-2.9134,-2.9089,-2.9089,-2.904,-2.8994,-2.8994,-2.8994,-2.8994,-2.8994,-2.8994,-2.8994,-2.8994,-2.8994,-2.8994,-2.8952,-2.8994,-2.8994,-2.8994,-2.8994,-2.8994,-2.8952,-2.8743,-2.8576,-2.8576,-2.8255,-2.8102,-2.8075,-2.78,-2.7672,-2.7672,-2.7421,-2.7299,-2.7299,-2.7299,-2.7299,-2.7299,-2.7299,-2.7299,-2.7181,-2.6256,-2.6196,-2.6403,-2.4183,-2.3639,-2.3942,-2.2823,-2.2225,-2.2027,-2.2276,-2.2203,-2.1998,-2.1998,-2.2175,-2.2432,-2.2605,-2.1635,-2.0463,-2.0412,-1.9482,-1.8496,-1.8253,-1.7731,-1.6833,-1.5159,-1.4796,-1.4605,-1.397,-1.4471,-1.5289,-1.6262,-1.7173,-1.8044,-1.891,-1.9895,-2.0853,-2.1714,-2.252,-2.3468,-2.4631,-2.5005,-2.4834,-2.4103,-2.4282,-2.3915,-2.2624,-2.1841,-2.1404,-2.1353,-2.1875,-2.0593,-1.7084,-1.6241,-1.477,-1.253,-1.2562,-1.2375,-1.202,-1.249,-1.2619,-1.2487,-1.326,-1.274,-1.1329,-1.296,-1.3438,-1.3163,-1.4364,-1.4774,-1.4627,-1.4365,-1.4634,-1.5107,-1.4319,-1.4446,-1.5077,-2.9112,-2.9085,-2.9017,-2.9017,-2.9017,-2.8994,-2.8994,-2.8994,-2.8994,-2.8994,-2.8994,-2.8994,-2.8994,-2.8994,-2.8905,-2.8718,-2.8881,-2.8994,-2.8994,-2.8994,-2.8905,-2.8694,-2.8626,-2.8482,-2.821,-2.8129,-2.7992,-2.78,-2.7526,-2.739,-2.739,-2.7313,-2.7299,-2.7299,-2.7299,-2.7299,-2.7299,-2.7299,-2.7137,-2.6891,-2.667,-2.6084,-2.5278,-2.4696,-2.3803,-2.2818,-2.2663,-2.2245,-2.1768,-2.1827,-2.1945,-2.1969,-2.1811,-2.2077,-2.2405,-2.246,-2.1927,-2.1145,-2.0445,-1.9676,-1.8922,-1.8146,-1.7528,-1.6643,-1.5017,-1.4692,-1.4658,-1.4383,-1.4607,-1.5296,-1.6746,-1.7276,-1.795,-1.9319,-2.0423,-2.1309,-2.1878,-2.2833,-2.3484,-2.3578,-2.3531,-2.3404,-2.3196,-2.3059,-2.2695,-2.1958,-2.1732,-2.1344,-2.0742,-2.0333,-1.9001,-1.6623,-1.5824,-1.4484,-1.253,-1.3004,-1.3242,-1.3193,-1.3618,-1.3481,-1.2891,-1.3477,-1.3297,-1.2573,-1.308,-1.3454,-1.3728,-1.4168,-1.4717,-1.5195,-1.4333,-1.4477,-1.5047,-1.3848,-1.355,-1.3789,-2.9044,-2.9017,-2.8994,-2.8994,-2.8994,-2.8994,-2.8994,-2.8994,-2.8994,-2.8994,-2.8994,-2.8994,-2.8994,-2.8881,-2.8767,-2.8601,-2.8743,-2.8767,-2.8583,-2.8583,-2.8533,-2.836,-2.8246,-2.8093,-2.7926,-2.78,-2.7672,-2.7526,-2.7376,-2.7299,-2.7299,-2.7299,-2.7299,-2.7299,-2.7299,-2.7299,-2.7282,-2.7137,-2.6973,-2.6757,-2.6169,-2.5712,-2.5318,-2.44,-2.3791,-2.3302,-2.2737,-2.2327,-2.1984,-2.1763,-2.1708,-2.1661,-2.1556,-2.1784,-2.2106,-2.2175,-2.1915,-2.1386,-2.0448,-1.9679,-1.895,-1.8003,-1.7534,-1.6982,-1.5667,-1.5355,-1.5215,-1.4765,-1.5165,-1.5953,-1.7154,-1.7899,-1.8691,-1.9864,-2.0944,-2.1708,-2.1963,-2.254,-2.2789,-2.2494,-2.2165,-2.1895,-2.16,-2.1609,-2.1454,-2.1056,-2.066,-2.028,-1.9837,-1.877,-1.7663,-1.6567,-1.5808,-1.4688,-1.3115,-1.3587,-1.3983,-1.4322,-1.4435,-1.4203,-1.3751,-1.4328,-1.4001,-1.3023,-1.3657,-1.3855,-1.3821,-1.4268,-1.4729,-1.5013,-1.4187,-1.4269,-1.4724,-1.3336,-1.2973,-1.3234,-2.8994,-2.8994,-2.8994,-2.8994,-2.8994,-2.8994,-2.8994,-2.897,-2.8929,-2.8929,-2.8905,-2.8863,-2.8863,-2.8651,-2.8525,-2.8474,-2.8456,-2.8378,-2.8129,-2.8102,-2.8075,-2.8047,-2.7829,-2.7672,-2.7642,-2.739,-2.7282,-2.7282,-2.725,-2.7218,-2.7137,-2.7137,-2.7137,-2.7055,-2.7055,-2.7105,-2.7105,-2.6825,-2.6674,-2.659,-2.5459,-2.5363,-2.5697,-2.4044,-2.3811,-2.4249,-2.3038,-2.2489,-2.2264,-2.1839,-2.15,-2.1214,-2.1214,-2.1402,-2.1631,-2.1807,-2.1731,-2.1379,-2.0407,-1.9408,-1.8508,-1.7763,-1.7595,-1.7388,-1.6429,-1.6167,-1.5896,-1.5172,-1.5769,-1.6664,-1.7512,-1.8546,-1.9539,-2.0377,-2.1313,-2.1954,-2.2048,-2.203,-2.1896,-2.1562,-2.1092,-2.0552,-2.0035,-2.0316,-2.0377,-2.0033,-1.9277,-1.8767,-1.8648,-1.7313,-1.6529,-1.6529,-1.5917,-1.5128,-1.4126,-1.4288,-1.4648,-1.5255,-1.5091,-1.4875,-1.4655,-1.5227,-1.4689,-1.3333,-1.4378,-1.4412,-1.378,-1.4483,-1.4693,-1.4487,-1.3927,-1.396,-1.4154,-1.2948,-1.2648,-1.2904,-2.8994,-2.8994,-2.8994,-2.8994,-2.8994,-2.8994,-2.8994,-2.8791,-2.8651,-2.8651,-2.843,-2.8237,-2.8237,-2.821,-2.8093,-2.7858,-2.7829,-2.7897,-2.8102,-2.8102,-2.7992,-2.7771,-2.7713,-2.76,-2.7376,-2.7215,-2.7135,-2.7135,-2.7072,-2.6859,-2.6521,-2.6521,-2.6367,-2.6035,-2.6035,-2.6123,-2.628,-2.6245,-2.6191,-2.6101,-2.5717,-2.5491,-2.5378,-2.4885,-2.4411,-2.3951,-2.3745,-2.2905,-2.189,-2.1813,-2.1369,-2.0893,-2.0893,-2.1023,-2.1213,-2.1228,-2.1379,-2.1271,-2.0094,-1.8524,-1.7256,-1.7394,-1.7361,-1.7043,-1.6095,-1.5949,-1.5956,-1.5711,-1.5838,-1.6386,-1.7692,-1.831,-1.9085,-2.0461,-2.1242,-2.1806,-2.2214,-2.1919,-2.1581,-2.1292,-2.0611,-2.011,-2.0027,-2.0052,-1.9806,-1.9154,-1.8426,-1.7715,-1.7093,-1.6241,-1.5764,-1.5764,-1.5663,-1.5591,-1.5586,-1.5227,-1.5163,-1.5447,-1.5816,-1.5562,-1.4777,-1.5285,-1.5138,-1.4527,-1.4774,-1.4696,-1.4363,-1.4554,-1.4474,-1.4205,-1.3542,-1.3293,-1.3281,-1.3007,-1.2602,-1.2306,-2.8791,-2.8905,-2.8952,-2.8791,-2.8725,-2.8651,-2.8533,-2.8412,-2.8334,-2.8334,-2.8183,-2.8102,-2.8102,-2.7964,-2.784,-2.7713,-2.7569,-2.7509,-2.7577,-2.7624,-2.7582,-2.74,-2.7369,-2.7293,-2.7154,-2.7072,-2.7055,-2.7055,-2.6792,-2.6572,-2.6383,-2.6175,-2.598,-2.5819,-2.5819,-2.5855,-2.5928,-2.5762,-2.5721,-2.5663,-2.54,-2.5262,-2.5123,-2.4871,-2.4682,-2.4428,-2.3934,-2.3384,-2.2812,-2.2055,-2.1582,-2.1284,-2.0905,-2.0877,-2.0942,-2.107,-2.0679,-2.0069,-1.953,-1.8166,-1.6926,-1.6968,-1.6952,-1.6795,-1.6247,-1.6107,-1.6097,-1.6035,-1.6149,-1.67,-1.8131,-1.8621,-1.9356,-2.1023,-2.1513,-2.1691,-2.1701,-2.1147,-2.0551,-2.0018,-1.9283,-1.8819,-1.8819,-1.8819,-1.8521,-1.776,-1.7388,-1.6881,-1.6157,-1.5781,-1.5721,-1.5967,-1.584,-1.5746,-1.5686,-1.5702,-1.5805,-1.587,-1.6111,-1.5841,-1.5179,-1.5389,-1.5165,-1.461,-1.4264,-1.4136,-1.4214,-1.394,-1.3809,-1.3709,-1.3353,-1.3045,-1.2684,-1.2092,-1.1825,-1.1774,-2.8482,-2.8651,-2.8743,-2.8507,-2.8404,-2.8281,-2.8129,-2.8047,-2.7992,-2.7992,-2.7936,-2.788,-2.788,-2.7683,-2.7522,-2.7522,-2.7359,-2.7186,-2.707,-2.7169,-2.7169,-2.707,-2.707,-2.7055,-2.7007,-2.6909,-2.6842,-2.6842,-2.6418,-2.6139,-2.6033,-2.5762,-2.5561,-2.5449,-2.5449,-2.5486,-2.5486,-2.5291,-2.5269,-2.5269,-2.5029,-2.4926,-2.4886,-2.463,-2.467,-2.4728,-2.3918,-2.3702,-2.3566,-2.2233,-2.1753,-2.1572,-2.0881,-2.0695,-2.0712,-2.0878,-1.9907,-1.884,-1.8943,-1.7987,-1.6902,-1.6628,-1.6554,-1.6554,-1.6398,-1.6262,-1.6194,-1.6194,-1.6371,-1.6941,-1.8336,-1.8837,-1.9499,-2.1081,-2.1444,-2.1387,-2.0901,-2.0195,-1.9536,-1.8961,-1.8099,-1.754,-1.754,-1.7388,-1.705,-1.6495,-1.6445,-1.6208,-1.5629,-1.5595,-1.5795,-1.6192,-1.6119,-1.5975,-1.5767,-1.6053,-1.6166,-1.6139,-1.6139,-1.587,-1.5433,-1.5389,-1.5043,-1.447,-1.3742,-1.3622,-1.3868,-1.3353,-1.316,-1.3173,-1.3091,-1.2779,-1.2305,-1.1497,-1.1388,-1.1589,-2.8129,-2.8156,-2.8156,-2.8129,-2.8129,-2.8129,-2.8102,-2.7897,-2.773,-2.773,-2.74,-2.7181,-2.7181,-2.712,-2.704,-2.704,-2.704,-2.7024,-2.7007,-2.7024,-2.7024,-2.7007,-2.7007,-2.7007,-2.7007,-2.6572,-2.6365,-2.6365,-2.5815,-2.5389,-2.502,-2.4981,-2.4759,-2.441,-2.441,-2.4492,-2.4695,-2.467,-2.4791,-2.5005,-2.4751,-2.463,-2.4589,-2.4385,-2.4343,-2.4302,-2.3906,-2.3579,-2.3179,-2.213,-2.1606,-2.1234,-2.0555,-2.0339,-2.0339,-2.0357,-1.9234,-1.8065,-1.8454,-1.788,-1.7049,-1.6554,-1.6316,-1.625,-1.6222,-1.6222,-1.6194,-1.6194,-1.6222,-1.6637,-1.7992,-1.8498,-1.9003,-1.9828,-2.041,-2.0539,-1.983,-1.9286,-1.8961,-1.891,-1.7664,-1.6783,-1.6783,-1.6153,-1.5731,-1.568,-1.568,-1.5663,-1.5595,-1.5595,-1.5712,-1.5917,-1.6323,-1.6544,-1.6517,-1.6313,-1.6111,-1.5928,-1.5928,-1.5683,-1.5208,-1.5027,-1.4783,-1.447,-1.3868,-1.3615,-1.3581,-1.3138,-1.2791,-1.2579,-1.2579,-1.2401,-1.2123,-1.2031,-1.2048,-1.2034,-2.7678,-2.7783,-2.7811,-2.7707,-2.75,-2.7365,-2.7413,-2.7324,-2.7279,-2.7279,-2.712,-2.7023,-2.7023,-2.7007,-2.7007,-2.7007,-2.7007,-2.6992,-2.6959,-2.6959,-2.6959,-2.6959,-2.6859,-2.6708,-2.6436,-2.6262,-2.6033,-2.5815,-2.5351,-2.5059,-2.4902,-2.4639,-2.4451,-2.4302,-2.4302,-2.4343,-2.4426,-2.4426,-2.4467,-2.4564,-2.4467,-2.4302,-2.412,-2.4261,-2.4051,-2.3696,-2.3782,-2.3716,-2.3379,-2.1953,-2.1665,-2.1679,-2.0216,-1.9869,-1.996,-1.9797,-1.931,-1.8673,-1.8005,-1.6999,-1.6157,-1.6116,-1.6055,-1.6055,-1.6166,-1.6194,-1.6194,-1.6194,-1.6194,-1.6471,-1.7408,-1.7681,-1.8077,-1.8961,-1.9311,-1.9313,-1.8972,-1.8751,-1.854,-1.8245,-1.7726,-1.7371,-1.7371,-1.7134,-1.6779,-1.6326,-1.6292,-1.6069,-1.5612,-1.5712,-1.5961,-1.6308,-1.6296,-1.6301,-1.6344,-1.6234,-1.6166,-1.6083,-1.5826,-1.5566,-1.5239,-1.4707,-1.436,-1.4149,-1.3433,-1.3254,-1.3412,-1.2591,-1.2354,-1.2473,-1.2246,-1.2309,-1.2518,-1.1937,-1.19,-1.1996,-2.7258,-2.74,-2.743,-2.7289,-2.7085,-2.6957,-2.6975,-2.7007,-2.7007,-2.7007,-2.6992,-2.6992,-2.6992,-2.6942,-2.6909,-2.6909,-2.6909,-2.6892,-2.6842,-2.6725,-2.6657,-2.6657,-2.6556,-2.6315,-2.5908,-2.5799,-2.5577,-2.5313,-2.4902,-2.4719,-2.4719,-2.4426,-2.4302,-2.4302,-2.4302,-2.4302,-2.4302,-2.4302,-2.4219,-2.4135,-2.4135,-2.3925,-2.3668,-2.3925,-2.3711,-2.3319,-2.3436,-2.3523,-2.3372,-2.1701,-2.1501,-2.1682,-1.9938,-1.9545,-1.9639,-1.945,-1.9192,-1.8724,-1.7612,-1.6451,-1.5591,-1.5727,-1.577,-1.5827,-1.6055,-1.6111,-1.6111,-1.6194,-1.6194,-1.6394,-1.7085,-1.7208,-1.7435,-1.8136,-1.8287,-1.8263,-1.806,-1.8112,-1.8069,-1.7817,-1.7608,-1.7456,-1.7456,-1.7253,-1.6898,-1.6394,-1.658,-1.6538,-1.6164,-1.6091,-1.6228,-1.6528,-1.6219,-1.6095,-1.6123,-1.6123,-1.6123,-1.6123,-1.5667,-1.5359,-1.5195,-1.4379,-1.4006,-1.3954,-1.3091,-1.2908,-1.3185,-1.23,-1.2121,-1.2367,-1.2242,-1.2446,-1.2782,-1.1954,-1.1991,-1.2189,-2.7007,-2.7007,-2.7007,-2.7007,-2.7007,-2.7007,-2.7007,-2.7007,-2.7007,-2.7007,-2.6959,-2.6893,-2.6893,-2.6792,-2.6691,-2.6691,-2.6691,-2.6691,-2.6691,-2.6315,-2.6104,-2.6087,-2.6087,-2.5908,-2.5503,-2.5082,-2.4902,-2.4902,-2.4492,-2.4302,-2.4302,-2.4302,-2.4302,-2.4302,-2.4302,-2.4302,-2.4302,-2.4302,-2.4094,-2.3797,-2.3797,-2.3581,-2.3319,-2.3319,-2.3319,-2.3231,-2.2844,-2.2934,-2.3025,-2.1339,-2.1015,-2.1079,-1.9811,-1.9376,-1.9376,-1.9376,-1.8739,-1.787,-1.7271,-1.6403,-1.5679,-1.552,-1.5507,-1.558,-1.5827,-1.59,-1.5957,-1.6166,-1.6194,-1.6394,-1.707,-1.7193,-1.7193,-1.7193,-1.7395,-1.7452,-1.7065,-1.724,-1.7496,-1.7766,-1.7151,-1.6716,-1.6716,-1.6035,-1.5612,-1.5612,-1.6289,-1.6869,-1.7271,-1.6799,-1.6474,-1.6398,-1.6136,-1.5996,-1.5996,-1.5996,-1.5996,-1.5996,-1.5359,-1.5104,-1.5074,-1.4052,-1.3735,-1.3921,-1.2953,-1.2662,-1.2875,-1.2323,-1.2103,-1.2146,-1.26,-1.2784,-1.2754,-1.2208,-1.2332,-1.265,-2.6775,-2.6775,-2.6775,-2.6775,-2.6775,-2.6775,-2.6775,-2.6775,-2.6775,-2.6775,-2.6775,-2.6742,-2.6742,-2.6742,-2.6691,-2.6691,-2.6691,-2.6573,-2.628,-2.6175,-2.5835,-2.5275,-2.554,-2.5503,-2.5098,-2.4981,-2.4759,-2.4492,-2.4343,-2.4302,-2.4302,-2.4302,-2.4302,-2.4302,-2.4302,-2.4177,-2.3967,-2.3967,-2.3754,-2.3451,-2.3451,-2.3216,-2.2889,-2.3172,-2.2994,-2.2495,-2.2466,-2.2603,-2.2669,-2.1332,-2.1055,-2.1024,-1.9363,-1.8606,-1.8347,-1.8347,-1.7944,-1.7368,-1.6772,-1.6413,-1.605,-1.5444,-1.5298,-1.5358,-1.558,-1.561,-1.5697,-1.5942,-1.5926,-1.5972,-1.6355,-1.6401,-1.6357,-1.6357,-1.6443,-1.6573,-1.6821,-1.6917,-1.7142,-1.7612,-1.7473,-1.7322,-1.7322,-1.7138,-1.7003,-1.7003,-1.703,-1.7034,-1.6952,-1.6607,-1.6328,-1.6136,-1.5998,-1.5942,-1.5942,-1.5755,-1.5653,-1.5624,-1.4937,-1.4596,-1.4564,-1.3555,-1.3276,-1.3539,-1.301,-1.2918,-1.3128,-1.2454,-1.233,-1.2548,-1.2064,-1.2027,-1.2198,-1.1695,-1.1599,-1.1447,-2.6691,-2.6691,-2.6691,-2.6691,-2.6691,-2.6691,-2.6691,-2.6691,-2.6691,-2.6691,-2.6691,-2.6691,-2.6691,-2.6691,-2.6691,-2.6691,-2.6539,-2.628,-2.5872,-2.5726,-2.5427,-2.4902,-2.4981,-2.4902,-2.4679,-2.4639,-2.4517,-2.4302,-2.4302,-2.4302,-2.4302,-2.4302,-2.4302,-2.4302,-2.4177,-2.4009,-2.3797,-2.3668,-2.3392,-2.3038,-2.2934,-2.2663,-2.2342,-2.248,-2.2249,-2.1902,-2.1921,-2.2049,-2.2058,-2.1057,-2.0522,-2.0028,-1.8557,-1.7908,-1.7639,-1.7639,-1.7407,-1.7016,-1.6692,-1.6244,-1.5757,-1.5272,-1.5145,-1.517,-1.5162,-1.5134,-1.5225,-1.5477,-1.5463,-1.5507,-1.5797,-1.5826,-1.5854,-1.5968,-1.5996,-1.6163,-1.6596,-1.6738,-1.6968,-1.7384,-1.7432,-1.7479,-1.7589,-1.7502,-1.7432,-1.7432,-1.7191,-1.6917,-1.6607,-1.6355,-1.6123,-1.5926,-1.5885,-1.5799,-1.5668,-1.5507,-1.5418,-1.5418,-1.4828,-1.4406,-1.4136,-1.3525,-1.3321,-1.3501,-1.3273,-1.3341,-1.3509,-1.2775,-1.258,-1.2731,-1.2218,-1.2012,-1.1921,-1.1414,-1.1225,-1.1015,-2.6691,-2.6691,-2.6691,-2.6691,-2.6691,-2.6691,-2.6691,-2.6691,-2.6691,-2.6691,-2.6657,-2.6657,-2.6691,-2.6624,-2.6624,-2.6657,-2.628,-2.5872,-2.5465,-2.5082,-2.4863,-2.4823,-2.4492,-2.4317,-2.4317,-2.4317,-2.4317,-2.4317,-2.4317,-2.4261,-2.4261,-2.4261,-2.4261,-2.4177,-2.3867,-2.3696,-2.361,-2.3304,-2.2949,-2.2558,-2.2328,-2.2063,-2.1746,-2.1471,-2.1423,-2.1423,-2.1375,-2.1375,-2.1266,-2.063,-1.9624,-1.8555,-1.7552,-1.7229,-1.7188,-1.7188,-1.6967,-1.6725,-1.6758,-1.5983,-1.512,-1.5021,-1.5036,-1.4965,-1.4653,-1.4564,-1.4658,-1.4907,-1.4968,-1.5074,-1.5389,-1.5477,-1.5566,-1.5883,-1.5968,-1.6095,-1.6328,-1.6581,-1.6841,-1.7117,-1.7142,-1.7264,-1.7519,-1.7337,-1.7167,-1.7142,-1.6892,-1.6607,-1.6301,-1.6055,-1.5871,-1.5799,-1.5799,-1.5639,-1.5299,-1.5299,-1.5255,-1.5209,-1.4918,-1.4415,-1.3821,-1.3749,-1.3692,-1.3728,-1.3684,-1.3825,-1.3982,-1.3171,-1.2868,-1.2863,-1.2762,-1.2365,-1.1814,-1.1316,-1.1065,-1.0813,-2.6691,-2.6691,-2.6691,-2.6691,-2.6691,-2.6691,-2.6691,-2.6691,-2.6691,-2.6691,-2.6436,-2.635,-2.6657,-2.6139,-2.5872,-2.621,-2.5872,-2.5465,-2.5059,-2.4942,-2.4759,-2.4451,-2.4343,-2.4276,-2.4208,-2.4276,-2.4276,-2.4208,-2.4208,-2.4166,-2.4067,-2.4067,-2.3824,-2.345,-2.3363,-2.2965,-2.2402,-2.231,-2.203,-2.1698,-2.1602,-2.1554,-2.1471,-2.1423,-2.1423,-2.1375,-2.118,-2.1229,-2.1212,-1.9854,-1.9106,-1.8532,-1.7114,-1.6552,-1.6436,-1.6436,-1.6163,-1.5852,-1.5874,-1.5666,-1.5266,-1.4432,-1.4434,-1.4586,-1.4419,-1.4383,-1.4433,-1.4627,-1.4627,-1.469,-1.4968,-1.5195,-1.5359,-1.5433,-1.5668,-1.5926,-1.6219,-1.6285,-1.6421,-1.6686,-1.6738,-1.6841,-1.7117,-1.7093,-1.6968,-1.6738,-1.6474,-1.6313,-1.6231,-1.5983,-1.5827,-1.5799,-1.5799,-1.5639,-1.5299,-1.5299,-1.5058,-1.4511,-1.4447,-1.4266,-1.4039,-1.3791,-1.3786,-1.3935,-1.415,-1.4267,-1.4247,-1.3694,-1.3418,-1.3324,-1.256,-1.1642,-1.0712,-1.0618,-1.0064,-0.9152,-2.6139,-2.6139,-2.6175,-2.6385,-2.6385,-2.6385,-2.6385,-2.6385,-2.635,-2.6175,-2.5944,-2.5908,-2.6087,-2.5762,-2.5503,-2.554,-2.5351,-2.502,-2.4574,-2.4574,-2.4451,-2.4177,-2.4151,-2.4151,-2.4124,-2.4151,-2.4151,-2.4082,-2.4082,-2.4082,-2.3982,-2.3982,-2.3696,-2.3172,-2.3039,-2.2603,-2.1996,-2.1793,-2.1616,-2.1375,-2.1277,-2.1229,-2.118,-2.1082,-2.1082,-2.1033,-2.0673,-2.0472,-2.0291,-1.9162,-1.8588,-1.8071,-1.6552,-1.6001,-1.5913,-1.5913,-1.5647,-1.5457,-1.578,-1.5469,-1.4975,-1.4672,-1.4458,-1.4181,-1.3942,-1.3861,-1.396,-1.4176,-1.4176,-1.4273,-1.456,-1.4718,-1.4935,-1.5269,-1.5448,-1.5668,-1.5968,-1.612,-1.6258,-1.6394,-1.6394,-1.6474,-1.6591,-1.6738,-1.6686,-1.6421,-1.6285,-1.6148,-1.6024,-1.5885,-1.5799,-1.5799,-1.5639,-1.5389,-1.5058,-1.5058,-1.4858,-1.4439,-1.4607,-1.4414,-1.3914,-1.427,-1.4345,-1.4204,-1.4598,-1.4596,-1.4351,-1.3799,-1.3467,-1.3122,-1.2412,-1.1351,-1.0312,-1.0312,-0.9607,-0.8427,-2.5503,-2.5503,-2.5615,-2.5944,-2.598,-2.598,-2.598,-2.598,-2.5872,-2.554,-2.5427,-2.5389,-2.5465,-2.5389,-2.5198,-2.4784,-2.4759,-2.4574,-2.4208,-2.4166,-2.4124,-2.3982,-2.3982,-2.3982,-2.3982,-2.3982,-2.3982,-2.3982,-2.3982,-2.394,-2.394,-2.3839,-2.3508,-2.2995,-2.2649,-2.2203,-2.1746,-2.1423,-2.1277,-2.1277,-2.0934,-2.0885,-2.0947,-2.0686,-2.0599,-2.0536,-2.0156,-1.9759,-1.9261,-1.8459,-1.8001,-1.7471,-1.5968,-1.5501,-1.5501,-1.5501,-1.5334,-1.5244,-1.5836,-1.5262,-1.4618,-1.5055,-1.4612,-1.3959,-1.3579,-1.349,-1.3565,-1.383,-1.3819,-1.3888,-1.417,-1.43,-1.4574,-1.5118,-1.5299,-1.5477,-1.577,-1.5996,-1.612,-1.612,-1.6176,-1.6176,-1.6136,-1.6367,-1.6421,-1.6148,-1.612,-1.6024,-1.5799,-1.5799,-1.577,-1.5712,-1.5448,-1.5118,-1.4714,-1.4812,-1.4766,-1.4598,-1.503,-1.4764,-1.4011,-1.4825,-1.4952,-1.4534,-1.4936,-1.4834,-1.4384,-1.38,-1.3266,-1.2716,-1.2147,-1.1191,-1.0167,-0.9961,-0.9242,-0.8209,-2.5503,-2.5503,-2.554,-2.5577,-2.5577,-2.5577,-2.5577,-2.5519,-2.5519,-2.5503,-2.5044,-2.4902,-2.5368,-2.5005,-2.4542,-2.4177,-2.4135,-2.4094,-2.4024,-2.4024,-2.4024,-2.3982,-2.3982,-2.394,-2.3839,-2.3839,-2.3839,-2.3839,-2.3839,-2.3782,-2.3653,-2.3246,-2.274,-2.2221,-2.1779,-2.1326,-2.0848,-2.0799,-2.0799,-2.0749,-2.0308,-2.0372,-2.0699,-2.0258,-2.0093,-2.0105,-2.0042,-1.9759,-1.9196,-1.7884,-1.7424,-1.7087,-1.5614,-1.5153,-1.5153,-1.5153,-1.5153,-1.5108,-1.5244,-1.5152,-1.4913,-1.4618,-1.4413,-1.4247,-1.3994,-1.3975,-1.4008,-1.4044,-1.3908,-1.3821,-1.3854,-1.4332,-1.4763,-1.4856,-1.5344,-1.5741,-1.5799,-1.5827,-1.5841,-1.5841,-1.6052,-1.6108,-1.5885,-1.6108,-1.6136,-1.587,-1.5841,-1.5856,-1.5799,-1.5799,-1.5668,-1.5389,-1.5329,-1.4996,-1.4365,-1.4842,-1.4889,-1.4611,-1.5338,-1.5495,-1.5102,-1.4917,-1.494,-1.5016,-1.5073,-1.4834,-1.4384,-1.38,-1.3218,-1.2511,-1.1525,-1.0669,-0.9917,-0.8988,-0.8527,-0.8209,-2.4664,-2.4664,-2.4744,-2.4965,-2.5005,-2.5005,-2.5005,-2.4965,-2.4902,-2.4704,-2.4436,-2.4369,-2.4599,-2.441,-2.4204,-2.4024,-2.3982,-2.3982,-2.3882,-2.3882,-2.3839,-2.3782,-2.3782,-2.3739,-2.3696,-2.3696,-2.3696,-2.3696,-2.3696,-2.3508,-2.3201,-2.2979,-2.2466,-2.1684,-2.1506,-2.1131,-2.0699,-2.0699,-2.0549,-2.0271,-2.0093,-2.0016,-1.9926,-1.9759,-1.9656,-1.9656,-1.9656,-1.9251,-1.8513,-1.7635,-1.713,-1.6697,-1.5476,-1.5108,-1.5108,-1.5108,-1.5108,-1.5108,-1.5108,-1.5108,-1.5062,-1.4844,-1.4786,-1.4773,-1.4618,-1.4541,-1.444,-1.4137,-1.4039,-1.3912,-1.3806,-1.404,-1.4365,-1.4746,-1.5041,-1.5374,-1.5741,-1.5799,-1.5799,-1.5799,-1.5898,-1.5926,-1.5799,-1.5898,-1.5926,-1.5799,-1.5799,-1.5799,-1.5799,-1.561,-1.5448,-1.5299,-1.4935,-1.4745,-1.4761,-1.4814,-1.4899,-1.5095,-1.5228,-1.5311,-1.5269,-1.5148,-1.5024,-1.4891,-1.4891,-1.4408,-1.36,-1.3515,-1.2929,-1.2049,-1.1601,-1.0787,-0.9762,-0.8573,-0.8109,-0.7943]},{"header":{"parameterUnit":"m.s-1","parameterCategory":1,"la1":30.6,"la2":28.766,"lo1":-90.7593,"lo2":-88.6598,"dy":0.0162,"dx":0.0183,"nx":116,"ny":114,"refTime":"2024-06-07T06:00:00:Z","depth":0,"parameterNumber":3,"parameterNumberName":"V-component_of_WINDS"},"data":[0.0,0.0,0.0,0.0,0.0,0.0,0.0,0.0,0.0,0.0,0.0,0.0,0.0,0.0,0.0,0.0,0.0,0.0,0.0,0.0,0.0,0.0,0.0,0.0,0.0,0.0,0.0,0.0,0.0,0.0,0.0,0.0,0.0,0.0,0.0,0.0,0.0,0.0,0.0,0.0,0.0,0.0,0.0,0.0,0.0,0.0,0.0,0.0,0.0,0.0,0.0,0.0,0.0,0.0,0.0,0.0,0.0,0.0,0.0,0.0,0.0,0.0,0.0,0.0,0.0,0.0,0.0,0.0,0.0,0.0,0.0,0.0,0.0,0.0,0.0,0.0,0.0,0.0,0.0,0.0,0.0,0.0,0.0,0.0,0.0,0.0,0.0,0.0,0.0,0.0,0.0,0.0,0.0,0.0,0.0,0.0,0.0,0.0,0.0,0.0,0.0,0.0,0.0,0.0,0.0,0.0,0.0,0.0,0.0,0.0,0.0,0.0,0.0,0.0,0.0,0.0,0.0,0.0,0.0,0.0,0.0,0.0,0.0,0.0,0.0,0.0,0.0,0.0,0.0,0.0,0.0,0.0,0.0,0.0,0.0,0.0,0.0,0.0,0.0,0.0,0.0,0.0,0.0,0.0,0.0,0.0,0.0,0.0,0.0,0.0,0.0,0.0,0.0,0.0,0.0,0.0,0.0,0.0,0.0,0.0,0.0,0.0,0.0,0.0,0.0,0.0,0.0,0.0,0.0,0.0,0.0,0.0,0.0,0.0,0.0,0.0,0.0,0.0,0.0,0.0,0.0,0.0,0.0,0.0,0.0,0.0,0.0,0.0,0.0,0.0,0.0,0.0,0.0,0.0,0.0,0.0,0.0,0.0,0.0,0.0,0.0,0.0,0.0,0.0,0.0,0.0,0.0,0.0,0.0,0.0,0.0,0.0,0.0,0.0,0.0,0.0,0.0,0.0,0.0,0.0,0.0,0.0,0.0,0.0,0.0,0.0,0.0,0.0,0.0,0.0,0.0,0.0,0.0,0.0,0.0,0.0,0.0,0.0,0.0,0.0,0.0,0.0,0.0,0.0,0.0,0.0,0.0,0.0,0.0,0.0,0.0,0.0,0.0,0.0,0.0,0.0,0.0,0.0,0.0,0.0,0.0,0.0,0.0,0.0,0.0,0.0,0.0,0.0,0.0,0.0,0.0,0.0,0.0,0.0,0.0,0.0,0.0,0.0,0.0,0.0,0.0,0.0,0.0,0.0,0.0,0.0,0.0,0.0,0.0,0.0,0.0,0.0,0.0,0.0,0.0,0.0,0.0,0.0,0.0,0.0,0.0,0.0,0.0,0.0,0.0,0.0,0.0,0.0,0.0,0.0,0.0,0.0,0.0,0.0,0.0,0.0,0.0,0.0,0.0,0.0,0.0,0.0,0.0,0.0,0.0,0.0,0.0,0.0,0.0,0.0,0.0,0.0,0.0,0.0,0.0,0.0,0.0,0.0,0.0,0.0,0.0,0.0,0.0,0.0,0.0,0.0,0.0,0.0,0.0,0.0,0.0,0.0,0.0,0.0,0.0,0.0,0.0,0.0,0.0,0.0,0.0,0.0,0.0,0.0,0.0,0.0,0.0,0.0,0.0,0.0,0.0,0.0,0.0,0.0,0.0,0.0,0.0,0.0,0.0,0.0,0.0,0.0,0.0,0.0,0.0,0.0,0.0,0.0,0.0,0.0,0.0,0.0,0.0,0.0,0.0,0.0,0.0,0.0,0.0,0.0,0.0,0.0,0.0,0.0,0.0,0.0,0.0,0.0,0.0,0.0,0.0,0.0,0.0,0.0,0.0,0.0,0.0,0.0,0.0,0.0,0.0,0.0,0.0,0.0,0.0,0.0,0.0,0.0,0.0,0.0,0.0,0.0,0.0,0.0,0.0,0.0,0.0,0.0,0.0,0.0,0.0,0.0,0.0,0.0,0.0,0.0,0.0,0.0,0.0,0.0,0.0,0.0,0.0,0.0,0.0,0.0,0.0,0.0,0.0,0.0,0.0,0.0,0.0,0.0,0.0,0.0,0.0,0.0,0.0,0.0,0.0,0.0,0.0,0.0,0.0,0.0,0.0,0.0,0.0,0.0,0.0,0.0,0.0,0.0,0.0,0.0,0.0,0.0,0.0,0.0,0.0,0.0,0.0,0.0,0.0,0.0,0.0,0.0,0.0,0.0,0.0,0.0,0.0,0.0,0.0,0.0,0.0,0.0,0.0,0.0,0.0,0.0,0.0,0.0,0.0,0.0,0.0,0.0,0.0,0.0,0.0,0.0,0.0,0.0,0.0,0.0,0.0,0.0,0.0,0.0,0.0,0.0,0.0,0.0,0.0,0.0,0.0,0.0,0.0,0.0,0.0,0.0,0.0,0.0,0.0,0.0,0.0,0.0,0.0,0.0,0.0,0.0,0.0,0.0,0.0,0.0,0.0,0.0,0.0,0.0,0.0,0.0,0.0,0.0,0.0,0.0,0.0,0.0,0.0,0.0,0.0,0.0,0.0,0.0,0.0,0.0,0.0,0.0,0.0,0.0,0.0,0.0,0.0,0.0,0.0,0.0,0.0,0.0,0.0,0.0,0.0,0.0,0.0,0.0,0.0,0.0,0.0,0.0,0.0,0.0,0.0,0.0,0.0,0.0,0.0,0.0,0.0,0.0,0.0,0.0,0.0,0.0,0.0,0.0,0.0,0.0,0.0,0.0,0.0,0.0,0.0,0.0,0.0,0.0,0.0,0.0,0.0,0.0,0.0,0.0,0.0,0.0,0.0,0.0,0.0,0.0,0.0,0.0,0.0,0.0,0.0,0.0,0.0,0.0,0.0,0.0,0.0,0.0,0.0,0.0,0.0,0.0,0.0,0.0,0.0,0.0,0.0,0.0,0.0,0.0,0.0,0.0,0.0,0.0,0.0,0.0,0.0,0.0,0.0,0.0,0.0,0.0,0.0,0.0,0.0,0.0,0.0,0.0,0.0,0.0,0.0,0.0,0.0,0.0,0.0,0.0,0.0,0.0,0.0,0.0,0.0,0.0,0.0,0.0,0.0,0.0,0.0,0.0,0.0,0.0,0.0,0.0,0.0,0.0,0.0,0.0,0.0,0.0,0.0,0.0,0.0,0.0,0.0,0.0,0.0,0.0,0.0,0.0,0.0,0.0,0.0,0.0,0.0,0.0,0.0,0.0,0.0,0.0,0.0,0.0,0.0,0.0,0.0,0.0,0.0,0.0,0.0,0.0,0.0,0.0,0.0,0.0,0.0,0.0,0.0,0.0,0.0,0.0,0.0,0.0,0.0,0.0,0.0,0.0,0.0,0.0,0.0,0.0,0.0,0.0,0.0,0.0,0.0,0.0,0.0,0.0,0.0,0.0,0.0,0.0,0.0,0.0,0.0,0.0,0.0,0.0,0.0,0.0,0.0,0.0,0.0,0.0,0.0,0.0,0.0,0.0,0.0,0.0,0.0,0.0,0.0,0.0,0.0,0.0,0.0,0.0,0.0,0.0,0.0,0.0,0.0,0.0,0.0,0.0,0.0,0.0,0.0,0.0,0.0,0.0,0.0,0.0,0.0,0.0,0.0,0.0,0.0,0.0,0.0,0.0,0.0,0.0,0.0,0.0,0.0,0.0,0.0,0.0,0.0,0.0,0.0,0.0,0.0,0.0,0.0,0.0,0.0,0.0,0.0,0.0,0.0,0.0,0.0,0.0,0.0,0.0,0.0,0.0,0.0,0.0,0.0,0.0,0.0,0.0,0.0,0.0,0.0,0.0,0.0,0.0,0.0,0.0,0.0,0.0,0.0,0.0,0.0,0.0,0.0,0.0,0.0,0.0,0.0,0.0,0.0,0.0,0.0,0.0,0.0,0.0,0.0,0.0,0.0,0.0,0.0,0.0,0.0,0.0,0.0,0.0,0.0,0.0,0.0,0.0,0.0,0.0,0.0,0.0,0.0,0.0,0.0,0.0,0.0,0.0,0.0,0.0,0.0,0.0,0.0,0.0,0.0,0.0,0.0,0.0,0.0,0.0,0.0,0.0,0.0,0.0,0.0,0.0,0.0,0.0,0.0,0.0,0.0,0.0,0.0,0.0,0.0,0.0,0.0,0.0,0.0,0.0,0.0,0.0,0.0,0.0,0.0,0.0,0.0,0.0,0.0,0.0,0.0,0.0,0.0,0.0,0.0,0.0,0.0,0.0,0.0,0.0,0.0,0.0,0.0,0.0,0.0,0.0,0.0,0.0,0.0,0.0,0.0,0.0,0.0,0.0,0.0,0.0,0.0,0.0,0.0,0.0,0.0,0.0,0.0,0.0,0.0,0.0,0.0,0.0,0.0,0.0,0.0,0.0,0.0,0.0,0.0,0.0,0.0,0.0,0.0,0.0,0.0,0.0,0.0,0.0,0.0,0.0,0.0,0.0,0.0,0.0,0.0,0.0,0.0,0.0,0.0,0.0,0.0,0.0,0.0,0.0,0.0,0.0,0.0,0.0,0.0,0.0,0.0,0.0,0.0,0.0,0.0,0.0,0.0,0.0,0.0,0.0,0.0,0.0,0.0,0.0,0.0,0.0,0.0,0.0,0.0,0.0,0.0,0.0,0.0,0.0,0.0,0.0,0.0,0.0,0.0,0.0,0.0,0.0,0.0,0.0,0.0,0.0,0.0,0.0,0.0,0.0,0.0,0.0,0.0,0.0,0.0,0.0,0.0,0.0,0.0,0.0,0.0,0.0,0.0,0.0,0.0,0.0,0.0,0.0,0.0,0.0,0.0,0.0,0.0,0.0,0.0,0.0,0.0,0.0,0.0,0.0,0.0,0.0,0.0,0.0,0.0,0.0,0.0,0.0,0.0,0.0,0.0,0.0,0.0,0.0,0.0,0.0,0.0,0.0,0.0,0.0,0.0,0.0,0.0,0.0,0.0,0.0,0.0,0.0,0.0,0.0,0.0,0.0,0.0,0.0,0.0,0.0,0.0,0.0,0.0,0.0,0.0,0.0,0.0,0.0,0.0,0.0,0.0,0.0,0.0,0.0,0.0,0.0,0.0,0.0,0.0,0.0,0.0,0.0,0.0,0.0,0.0,0.0,0.0,0.0,0.0,0.0,0.0,0.0,0.0,0.0,0.0,0.0,0.0,0.0,0.0,0.0,0.0,0.0,0.0,0.0,0.0,0.0,0.0,0.0,0.0,0.0,0.0,0.0,0.0,0.0,0.0,0.0,0.0,0.0,0.0,0.0,0.0,0.0,0.0,0.0,0.0,0.0,0.0,0.0,0.0,0.0,0.0,0.0,0.0,0.0,0.0,0.0,0.0,0.0,0.0,0.0,0.0,0.0,0.0,0.0,0.0,0.0,0.0,0.0,0.0,0.0,0.0,0.0,0.0,0.0,0.0,0.0,0.0,0.0,0.0,0.0,0.0,0.0,0.0,0.0,0.0,0.0,0.0,0.0,0.0,0.0,0.0,0.0,0.0,0.0,0.0,0.0,0.0,0.0,0.0,0.0,0.0,0.0,0.0,0.0,0.0,0.0,0.0,0.0,0.0,0.0,0.0,0.0,0.0,0.0,0.0,0.0,0.0,0.0,0.0,0.0,0.0,0.0,0.0,0.0,0.0,0.0,0.0,0.0,0.0,0.0,0.0,0.0,0.0,0.0,0.0,0.0,0.0,0.0,0.0,0.0,0.0,0.0,0.0,0.0,0.0,0.0,0.0,0.0,0.0,0.0,0.0,0.0,0.0,0.0,0.0,0.0,0.0,0.0,0.0,0.0,0.0,0.0,0.0,0.0,0.0,0.0,0.0,0.0,0.0,0.0,0.0,0.0,0.0,0.0,0.0,0.0,0.0,0.0,0.0,0.0,0.0,0.0,0.0,0.0,0.0,0.0,0.0,0.0,0.0,0.0,0.0,0.0,0.0,0.0,0.0,0.0,0.0,0.0,0.0,0.0,0.0,0.0,0.0,0.0,0.0,0.0,0.0,0.0,0.0,0.0,0.0,0.0,0.0,0.0,0.0,0.0,0.0,0.0,0.0,0.0,0.0,0.0,0.0,0.0,0.0,0.0,0.0,0.0,0.0,0.0,0.0,0.0,-1.1111,-1.1111,0.0,0.0,0.0,0.0,0.0,0.0,0.0,0.0,0.0,0.0,0.0,0.0,0.0,0.0,0.0,0.0,0.0,0.0,0.0,0.0,0.0,0.0,0.0,0.2075,0.2394,0.2686,0.2574,0.2579,0.2894,0.0,0.0,0.0,0.0,0.0,0.1919,0.1617,0.1469,0.1509,0.1281,0.0982,0.067,-0.0319,-0.1271,-0.22,0.0,0.0,0.0,0.0,0.0,0.0,0.0,0.0,0.0,0.0,0.0,0.0,0.0,0.0,0.0,0.0,0.0,0.0,0.0,0.0,0.0,0.0,0.0,0.0,0.0,0.0,0.0,0.0,0.0,0.0,0.0,0.0,0.0,0.0,0.0,0.0,0.0,0.0,0.0,0.0,0.0,0.0,0.0,0.0,0.0,0.0,0.0,0.0,0.0,0.0,0.0,0.0,0.0,0.0,0.0,0.0,0.0,0.0,0.0,0.0,0.0,0.0,0.0,0.0,0.0,0.0,0.0,0.0,0.0,0.0,-1.0962,-1.1111,0.0,0.0,0.0,0.0,0.0,0.0,0.0,0.0,0.0,0.0,0.0,0.0,0.0,0.0,0.0,0.0,0.0,0.0,0.0,0.0,0.0,0.1685,0.2363,0.2887,0.3285,0.3465,0.3604,0.3693,0.3664,0.3461,0.0,0.0,0.0,0.2869,0.2863,0.2621,0.2569,0.2721,0.2664,0.2319,0.1789,0.0636,-0.0695,-0.2073,-0.2186,0.0,0.0,0.0,0.0,0.0,0.0,0.0,0.0,0.0,0.0,0.0,0.0,0.0,0.0,0.0,0.0,0.0,0.0,0.0,0.0,0.0,0.0,0.0,0.0,0.0,0.0,0.0,0.0,0.0,0.0,0.0,0.0,0.0,0.0,0.0,0.0,0.0,0.0,0.0,0.0,0.0,0.0,0.0,0.0,0.0,0.0,0.0,0.0,0.0,0.0,0.0,0.0,0.0,0.0,0.0,0.0,0.0,0.0,0.0,0.0,0.0,0.0,0.0,-0.8699,-0.9155,-0.9155,-0.9841,-1.0143,-1.0143,-1.0812,-1.1111,-1.1111,-1.1111,0.0,0.0,0.0,0.0,0.0,0.0,0.0,0.0,0.0,0.0,0.0,0.0,0.0,0.0,0.0,0.0,0.0,0.0,0.0,0.2452,0.3604,0.4123,0.4847,0.5995,0.5672,0.5647,0.6369,0.5733,0.0,0.0,0.5031,0.4443,0.4319,0.331,0.3077,0.371,0.3449,0.2968,0.2201,0.1523,0.036,-0.1094,-0.1792,-0.2807,-0.3948,0.0,0.0,0.0,0.0,0.0,0.0,0.0,0.0,0.0,0.0,0.0,0.0,0.0,0.0,0.0,0.0,0.0,0.0,0.0,0.0,0.0,0.0,0.0,0.0,0.0,0.0,0.0,0.0,0.0,0.0,0.0,0.0,0.0,0.0,0.0,0.0,0.0,0.0,0.0,0.0,0.0,-0.476,-0.4686,0.0,0.0,0.0,0.0,0.0,0.0,0.0,0.0,0.0,0.0,0.0,0.0,0.0,-0.6721,-0.733,-0.8246,-0.9008,-0.9614,-1.0363,-1.0807,-1.0812,-1.0887,-1.0962,-1.0962,-1.1037,0.0,-1.1111,-1.1111,0.0,0.0,0.0,0.0,0.0,0.0,0.0,0.0,0.0,0.0,0.0,0.0,0.0,0.0,0.0,0.0,0.0,0.0,0.0,0.0,0.0,0.5444,0.6352,0.6896,0.7084,0.7283,0.7471,0.6797,0.6497,0.6606,0.6081,0.5712,0.5659,0.541,0.5353,0.5538,0.4679,0.3912,0.3303,0.2608,0.1649,0.0447,-0.0591,-0.1893,-0.3423,-0.4187,0.0,0.0,0.0,0.0,0.0,0.0,0.0,0.0,0.0,0.0,0.0,0.0,0.0,0.0,0.0,0.0,0.0,0.0,0.0,0.0,0.0,0.0,0.0,0.0,0.0,0.0,0.0,0.0,0.0,0.0,0.0,0.0,0.0,0.0,0.0,0.0,0.0,0.0,0.0,-0.3717,-0.3869,-0.3479,-0.3895,-0.4243,0.0,0.0,0.0,0.0,0.0,0.0,0.0,0.0,0.0,-0.5712,-0.6563,-0.7176,-0.7484,-0.8322,-0.9084,-0.9922,-1.0293,-1.0663,-1.1111,-1.1111,-1.1111,-1.1111,-1.1111,-1.1111,-1.1111,-1.1111,-1.1335,-1.1781,0.0,0.0,0.0,0.0,-1.4514,-1.5359,0.0,0.0,0.0,0.0,0.0,0.0,0.0,0.0,0.0,0.0,0.0,0.0,0.5386,0.683,0.7791,0.807,0.8665,0.8839,0.8497,0.8034,0.7701,0.7458,0.7065,0.6906,0.697,0.7325,0.7355,0.7031,0.5978,0.5161,0.4612,0.3684,0.2713,0.1741,0.0445,-0.1112,-0.2812,-0.3809,-0.4591,0.0,0.0,0.0,0.0,0.0,0.0,0.0,0.0,0.0,0.0,0.0,0.0,0.0,0.0,0.0,0.0,0.0,0.0,0.0,0.0,0.0,0.0,0.0,0.0,0.0,0.0,0.0,0.0,0.0,0.0,0.0,0.0,0.0,0.0,0.0,0.0,0.0,0.0,-0.2941,-0.3222,-0.255,-0.3379,-0.3914,0.0,0.0,0.0,0.0,0.0,0.0,-0.5015,-0.5404,-0.5637,-0.5637,-0.6641,-0.733,-0.7484,-0.8322,-0.9084,-0.9922,-1.0143,-1.0513,-1.1111,-1.1111,-1.1111,-1.1111,-1.1111,-1.1111,-1.1111,-1.1335,-1.1781,-1.2298,-1.2519,-1.3339,-1.4458,-1.4291,-1.4673,-1.5291,0.0,0.0,0.0,0.0,0.0,0.0,0.0,0.0,0.0,0.0,0.0,0.5901,0.7228,0.8224,0.9267,1.0427,1.0543,1.0401,1.0021,0.9942,0.9733,0.9313,0.8365,0.7996,0.8283,0.8345,0.8094,0.7643,0.7308,0.6755,0.5962,0.4504,0.3281,0.2213,0.0799,-0.0667,-0.2224,-0.33,-0.4683,-0.6152,0.0,0.0,0.0,0.0,0.0,0.0,0.0,0.0,0.0,0.0,0.0,0.0,0.0,0.0,0.0,0.0,0.0,0.0,0.0,0.0,0.0,0.0,0.0,0.0,0.0,0.0,0.0,0.0,0.0,0.0,0.0,0.0,0.0,0.0,0.0,0.0,0.0,0.0,0.0,-0.2429,-0.3859,0.0,0.0,0.0,0.0,-0.501,-0.4909,-0.4896,-0.5012,-0.5404,-0.5637,-0.5637,-0.6106,-0.6718,-0.7484,-0.8322,-0.9084,-0.9922,-1.0663,-1.1037,-1.1111,-1.1111,-1.1111,-1.1111,-1.1111,-1.1111,-1.1186,-1.1929,-1.2224,-1.2378,-1.3171,-1.3709,-1.4172,-1.4466,-1.4948,-1.5504,0.0,0.0,0.0,0.0,0.0,0.1609,0.2134,0.2831,0.3584,0.4338,0.5615,0.6846,0.7853,0.9361,1.0497,1.09,1.1221,1.1308,1.1098,1.0775,1.0389,0.9889,0.9748,0.995,1.046,0.9907,0.9598,0.9523,0.8865,0.7964,0.6778,0.6174,0.501,0.3406,0.2123,0.062,-0.1108,-0.2887,-0.4369,-0.553,-0.618,-0.7102,0.0,0.0,0.0,0.0,0.0,0.0,0.0,0.0,0.0,0.0,0.0,0.0,0.0,0.0,0.0,0.0,0.0,0.0,0.0,0.0,0.0,0.0,0.0,0.0,0.0,0.0,0.0,0.0,0.0,0.0,0.0,0.0,0.0,0.0,0.0,0.0,0.0,-0.1704,-0.2647,0.0,-0.3752,-0.4035,-0.4421,-0.4935,-0.4977,-0.4972,-0.5015,-0.5249,-0.5401,-0.5401,-0.5786,-0.671,-0.808,-0.847,-0.9382,-1.0663,-1.0962,-1.1111,-1.1111,-1.1111,-1.1111,-1.1111,-1.1111,-1.1409,-1.1929,-1.2732,-1.3098,-1.3171,-1.389,-1.4617,-1.518,-1.5313,-1.5492,-1.5739,0.0,0.0,0.0,0.0,0.1377,0.194,0.2735,0.3486,0.4317,0.5293,0.67,0.7965,0.8829,1.0272,1.1329,1.1594,1.1942,1.1934,1.1386,1.1464,1.1155,1.0301,1.0728,1.112,1.1357,1.0935,1.0725,1.0725,1.0037,0.9217,0.8294,0.7721,0.6697,0.5209,0.3597,0.1938,0.0221,-0.1991,-0.378,-0.5245,-0.6053,-0.7001,-0.788,0.0,0.0,0.0,0.0,0.0,0.0,0.0,0.0,0.0,0.0,0.0,0.0,0.0,0.0,0.0,0.0,0.0,0.0,0.0,0.0,0.0,0.0,0.0,0.0,0.0,0.0,0.0,0.0,0.0,0.0,0.0,0.0,0.0,0.0,-0.0931,-0.1176,-0.0862,-0.2113,-0.3051,-0.3363,-0.391,-0.4462,-0.4937,-0.5018,-0.5018,-0.5018,-0.5168,-0.5321,-0.5321,-0.5631,-0.663,-0.838,-0.8542,-0.9448,-1.1111,-1.1111,-1.1111,-1.1111,-1.1111,-1.1111,-1.1111,-1.1111,-1.1558,-1.2372,-1.3171,-1.3673,-1.3962,-1.4689,-1.5355,-1.5805,-1.5805,-1.5867,-1.5929,0.0,0.0,0.0,0.0942,0.1444,0.1973,0.2801,0.3953,0.4966,0.5752,0.7584,0.9228,1.0344,1.1039,1.1775,1.2552,1.2722,1.2265,1.1044,1.2055,1.2141,1.0785,1.1326,1.1464,1.1015,1.1443,1.1513,1.1223,1.0768,1.052,1.0482,0.9094,0.8173,0.7546,0.5154,0.328,0.1809,-0.0529,-0.2953,-0.5303,-0.6155,-0.7058,-0.7959,0.0,0.0,0.0,0.0,0.0,0.0,0.0,0.0,0.0,0.0,0.0,0.0,0.0,0.0,0.0,0.0,0.0,0.0,0.0,0.0,0.0,0.0,0.0,0.0,0.0,0.0,0.0,0.0,0.0,0.0,0.0,0.0,0.0,-0.1332,-0.1254,-0.0941,-0.0157,-0.227,-0.3441,-0.2581,-0.3992,-0.5018,-0.5018,-0.5018,-0.5018,-0.5018,-0.5168,-0.5321,-0.5321,-0.5479,-0.6479,-0.838,-0.838,-0.9286,-1.1111,-1.1111,-1.1111,-1.1111,-1.1111,-1.1111,-1.1111,-1.1111,-1.1558,-1.2372,-1.3171,-1.3962,-1.4681,-1.5505,-1.5805,-1.5805,-1.5805,-1.5938,-1.6132,0.0,0.0,0.0403,0.1308,0.1678,0.2275,0.3495,0.4264,0.5297,0.6943,0.8587,1.0059,1.1293,1.2107,1.2633,1.2878,1.2756,1.2638,1.265,1.2966,1.3168,1.328,1.3374,1.3475,1.3644,1.3205,1.2724,1.223,1.1998,1.1411,1.0574,1.044,0.9714,0.855,0.6888,0.5003,0.2922,0.1006,-0.1403,-0.4101,-0.5465,-0.677,-0.7921,0.0,0.0,0.0,0.0,0.0,0.0,0.0,0.0,0.0,0.0,0.0,0.0,0.0,0.0,0.0,0.0,0.0,0.0,0.0,0.0,0.0,0.0,0.0,0.0,0.0,0.0,0.0,0.0,0.0,0.0,0.0,-0.2439,-0.1803,-0.1332,-0.0784,-0.0471,-0.0862,-0.2113,-0.3049,-0.3441,-0.4384,-0.5018,-0.5018,-0.5018,-0.5018,-0.5018,-0.5015,-0.5093,-0.5093,-0.5246,-0.6321,-0.8156,-0.8304,-0.9286,-1.1111,-1.1111,-1.1111,-1.1111,-1.1111,-1.1111,-1.1111,-1.1706,-1.2445,-1.3244,-1.3962,-1.476,-1.5497,-1.5726,-1.5805,-1.5805,-1.5805,-1.5938,-1.6132,0.0,-0.0235,0.0571,0.1406,0.1742,0.2374,0.3793,0.4579,0.5648,0.7341,0.889,1.0255,1.1431,1.2056,1.2492,1.2662,1.283,1.2785,1.2402,1.29,1.3726,1.4873,1.4736,1.4637,1.4572,1.3997,1.3384,1.2732,1.2565,1.2147,1.1528,1.1591,1.0913,0.9635,0.8497,0.6732,0.4514,0.2607,-0.0127,-0.3285,-0.4786,-0.6445,-0.8005,-0.8259,-0.8717,-0.9182,-0.8947,-0.8868,-0.886,-0.9109,0.0,0.0,0.0,0.0,0.0,0.0,0.0,0.0,0.0,0.0,0.0,0.0,0.0,0.0,0.0,0.0,0.0,0.0,0.0,0.0,0.0,0.0,0.0,0.0,-0.2691,-0.2272,-0.1254,-0.0471,-0.0157,-0.0706,-0.1488,-0.2348,-0.3207,-0.399,-0.4621,-0.494,-0.5018,-0.5018,-0.5018,-0.5018,-0.5018,-0.5018,-0.5476,-0.6391,-0.7923,-0.8533,-0.9518,-1.0962,-1.1037,-1.1111,-1.1111,-1.1111,-1.1111,-1.1111,-1.1929,-1.2739,-1.3528,-1.4322,-1.5054,-1.5805,0.0,0.0,0.0,0.0,-1.607,-1.6482,0.0,-0.0269,0.0537,0.1373,0.1709,0.2341,0.3793,0.4877,0.5991,0.7325,0.8827,1.0172,1.1211,1.1561,1.1855,1.2244,1.2975,1.2912,1.1678,1.2823,1.4236,1.5749,1.5606,1.5182,1.4494,1.4168,1.3687,1.2974,1.2793,1.274,1.2832,1.2571,1.1888,1.0858,1.0058,0.8557,0.6463,0.4462,0.1225,-0.2693,-0.4164,-0.6108,-0.8212,-0.8683,-0.9039,-0.9148,-0.8711,-0.8591,-0.8676,-0.8558,0.0,0.0,0.0,0.0,0.0,0.0,0.0,0.0,0.0,0.0,0.0,0.0,0.0,0.0,0.0,0.0,0.0,0.0,0.0,0.0,0.0,0.0,0.0,0.0,-0.2657,-0.2349,-0.1019,-0.0314,0.0079,0.0,-0.0784,-0.1644,-0.2426,-0.3285,-0.4146,-0.4937,-0.5018,-0.5018,-0.5018,-0.5018,0.0,0.0,0.0,-0.6696,-0.7761,-0.8761,-0.975,-1.0812,-1.0962,-1.1111,-1.1111,-1.1111,-1.1111,-1.1186,-1.2077,-1.2806,-1.3528,-1.4394,-1.5125,-1.5805,-1.5805,-1.5805,-1.5805,-1.5867,-1.6281,-1.6899,0.0,-0.0269,0.0537,0.1373,0.1642,0.2239,0.3761,0.4946,0.6236,0.7838,0.9389,1.0774,1.1882,1.2201,1.2439,1.2754,1.3206,1.3836,1.4679,0.0,1.6191,1.5895,1.6047,1.5748,1.4976,1.4331,1.3855,1.3546,1.3355,1.3183,1.3038,1.3241,1.3116,1.2659,1.1898,1.0585,0.8849,0.7399,0.3502,-0.1909,-0.3782,-0.6114,-0.8521,-0.9173,-0.9609,-0.9846,-1.0154,-0.9987,-0.9719,-0.9818,-0.9029,-0.7904,-0.7396,-0.6744,0.0,0.0,0.0,0.0,0.0,0.0,0.0,0.0,0.0,0.0,0.0,0.0,0.0,0.0,0.0,0.0,0.0,0.0,0.0,-0.0684,-0.0697,-0.0706,-0.0471,0.0079,0.0393,0.0,-0.0784,-0.1644,-0.2426,-0.3285,-0.4146,-0.4937,-0.5018,-0.5018,-0.5018,-0.5018,-0.5018,-0.5018,-0.5783,-0.6696,-0.7761,-0.8609,-0.9679,-1.0812,-1.0812,0.0,-1.1111,-1.1111,-1.1111,-1.1186,-1.2652,-1.339,-1.3608,-1.4991,-1.5655,-1.5805,-1.5805,-1.5805,-1.5867,-1.6272,-1.6542,-1.6751,-0.1072,-0.0336,0.047,0.104,0.1545,0.2333,0.3734,0.4871,0.6173,0.7894,0.9209,1.0396,1.147,1.2018,1.2472,1.2921,1.3574,1.463,0.0,1.6298,1.6348,1.6585,1.6227,1.5691,1.5027,1.451,1.4102,1.375,1.3556,1.3451,1.3474,1.3731,1.3645,1.3232,1.2979,1.2149,1.0856,0.9706,0.6893,0.3072,0.1056,-0.0802,-0.3008,-0.8626,-1.0708,-1.0616,-1.0441,-1.0013,-0.945,-0.926,-0.8132,-0.6728,-0.626,-0.5588,-0.4893,0.0,0.0,0.0,0.0,0.0,0.0,0.0,0.0,0.0,0.0,0.0,0.0,0.0,0.0,-0.1007,-0.0665,0.0,-0.0531,-0.0077,-0.0467,-0.0549,0.0236,0.0236,0.0157,0.0157,-0.0235,-0.0862,-0.1801,-0.2659,-0.3521,-0.4304,-0.4779,-0.5018,-0.5018,-0.5018,-0.5018,-0.5018,-0.5783,-0.67,-0.7613,-0.8537,-0.9533,-1.0513,-1.0663,-1.0887,-1.0962,-1.1037,-1.1335,-1.1781,-1.2945,-1.3745,-1.4106,-1.5284,-1.5805,-1.5805,-1.5805,-1.5938,-1.6202,-1.6473,-1.695,-1.7501,-0.1255,-0.0477,0.0273,0.0717,0.1416,0.2399,0.3707,0.4792,0.6079,0.7772,0.8863,0.9874,1.0879,1.1606,1.2327,1.3175,1.4086,1.5312,0.0,1.6414,1.6319,1.7042,1.6287,1.5488,1.4759,1.4563,1.4265,1.3881,1.3745,1.3765,1.393,1.4259,1.4199,1.3826,1.3982,1.3746,1.3112,1.1897,1.0147,0.8054,0.6105,0.461,0.2627,-0.5824,-0.8883,-0.8542,-0.7997,-0.7658,-0.7349,-0.6867,-0.6076,-0.5171,-0.4645,-0.3984,-0.3395,-0.3335,-0.2681,0.0,0.0,0.0,0.0,0.0,0.0,0.0,0.0,-0.0896,-0.0632,-0.0284,-0.0145,-0.0074,0.0,0.0,0.0077,0.0234,-0.0313,-0.0392,0.0785,0.0393,0.0079,0.0393,0.0236,-0.0392,-0.141,-0.227,-0.3051,-0.3752,-0.4543,-0.5018,-0.5018,-0.5018,-0.5018,-0.5018,-0.5783,-0.6623,-0.7464,-0.8461,-0.9382,-1.0218,-1.0513,-1.0663,-1.0738,-1.1111,-1.1632,-1.2305,-1.3317,-1.4106,-1.4903,-1.5505,-1.5805,-1.5797,-1.5938,-1.6272,-1.6742,-1.6742,-1.7432,-1.8337,0.0,-0.0829,-0.0144,0.065,0.1306,0.2205,0.3692,0.4912,0.622,0.7719,0.8781,0.9829,1.0891,1.133,1.2274,1.401,1.4852,0.0,1.7036,1.7744,1.7586,1.6291,1.6287,1.564,1.4214,1.4213,1.4219,1.416,1.4253,1.4311,1.4357,1.5162,1.5577,1.5695,1.5722,1.598,1.6265,1.4541,1.1948,0.8832,0.718,0.5093,0.2862,0.1622,0.1075,0.0896,0.0452,-0.0569,-0.1688,-0.1522,-0.2459,-0.3667,-0.303,-0.2201,-0.1429,-0.1394,-0.0743,-0.0059,-0.0117,-0.0059,-0.0119,-0.0634,-0.019,0.019,0.0,-0.0349,-0.0071,-0.0816,-0.0976,-0.0758,-0.0155,0.0,0.0234,0.102,0.11,0.1099,0.1257,0.1178,0.1021,0.0864,-0.0078,-0.1175,-0.227,-0.3127,-0.3675,-0.383,-0.4543,-0.5018,-0.5018,-0.5018,-0.5018,-0.5018,-0.5783,-0.6623,-0.7464,-0.8313,-0.9231,-1.0218,-1.0218,-1.0368,-1.0588,-1.1484,-1.1929,-1.215,-1.3738,-1.4903,-1.5655,-1.5726,-1.5805,-1.5867,-1.6333,-1.6821,-1.7304,-1.7304,-1.7716,-1.8405,0.0,-0.1004,-0.0498,0.0316,0.1188,0.2142,0.3096,0.4505,0.5938,0.7212,0.8442,0.9554,1.0389,1.1512,1.273,1.4076,1.5169,1.6193,1.7028,1.7538,1.7594,1.7111,1.6833,1.6429,1.585,1.5986,1.6065,1.6065,1.6167,1.6214,1.6265,1.6674,1.6933,1.7046,1.7046,1.7162,1.7303,1.6303,1.527,1.4175,1.3046,1.222,1.1689,1.1666,1.1811,1.1254,0.5217,0.2693,0.0,0.3135,0.2995,0.266,0.3547,0.3633,0.3214,0.2158,0.1883,0.1811,0.1304,0.1518,0.1754,0.1302,0.1526,0.17,0.1354,0.1176,0.0991,0.0587,0.0449,0.0533,0.0859,0.0863,0.0863,0.1257,0.1335,0.1335,0.1335,0.1335,0.1021,0.0314,-0.0235,-0.0783,-0.1488,-0.2347,-0.3127,-0.3752,-0.4543,-0.5018,-0.5018,-0.5018,-0.5018,-0.5018,-0.5783,-0.6623,-0.7464,-0.8313,-0.9155,-0.9992,-1.0143,-1.0293,-1.0513,-1.1037,-1.1848,-1.2952,-1.4617,-1.5497,-1.5805,-1.5805,-1.5805,-1.5867,-1.6403,-1.6812,-1.7091,-1.7417,-1.7883,-1.8369,0.0,-0.1183,-0.0797,-0.0042,0.094,0.1872,0.2668,0.3987,0.5379,0.6784,0.7967,0.9107,1.0157,1.1597,1.2857,1.3736,1.5022,1.6118,1.6962,1.7367,1.7666,1.7853,1.7491,1.7238,1.7169,1.733,1.7441,1.7483,1.7543,1.7735,1.8045,1.8323,1.8579,1.8828,1.8802,1.8857,1.8903,1.8241,1.8267,1.8711,1.7992,1.8013,1.8489,1.8746,1.9176,1.8671,1.0889,0.7698,0.7276,0.7885,0.7766,0.7449,0.8077,0.7842,0.6957,0.5331,0.4405,0.3808,0.2987,0.3216,0.3532,0.322,0.3103,0.3035,0.3105,0.2551,0.2046,0.2028,0.1786,0.1675,0.1937,0.1641,0.1571,0.1961,0.1649,0.1414,0.1571,0.1414,0.1021,0.0235,0.0157,-0.0078,-0.0705,-0.1799,-0.2813,-0.3363,-0.4384,-0.5018,-0.5018,-0.5018,-0.5018,-0.5018,-0.5553,-0.6395,-0.7464,-0.808,-0.8851,-0.9922,-1.0007,-1.0157,-1.0368,-1.1031,-1.2352,-1.4194,-1.5292,-1.5805,-1.5805,-1.5805,-1.5807,-1.5913,-1.645,-1.6747,-1.6908,-1.7298,-1.7775,-1.8154,0.0,0.0,-0.1049,-0.0309,0.0447,0.1336,0.2612,0.3322,0.45,0.6531,0.7307,0.844,1.0475,1.142,1.2247,1.3076,1.4241,1.547,1.6725,1.7744,1.8199,1.7998,1.8162,1.7985,1.7397,1.7458,1.7562,1.7683,1.7762,1.8263,1.9175,1.9958,2.069,2.1381,2.1321,2.1578,2.1972,2.0667,2.0336,2.0678,2.0188,1.9875,1.9751,2.0602,2.1201,2.1316,1.8994,0.0,1.4036,1.2963,1.0859,0.858,0.8134,0.8355,0.8512,0.7344,0.6579,0.5964,0.535,0.5202,0.5131,0.4809,0.4293,0.3909,0.4039,0.3487,0.2954,0.2817,0.2229,0.2044,0.2795,0.2239,0.2119,0.3756,0.2508,0.1571,0.2354,0.1805,0.1257,0.1257,0.1257,0.0863,-0.0235,-0.2188,-0.3125,-0.2581,-0.4073,-0.5018,-0.5018,-0.5018,-0.5018,-0.5018,-0.5015,-0.586,-0.7464,-0.754,-0.8309,-0.9916,-0.9696,-0.9707,-0.9992,-1.1909,-1.389,-1.5726,-1.5805,-1.5805,-1.5805,-1.5805,-1.5852,-1.5959,-1.6579,-1.685,-1.6921,-1.7002,-1.7307,-1.7688,0.0,0.0,0.0,-0.0356,0.009,0.0583,0.1428,0.2708,0.4069,0.5475,0.7064,0.0,0.0,0.0,0.0,0.0,1.3631,1.4786,1.5922,1.7084,1.7949,1.8507,1.9029,1.9228,1.9126,1.9889,2.0313,2.0346,2.0918,2.1308,2.1528,2.1749,2.1913,2.2034,2.2048,2.1945,2.1676,2.1007,2.0904,2.1132,2.1191,2.1383,2.1764,2.2887,2.3344,2.3241,0.0,0.0,1.7466,1.74,1.5877,1.413,1.4874,1.429,1.2836,1.0466,0.912,0.8287,0.7715,0.7223,0.6764,0.6401,0.5823,0.5277,0.5057,0.4607,0.4207,0.3923,0.3564,0.3479,0.3819,0.3565,0.3452,0.3979,0.36,0.321,0.3365,0.2665,0.2119,0.2119,0.1649,0.11,0.0549,-0.0705,-0.1955,-0.3047,-0.3754,-0.4462,-0.4937,-0.5018,-0.5018,-0.5018,-0.5553,-0.6089,-0.6623,-0.7774,-0.8542,-0.9079,-0.9686,-1.0215,-1.0738,-1.2352,-1.3673,-1.4633,-1.5434,-1.6,-1.6342,-1.6342,-1.6378,-1.6561,-1.7091,-1.6968,-1.6495,-1.6848,-1.6953,-1.6839,0.0,0.0,0.0,0.0,0.0,0.0,0.0,0.0,0.0,0.0,0.0,0.0,0.0,0.0,0.0,0.0,0.0,1.4218,1.5339,1.639,1.7432,1.8467,1.9424,2.0051,2.0342,2.1456,2.2064,2.2166,2.2654,2.299,2.317,2.3364,2.3437,2.3428,2.3648,2.3432,2.2836,2.2585,2.2558,2.2721,2.2989,2.3344,2.3826,2.4553,2.4749,0.0,0.0,2.1876,1.9965,1.9956,1.897,1.7836,1.8533,1.7497,1.5563,1.3101,1.1666,1.0794,1.0157,0.9315,0.8537,0.8118,0.7454,0.6779,0.6538,0.6107,0.5664,0.5476,0.5173,0.5066,0.5649,0.514,0.4916,0.5889,0.4993,0.4222,0.4681,0.3752,0.2978,0.2978,0.2508,0.2038,0.1492,0.0784,-0.0391,-0.2267,-0.2891,-0.3599,-0.4384,-0.454,-0.4701,-0.5018,-0.5476,-0.6089,-0.6623,-0.7635,-0.8398,-0.8921,-0.9824,-1.0677,-1.1407,-1.267,-1.3541,-1.4301,-1.5233,-1.5851,-1.6188,-1.6324,-1.6486,-1.6638,-1.6948,-1.6765,-1.6306,-1.6681,-1.6519,-1.6156,0.0,0.0,0.0,0.0,0.0,0.0,0.0,0.0,0.0,0.0,0.0,0.0,0.0,0.0,0.0,0.0,0.0,0.0,1.4906,1.5701,0.0,1.7925,1.9326,2.0383,2.1022,2.2092,2.2789,2.3042,2.3038,2.3382,2.4078,2.4716,2.5143,2.5392,2.5924,2.5801,2.5226,2.5154,2.5129,2.512,2.5326,2.5533,2.566,2.5457,0.0,0.0,2.3349,2.2318,2.168,2.0727,2.0027,1.9503,1.9008,1.796,1.6639,1.5255,1.4261,1.344,1.2626,1.1552,1.052,0.9955,0.9085,0.838,0.8399,0.788,0.742,0.7565,0.703,0.6886,0.799,0.682,0.6552,0.917,0.6681,0.4916,0.6447,0.5065,0.3908,0.3908,0.383,0.3443,0.2666,0.2353,0.1489,-0.0313,-0.1487,-0.2501,-0.3359,-0.3673,-0.4146,-0.4937,-0.5018,-0.578,-0.7375,-0.7202,-0.7834,-0.9227,-1.0105,-1.1,-1.1915,-1.2783,-1.3686,-1.4574,-1.5121,-1.5393,-1.5513,-1.5955,-1.6196,-1.6226,-1.6226,-1.6335,-1.6384,-1.6353,-1.6084,-1.5784,0.0,0.0,0.0,0.0,0.0,0.0,0.0,0.0,0.0,0.0,0.0,0.0,0.0,0.0,0.0,0.0,0.0,0.0,1.3329,1.4459,0.0,1.7786,1.9054,2.031,2.1573,2.2749,2.3457,2.3661,2.4296,2.4707,2.4904,2.5072,2.5111,2.5038,2.5172,2.4979,2.4588,2.5153,2.483,2.4043,0.0,2.5098,2.4373,0.0,0.0,0.0,2.3288,2.3079,2.3135,2.1261,2.0646,2.0526,1.9563,1.9029,1.8416,1.6746,1.5879,1.5222,1.4214,1.3187,1.2224,1.1393,1.0977,1.0577,1.0003,0.9933,0.9945,0.9762,0.9332,0.9136,0.9587,0.9066,0.8798,0.9482,0.8827,0.8214,0.8376,0.6912,0.5758,0.5607,0.4525,0.3675,0.3521,0.2821,0.2196,0.1724,0.0,-0.172,-0.3281,-0.3437,-0.3988,-0.4937,-0.5018,-0.5126,-0.5478,-0.6434,-0.7839,-0.9486,-1.0197,-1.0791,-1.1423,-1.2345,-1.3338,-1.4263,-1.4786,-1.553,-1.6411,-1.6583,-1.6755,-1.6797,-1.6797,-1.665,-1.6332,-1.5991,-1.6011,-1.6223,0.0,0.0,0.0,0.0,0.0,0.0,0.0,0.0,0.0,0.0,0.0,0.0,0.0,0.0,0.0,0.0,0.0,0.0,0.0,1.3629,1.5061,1.7102,1.8717,2.0413,2.2243,2.3414,2.4186,2.456,0.0,0.0,2.4941,2.5339,2.5341,2.5034,2.5351,2.5252,2.4924,2.495,0.0,0.0,0.0,0.0,0.0,0.0,0.0,2.4611,2.308,2.2885,2.3185,2.2085,2.1917,2.2022,2.1094,2.0505,1.9886,1.8559,1.7566,1.6692,1.5636,1.4715,1.388,1.2897,1.2594,1.2256,1.134,1.1472,1.1728,1.1218,1.1206,1.1352,1.1654,1.1058,1.0707,1.1261,1.034,0.9674,0.9744,0.8519,0.7528,0.7456,0.6531,0.5687,0.4913,0.4448,0.3675,0.2588,0.1019,-0.0548,-0.1954,-0.2579,-0.3269,-0.4243,-0.4704,-0.515,-0.5614,-0.6873,-0.8132,-0.9416,-1.0272,-1.0895,-1.1209,-1.2207,-1.2871,-1.3427,-1.4247,-1.5052,-1.5785,-1.6315,-1.6607,-1.6757,-1.6757,-1.6601,-1.64,-1.6388,-1.639,-1.6488,0.0,0.0,0.0,0.0,0.0,0.0,0.0,0.0,0.0,0.0,0.0,0.0,0.0,0.0,0.0,0.0,0.0,0.0,0.0,0.0,0.0,1.6253,1.829,2.0431,2.2735,2.3814,2.4646,2.5264,2.4898,0.0,0.0,0.0,0.0,0.0,0.0,0.0,0.0,0.0,0.0,0.0,0.0,0.0,0.0,0.0,0.0,0.0,2.2692,2.2161,2.2407,2.2809,2.3232,2.3473,2.2756,2.1859,2.0918,2.0043,1.8968,1.7789,1.6801,1.6076,1.5373,1.4412,1.4088,1.3691,1.2539,1.2779,1.3076,1.2389,1.2816,1.3421,1.3717,1.288,1.2472,1.3484,1.1675,1.034,1.1007,1.0045,0.9226,0.9155,0.8927,0.8156,0.6685,0.63,0.5297,0.3132,0.1799,0.0704,-0.0235,-0.1326,-0.2386,-0.3308,-0.4341,-0.5403,-0.6607,-0.7572,-0.8434,-0.9157,-1.0272,-1.088,-1.1095,-1.1963,-1.241,-1.2542,-1.3597,-1.4224,-1.4588,-1.5526,-1.6124,-1.6374,-1.6374,-1.64,-1.6451,-1.6903,-1.6907,-1.6729,0.0,0.0,0.0,0.0,0.0,0.0,0.0,0.0,0.0,0.0,0.306,0.4154,0.0,0.0,0.0,0.0,0.0,0.0,0.0,0.0,0.0,1.6074,1.7714,1.9708,2.209,2.3029,2.3908,2.4655,2.4356,2.4608,0.0,0.0,0.0,0.0,0.0,0.0,0.0,0.0,0.0,0.0,0.0,0.0,0.0,0.0,0.0,0.0,2.1975,2.1698,2.1603,2.2329,2.3052,2.3508,2.2486,2.1657,2.0793,1.9665,1.8733,1.7963,1.7384,1.6969,1.6544,1.5749,1.5586,1.5271,1.3933,1.4185,1.461,1.4163,1.4204,1.4453,1.4841,1.4493,1.4173,1.4378,1.352,1.2792,1.2792,1.1452,1.0346,1.0062,0.9382,0.877,0.8313,0.6996,0.5992,0.5607,0.3454,0.1458,-0.0235,-0.0538,-0.1501,-0.3222,-0.4575,-0.5689,-0.6603,-0.7297,-0.8056,-0.8994,-0.9664,-1.0153,-1.0533,-1.1222,-1.1869,-1.2545,-1.2854,-1.3675,-1.4706,-1.4982,-1.5507,-1.6171,-1.6171,-1.6227,-1.6439,-1.6591,-1.6846,-1.7254,0.0,0.0,0.0,0.0,0.0,0.0,0.0,0.0239,0.0691,0.1357,0.2232,0.3337,0.4867,0.6082,0.6979,0.0,0.0,0.0,0.0,0.0,0.0,0.0,1.6839,1.8665,2.0542,2.124,2.1748,2.2053,0.0,2.2364,2.3103,2.3136,2.3508,2.41,2.3199,2.2608,2.221,2.0923,1.9794,1.8869,1.8919,1.9038,0.0,0.0,0.0,0.0,0.0,2.1353,2.1458,2.2245,2.2752,2.3015,2.2705,2.203,2.1138,2.0125,1.9207,1.8342,1.7602,1.7191,1.7001,1.7153,1.7011,1.6599,1.5856,1.5953,1.5976,1.508,1.5232,1.5535,1.573,1.5445,1.5251,1.5251,1.4609,1.4034,1.3954,1.2851,1.1977,1.1761,1.0875,1.0056,0.9533,0.8304,0.7114,0.6187,0.4242,0.2579,0.1229,0.0223,-0.1155,-0.3061,-0.3737,-0.4836,-0.6332,-0.6877,-0.7736,-0.8934,-0.9728,-1.0195,-1.0388,-1.1159,-1.1699,-1.2097,-1.2826,-1.3442,-1.3907,-1.4668,-1.511,-1.5355,-1.5683,-1.5871,-1.5985,-1.6689,-1.7271,-1.7812,0.0,0.0,0.0,0.0,0.0,0.0,0.0,0.0,0.0254,0.0979,0.1625,0.2693,0.4535,0.568,0.6549,0.0,0.0,0.0,0.0,0.0,0.0,0.0,0.0,1.7284,1.852,0.0,0.0,1.9734,1.9773,0.0,0.0,0.0,0.0,0.0,2.0432,1.9782,1.935,1.7797,1.7152,0.0,0.0,1.7037,0.0,0.0,0.0,0.0,0.0,2.0765,2.1177,2.1942,2.2332,2.2557,2.2767,2.2245,2.1378,2.0668,1.9726,1.8711,1.7854,1.7265,1.7135,1.8094,1.794,1.745,1.7237,1.7266,1.69,1.5586,1.5958,1.6474,1.6422,1.6336,1.6184,1.6044,1.5392,1.4895,1.4895,1.4099,1.3448,1.3448,1.2505,1.1545,1.0807,0.9707,0.8398,0.6674,0.491,0.3415,0.2233,0.0716,-0.0907,-0.2492,-0.2894,-0.3987,-0.5877,-0.6509,-0.7453,-0.8585,-0.9579,-1.0108,-1.0358,-1.0967,-1.1392,-1.1697,-1.272,-1.316,-1.3208,-1.4184,-1.4661,-1.4767,-1.5226,-1.5523,-1.5791,-1.6889,-1.764,-1.8226,0.0,0.0,0.0,0.0,0.0,0.0,0.0,-0.0101,0.0207,0.0827,0.1562,0.2402,0.3387,0.4624,0.554,0.0,0.0,0.0,0.0,0.0,0.0,0.0,0.0,0.0,0.0,0.0,0.0,1.9555,1.9249,0.0,0.0,0.0,0.0,0.0,0.0,1.8841,1.8525,1.5847,0.0,0.0,0.0,0.0,0.0,0.0,0.0,0.0,0.0,1.9659,2.0148,2.0882,2.1755,2.2425,2.2123,2.1633,2.116,2.0777,1.9822,1.8805,1.8419,1.7615,1.7119,1.7988,1.7841,1.7466,1.7234,1.724,1.6995,1.5978,1.6411,1.7007,1.6849,1.7207,1.7364,1.6899,1.6193,1.5692,1.5692,1.4966,1.4386,1.4235,1.381,1.323,1.2425,1.1082,0.9707,0.8377,0.5901,0.3517,0.134,0.0421,-0.0484,-0.1414,-0.2611,-0.3906,-0.515,-0.6442,-0.7291,-0.7615,-0.8343,-0.918,-1.006,-1.0091,-1.0746,-1.1874,-1.1992,-1.2488,-1.3214,-1.3332,-1.4053,-1.5081,-1.5143,-1.557,-1.6314,-1.6894,-1.7557,-1.8246,0.0,0.0,0.0,0.0,0.0,0.0,-0.0243,-0.0101,0.0105,0.0325,0.0941,0.1652,0.2556,0.36,0.4572,0.5216,0.0,0.0,0.0,0.0,0.0,0.0,0.0,0.0,0.0,0.0,1.5384,1.5167,1.5791,0.0,0.0,0.0,0.0,0.0,0.0,1.4944,1.4586,1.3113,0.0,0.0,0.0,0.0,0.0,0.0,0.0,0.0,0.0,0.0,1.9325,2.0057,2.0748,2.1283,2.1496,2.1515,2.1434,2.0988,2.0257,1.9476,1.9104,1.8366,1.8075,1.9613,1.9251,1.8714,1.943,1.8857,1.8045,1.7554,1.7445,1.7514,1.7813,1.8037,1.8037,1.7442,1.7157,1.6811,1.6542,1.6097,1.5658,1.5251,1.4799,1.4212,1.3375,1.1859,0.9896,0.7182,0.5888,0.4357,0.2456,0.1296,0.0068,-0.1142,-0.2151,-0.3482,-0.509,-0.5806,-0.6621,-0.7459,-0.8438,-0.9108,-0.9525,-1.0127,-1.0651,-1.1176,-1.1865,-1.2223,-1.2369,-1.3069,-1.3552,-1.3831,-1.4482,-1.4931,-1.5383,-1.6702,-1.755,-1.8172,0.0,0.0,0.0,0.0,0.0,-0.0385,-0.0295,-0.0103,0.0,0.0,0.0505,0.115,0.1778,0.2871,0.3843,0.4543,0.5549,0.0,0.0,0.0,0.0,0.0,0.0,0.0,0.0,0.0,1.2674,1.2353,1.3159,1.382,0.0,0.0,1.3568,1.3969,0.0,0.0,0.0,0.0,0.0,0.0,0.0,0.0,0.0,0.0,0.0,0.0,0.0,0.0,0.0,0.0,0.0,2.0025,2.0663,2.0978,2.1108,2.1054,2.0623,2.0033,1.9567,1.9005,1.898,2.0635,2.0117,1.9598,2.0908,1.9965,1.8742,1.8596,1.8339,1.824,1.8442,1.8633,1.8566,1.8037,1.7969,1.7765,1.7442,1.7139,1.6853,1.6655,1.593,1.5209,1.4514,1.2521,1.0092,0.722,0.641,0.5426,0.3951,0.2323,0.0728,-0.0729,-0.1469,-0.2765,-0.4499,-0.5086,-0.5866,-0.6887,-0.8193,-0.8961,-0.9253,-1.0006,-1.0585,-1.0946,-1.1834,-1.2111,-1.2129,-1.2957,-1.3333,-1.3382,-1.4154,-1.4641,-1.5119,-1.6539,-1.7471,-1.8016,0.0,0.0,0.0,0.0,0.0,0.0,-0.0421,-0.016,0.0,0.0,0.0529,0.0951,0.1103,0.2397,0.3505,0.3939,0.4888,0.0,0.0,0.0,0.0,0.0,0.0,0.0,0.0,0.0,1.2352,1.2517,1.2233,1.2249,1.2509,1.136,1.0989,1.1199,0.0,0.0,0.0,0.0,0.0,0.0,0.0,0.0,0.0,0.0,0.0,0.0,0.0,0.0,0.0,0.0,0.0,0.0,0.0,1.9819,2.0007,2.084,2.0806,2.0344,1.9687,1.9451,1.9613,2.0474,2.0003,1.964,2.0886,1.9909,1.8692,1.8596,1.8929,1.91,1.8576,1.89,1.91,1.8566,1.8509,1.8509,1.8499,1.8037,1.7901,1.8432,1.7157,1.6254,1.6271,1.3167,1.0574,0.9368,0.7748,0.6388,0.5536,0.3312,0.1474,0.0128,-0.0546,-0.167,-0.3202,-0.4284,-0.5104,-0.5615,-0.724,-0.8434,-0.9195,-0.9601,-1.0509,-1.1674,-1.1718,-1.2135,-1.2891,-1.2881,-1.344,-1.4305,-1.4305,-1.4983,-1.6061,-1.6596,-1.7237,-1.7884,0.0,0.0,0.0,0.0,0.0,0.0,0.0,-0.0166,0.0,0.0,0.018,0.0488,0.0922,0.2059,0.3055,0.3616,0.4704,0.0,0.0,0.0,0.0,0.0,0.0,0.0,0.0,0.0,0.9656,1.0695,1.067,1.101,1.171,1.1174,1.0913,1.0959,1.0415,1.0047,0.0,0.0,0.0,0.0,0.0,0.0,0.0,0.0,0.0,0.0,0.0,0.0,0.0,0.0,0.0,0.0,0.0,0.0,0.0,1.9903,1.9684,1.9609,2.0926,2.0666,2.0289,2.1366,2.086,2.0241,2.0934,1.9819,1.8912,1.9469,1.9477,1.9375,1.9528,1.9736,1.966,1.91,1.9034,1.89,1.8576,1.87,1.87,1.8509,1.7491,1.6594,1.5799,1.3912,1.206,1.0378,0.8692,0.721,0.6049,0.4358,0.2551,0.0622,-0.0839,-0.1947,-0.2799,-0.3689,-0.4495,-0.528,-0.6449,-0.7505,-0.8343,-0.8956,-0.9603,-1.0293,-1.1019,-1.1523,-1.181,-1.2939,-1.3573,-1.3926,-1.5007,-1.5613,-1.6091,-1.74,-1.8044,-1.8325,0.0,0.0,0.0,0.0,0.0,0.0,0.0,-0.0171,0.0,0.0,0.0,0.0251,0.0877,0.1913,0.2795,0.3612,0.4722,0.0,0.0,0.0,0.0,0.0,0.0,0.0,0.0,0.7424,0.8194,0.9624,0.955,0.9931,1.0844,1.0553,1.041,1.0502,1.0032,0.9691,0.0,0.0,0.0,0.0,0.0,0.0,0.0,0.0,0.0,0.0,0.0,0.0,0.0,0.0,0.0,0.0,0.0,0.0,0.0,0.0,1.9332,1.917,2.0782,2.0889,2.0725,2.1459,2.0978,2.0449,2.0924,1.9947,1.9208,1.9911,1.9868,1.9726,2.0009,2.0085,2.0009,1.966,1.9584,1.9518,1.9121,1.9243,1.9034,1.8307,1.7823,1.706,1.5675,1.4411,1.3019,1.1418,0.9468,0.7893,0.6732,0.5114,0.3418,0.1599,-0.0233,-0.1556,-0.2305,-0.3217,-0.4073,-0.4904,-0.6027,-0.7052,-0.7925,-0.8784,-0.9517,-1.0226,-1.0897,-1.146,0.0,-1.3132,-1.3705,-1.3984,-1.5375,-1.6008,-1.6314,-1.7796,-1.8345,-1.8469,0.0,0.0,0.0,0.0,0.0,0.0,0.0,-0.0174,0.0,0.0,0.0,0.0259,0.0972,0.1768,0.2737,0.3727,0.0,0.0,0.0,0.0,0.0,0.0,0.0,0.0,0.6432,0.6951,0.7793,0.9029,0.868,0.8985,0.9728,0.9492,0.9521,0.9819,0.9581,0.9538,0.0,0.0,0.0,0.0,0.0,0.0,0.0,0.0,0.0,0.0,0.0,0.0,0.0,0.0,0.0,0.0,0.0,0.0,0.0,0.0,0.0,0.0,0.0,2.037,2.0977,2.0934,2.0643,2.0427,2.0842,2.0132,0.0,1.9976,2.0085,2.0085,2.0085,2.0085,2.0085,2.0085,2.0085,2.0085,2.0085,1.9649,1.8967,1.7969,1.824,1.7794,1.5773,1.4616,1.3562,1.2382,1.0116,0.8361,0.7484,0.5715,0.4146,0.2794,0.106,-0.0447,-0.1734,-0.2796,-0.3688,-0.4463,-0.5869,-0.6945,-0.7871,-0.8876,-1.002,-1.115,-1.12,-1.1859,-1.2881,-1.346,-1.3984,-1.4449,-1.5609,-1.6327,-1.681,-1.7869,-1.8229,-1.8367,0.0,0.0,0.0,0.0,0.0,0.0,0.0,0.0,0.0,0.0,0.0,0.0067,0.0206,0.1557,0.2543,0.0,0.0,0.0,0.0,0.0,0.0,0.0,0.0,0.0,0.6744,0.6276,0.6656,0.803,0.7373,0.7487,0.83,0.825,0.8623,0.9402,0.9347,0.9668,0.0,0.0,0.0,0.0,0.0,0.0,0.0,0.0,0.0,0.0,1.2266,1.2887,0.0,0.0,0.0,0.0,0.0,0.0,0.0,0.0,1.8718,1.887,1.9652,0.0,2.0775,2.12,2.084,2.0369,0.0,1.986,1.9561,1.9976,2.0085,2.0085,2.0085,2.0085,2.0085,2.0085,2.0085,2.0085,2.0085,2.0009,1.966,1.8967,1.9044,1.8502,1.6853,1.5833,1.4671,1.3139,1.0925,0.9001,0.7654,0.6267,0.4887,0.3461,0.2062,0.0557,-0.1118,-0.2178,-0.3183,-0.4132,-0.5011,-0.615,-0.7444,-0.8435,-0.9422,-1.0474,-1.146,-1.2026,-1.244,-1.407,-1.4801,-1.5119,-1.6956,-1.7482,-1.7352,-1.8422,-1.8554,-1.8268,0.0,0.0,0.0,0.0,0.0,0.0,0.0,0.0,0.0,0.0,0.0,0.0275,0.0894,0.1869,0.0,0.0,0.0,0.0,0.0,0.0,0.0,0.0,0.0,0.5969,0.6485,0.5976,0.6242,0.7346,0.6846,0.6967,0.7617,0.7945,0.8529,0.9287,0.9749,1.0154,0.0,0.0,0.0,0.0,0.0,0.0,0.0,0.0,0.0,0.0,1.1337,1.2143,0.0,1.3554,1.4553,1.5624,0.0,0.0,0.0,0.0,1.885,1.9308,1.961,1.9997,2.0435,2.0756,2.0561,2.0236,2.0139,1.9878,1.9759,2.0031,2.0085,2.0085,2.0085,2.0085,2.0085,2.0085,2.0085,2.0085,2.0085,2.0085,1.9868,1.9375,1.912,1.8445,1.7242,1.5818,1.4523,1.3371,1.1391,0.9615,0.8199,0.7289,0.6128,0.4494,0.3279,0.1781,-0.0056,-0.1452,-0.2681,-0.3624,-0.4563,-0.5819,-0.7343,-0.8066,-0.9292,-1.0773,-1.1456,-1.2383,-1.3418,-1.45,-1.5158,-1.5612,-1.6953,-1.7303,-1.7147,-1.7965,-1.8236,-1.8228,0.0,0.0,0.0,0.0,0.0,0.0,0.0,0.0,0.0,0.0,0.0,0.0,0.0,0.0,0.0,0.0,0.0,0.0,0.0,0.0,0.0,0.0,0.0,0.5922,0.6027,0.5925,0.6126,0.6698,0.6569,0.6742,0.7256,0.7902,0.861,0.9362,1.0278,1.0701,0.0,0.0,0.0,0.0,0.0,0.0,0.0,0.0,0.0,0.0,0.0,0.0,0.0,1.296,1.4039,1.5195,1.6154,0.0,0.0,0.0,0.0,0.0,1.9378,1.9659,1.9987,2.0064,2.0031,1.9966,1.9966,1.9911,1.9857,1.9857,1.9911,1.9966,1.9966,2.0031,2.0085,2.0085,2.0085,2.0085,2.0085,2.0085,1.9911,1.9346,1.888,1.8226,1.7135,1.543,1.4128,1.3431,1.1903,1.037,0.8948,0.8438,0.7399,0.5684,0.4429,0.3,0.1339,-0.0726,-0.2233,-0.3118,-0.4278,-0.5701,-0.7289,-0.7865,-0.9231,-1.1223,-1.1436,-1.2608,-1.4395,-1.4753,-1.5224,-1.5806,-1.648,-1.6644,-1.6644,-1.7219,-1.7593,-1.7959,0.0,0.0,0.0,0.0,0.0,0.0,0.0,0.0,0.0,0.0,0.0,0.0,0.0,0.0,0.0,0.0,0.0,0.0,0.0,0.0,0.0,0.6227,0.6203,0.6139,0.603,0.6135,0.6077,0.5832,0.586,0.6106,0.6531,0.6658,0.7669,0.9357,1.002,1.0635,1.1033,0.0,0.0,0.0,1.1093,0.0,0.0,0.0,0.0,0.0,0.0,0.0,0.0,1.2546,1.3791,1.495,1.6017,0.0,0.0,0.0,0.0,0.0,1.8805,1.9157,1.9626,1.9976,1.977,1.9528,1.9528,1.9211,1.8916,1.8916,1.9244,1.9528,1.9528,1.9802,2.0085,2.0085,2.0085,2.0085,2.0085,2.0085,1.9922,1.9445,1.8967,1.818,1.6794,1.5982,1.5033,1.3838,1.2745,1.1419,0.9821,0.8901,0.7788,0.6298,0.5148,0.4103,0.3169,0.0,-0.2117,-0.3118,-0.4236,-0.5555,-0.7133,-0.78,-0.8958,-1.0524,-1.1648,-1.2324,-1.2659,-1.4584,-1.5261,-1.5191,-1.6714,-1.7015,-1.6644,-1.7219,-1.7171,-1.7032,0.0,0.0,0.0,0.0,0.0,0.0,0.0,0.0,0.0,0.0,0.0,0.0,0.0,0.0,0.0,0.0,0.0,0.0,0.0,0.0,0.0,0.6139,0.6135,0.6101,0.603,0.6017,0.5874,0.5589,0.5572,0.5894,0.6404,0.7476,0.8648,0.9852,1.048,1.0888,1.1105,1.0985,0.0,0.0,0.0,0.0,0.0,0.0,0.0,0.0,0.0,0.0,0.0,0.0,1.3599,1.4832,1.5984,0.0,0.0,0.0,0.0,0.0,1.8016,1.8779,1.9714,1.9692,1.9715,1.9812,1.9812,1.943,1.9157,1.9419,1.9441,1.9495,1.9693,1.9933,2.0085,2.0085,2.0085,2.0085,2.0085,1.9692,1.9277,1.9058,1.813,1.7164,1.6279,1.5531,1.4728,1.3882,1.302,1.1981,1.0655,0.9906,0.8954,0.7741,0.6096,0.5034,0.4648,0.1386,-0.0947,-0.2282,-0.368,-0.5171,-0.6745,-0.7278,-0.8836,-1.0997,-1.142,-1.2565,-1.4131,-1.4687,-1.5197,-1.5772,-1.6291,-1.6368,-1.6266,-1.7008,-1.7156,-1.7099,0.0,0.0,0.0,0.0,0.0,0.0,0.0,0.0,0.0,0.0,0.0,0.0,0.0,0.0,0.0,0.0,0.0,0.0,0.0,0.0,0.6053,0.5937,0.5897,0.5922,0.5928,0.5844,0.5698,0.5481,0.5437,0.5855,0.6671,0.8376,0.9575,1.0351,1.0816,1.1051,1.1111,1.1111,1.1111,0.0,0.0,0.0,0.0,0.0,0.0,0.0,0.0,0.0,0.0,0.0,0.0,0.0,0.0,0.0,0.0,1.6486,1.7102,1.7804,1.7467,1.8561,1.9666,1.9481,1.9794,2.0158,2.0094,1.972,1.9603,1.9916,1.972,1.9654,2.0081,2.0193,2.0172,2.0062,1.9976,1.9911,1.9911,1.9146,1.849,1.837,1.7267,1.6267,1.5712,1.515,1.4555,1.396,1.3333,1.2522,1.1396,1.0811,0.9907,0.877,0.7028,0.5896,0.539,0.2653,0.0382,-0.1376,-0.2865,-0.4487,-0.6106,-0.6591,-0.8199,-1.0708,-1.0862,-1.2352,-1.471,-1.447,-1.4996,-1.5951,-1.5768,-1.576,-1.5881,-1.6607,-1.7031,-1.7282,0.0,0.0,0.0,0.0,0.0,0.0,0.0,0.0,0.0,0.0,0.0,0.0,0.0,0.0,0.0,0.0,0.0,0.0,0.0,0.0,0.5473,0.5622,0.5575,0.5539,0.563,0.5739,0.5593,0.5165,0.5437,0.6173,0.7326,0.8415,0.94,1.0345,1.0622,1.0882,1.1111,1.1111,1.1111,1.1111,0.0,0.0,0.0,0.0,0.0,0.0,0.0,0.0,0.0,0.0,0.0,0.0,0.0,0.0,1.6954,1.6604,1.6898,1.7397,1.7611,1.8427,1.9295,1.9559,1.9984,2.03,2.0003,1.9814,1.9711,1.9746,1.9787,1.9958,2.0289,2.0511,2.0437,2.0001,1.9662,1.9473,1.9473,1.8654,1.789,1.7431,1.6874,1.6112,1.5241,1.5502,1.535,1.4399,1.4024,1.3204,1.1808,1.1087,0.9994,0.8457,0.7719,0.6611,0.5059,0.3205,0.1327,-0.0583,-0.1858,-0.3387,-0.5228,-0.5672,-0.6646,-0.8108,-0.9841,-1.0955,-1.1657,-1.3611,-1.451,-1.4697,-1.5435,-1.576,-1.5792,-1.5881,-1.6436,-1.7199,0.0,0.0,0.0,0.0,0.0,0.0,0.0,0.0,0.0,0.0,0.0,0.0,0.0,0.0,0.0,0.0,0.0,0.0,0.0,0.4377,0.4737,0.4746,0.5156,0.5421,0.537,0.5473,0.5329,0.5071,0.6176,0.7065,0.7712,0.9089,1.0037,1.0586,1.0846,1.1021,1.1111,1.1111,1.1111,1.1111,1.1111,0.0,0.0,0.0,0.0,0.0,0.0,0.0,0.0,0.0,1.2854,1.3808,1.5057,1.5631,1.5804,1.5681,1.5999,1.6444,1.6555,1.8002,1.9397,1.8939,1.9958,2.0981,2.0728,2.0156,1.9815,2.0519,2.0408,2.0255,2.0389,2.0175,1.9855,1.9481,1.9326,1.9144,1.896,1.8152,1.7486,1.73,1.6579,1.5836,1.517,1.5269,1.5105,1.4428,1.4063,1.3494,1.2701,1.1937,1.0964,0.9802,0.889,0.7701,0.6122,0.4646,0.2913,0.1036,-0.1263,-0.319,-0.4767,-0.5469,-0.7011,-0.918,-0.9901,-1.1158,-1.2774,-1.3545,-1.4337,-1.5051,-1.58,-1.6207,-1.6454,-1.6879,-1.7256,-1.7598,0.0,0.0,0.0,0.0,0.0,0.0,0.0,0.0,0.0,0.0,0.0,0.0,0.0,0.0,0.0,0.0,0.0,0.0,0.3019,0.3789,0.4296,0.438,0.4905,0.5164,0.5143,0.5228,0.5208,0.5087,0.6412,0.7428,0.8165,0.9438,1.0254,1.0731,1.0997,1.1111,1.1111,1.1111,1.1111,1.1111,1.1111,1.1111,0.0,0.0,0.0,0.0,0.0,0.0,0.0,0.0,1.2387,1.3302,1.4362,1.4722,1.4808,1.5059,1.5623,1.6201,1.6434,1.8152,1.9746,1.9125,2.0194,2.1428,2.1457,2.0663,2.0204,2.1265,2.1167,2.0805,2.0544,2.0228,1.9773,1.9249,1.9109,1.8932,1.8636,1.7677,1.7025,1.7014,1.6192,1.546,1.5112,1.5246,1.5061,1.4474,1.4174,1.3805,1.3218,1.2323,1.142,1.0646,0.9575,0.8431,0.7244,0.5882,0.4326,0.2583,0.0095,-0.1968,-0.369,-0.4888,-0.6614,-0.8734,-0.9509,-1.0919,-1.266,-1.3315,-1.4266,-1.5357,-1.602,-1.6441,-1.671,-1.7297,-1.7625,-1.7882,0.0,0.0,0.0,0.0,0.0,0.0,0.0,0.0,0.0,0.0,0.0,0.0,0.0,0.0,0.0,0.0,0.0,0.0,0.3551,0.3701,0.4079,0.4758,0.4758,0.4905,0.5127,0.5149,0.5163,0.502,0.5849,0.7164,0.8918,0.9167,0.9831,1.0737,1.0997,1.1105,1.1111,1.1111,1.1111,1.1111,1.1111,1.1111,0.0,0.0,0.0,0.0,0.0,0.0,0.0,0.0,1.1482,1.2277,1.3194,1.3768,1.4231,1.4996,1.5831,1.6787,1.7488,1.8992,2.0349,2.01,2.0748,2.1499,2.1981,2.1342,2.0933,2.1957,2.2078,2.1762,2.0921,2.0767,2.037,1.9474,1.9111,1.876,1.8452,1.7193,1.6361,1.6489,1.5686,1.5112,1.512,1.5552,1.5421,1.4496,1.4451,1.411,1.3228,1.2087,1.1176,1.065,0.9564,0.8716,0.8131,0.6787,0.5418,0.3983,0.251,0.0531,-0.1873,-0.3716,-0.5019,-0.5962,-0.8481,-0.9911,-1.0573,-1.2741,-1.4283,-1.5345,-1.6064,-1.6312,-1.6355,-1.671,-1.7256,-1.7868,0.0,0.0,0.0,0.0,0.0,0.0,0.0,0.0,0.0,0.0,0.0,0.0,0.0,0.0,0.0,0.0,0.0,0.0,0.1811,0.2377,0.3115,0.3925,0.4533,0.4874,0.5035,0.5217,0.5428,0.5597,0.6734,0.7787,0.8628,0.96,1.0355,1.0991,1.0882,1.0936,1.1111,1.1111,1.1111,1.1111,1.1111,1.1111,0.0,0.0,0.0,0.0,0.0,0.0,0.0,0.0,0.0,0.0,1.2284,1.3218,1.4107,1.4038,1.5175,1.6547,1.6448,1.7727,1.8975,1.8769,1.9655,2.0626,2.0828,2.0971,2.1161,2.1781,2.135,2.0914,2.0903,2.0618,2.0198,1.9707,1.9206,1.8806,1.8534,1.7742,1.7206,1.7254,1.7026,1.6729,1.6344,1.6432,1.6044,1.4963,1.4935,1.4476,1.3479,1.2807,1.2142,1.146,1.0872,0.9912,0.8617,0.787,0.6684,0.5109,0.3249,0.0791,-0.2167,-0.3093,-0.4656,-0.6742,-0.8396,-0.9941,-1.1506,-1.3718,-1.5149,-1.5981,-1.6293,-1.671,-1.7173,-1.7488,-1.7922,-1.8383,0.0,0.0,0.0,0.0,0.0,0.0,0.0,0.0,0.0,0.0,0.0,0.0,0.0,0.0,0.0,0.0,0.0,0.0,0.0,0.2494,0.3149,0.4015,0.4551,0.5018,0.5249,0.5424,0.5861,0.6496,0.7465,0.8267,0.889,0.9885,1.0556,1.0948,1.0791,1.081,1.096,1.1063,1.1111,1.1111,1.1111,1.1111,1.1093,0.0,0.0,0.0,0.0,0.0,0.0,0.0,0.0,0.0,1.1963,1.2832,1.3727,1.3911,1.5173,1.6505,1.6407,1.7679,1.8899,1.8737,1.9703,2.072,2.0939,2.123,2.1516,2.1738,2.1296,2.0947,2.1224,2.081,2.0244,1.9699,1.9431,1.9077,1.8425,1.8103,1.7877,1.765,1.7505,1.732,1.6866,1.6759,1.6386,1.5406,1.5191,1.4754,1.4038,1.3121,1.2535,1.2221,1.1395,1.0488,0.9512,0.8956,0.7781,0.6096,0.4886,0.2524,-0.0877,-0.2334,-0.4302,-0.6651,-0.8643,-1.0441,-1.2115,-1.3994,-1.5192,-1.5824,-1.638,-1.6808,-1.7144,-1.757,-1.7975,-1.8372,0.0,0.0,0.0,0.0,0.0,0.0,0.0,0.0,0.0,0.0,0.0,0.0,0.0,0.0,0.0,0.0,0.0,0.0,0.0,0.0,0.393,0.467,0.4893,0.5171,0.5559,0.5661,0.6335,0.7484,0.7938,0.8638,0.9577,1.0055,1.0508,1.0755,1.0731,1.0731,1.0767,1.0985,1.1075,1.1069,1.1051,1.1039,1.1039,1.0989,0.0,0.0,0.0,0.0,0.0,0.0,0.0,0.0,1.203,1.2645,1.3252,1.4204,1.5486,1.6655,1.7026,1.827,1.9499,1.949,2.0382,2.1348,2.1716,2.1783,2.1779,2.1681,2.1561,2.147,2.1548,2.1146,2.0466,1.9542,1.9685,1.9495,1.8338,1.8394,1.8365,1.78,1.7604,1.7329,1.7021,1.6918,1.6525,1.5876,1.5411,1.5042,1.4702,1.327,1.2589,1.2831,1.148,1.0725,1.0697,0.9942,0.8787,0.719,0.7024,0.5065,0.1533,-0.1402,-0.394,-0.6247,-0.9182,-1.1217,-1.2552,-1.3876,-1.4725,-1.5264,-1.6312,-1.6642,-1.6617,-1.7284,-1.7733,-1.8109,0.0,0.0,0.0,0.0,0.0,0.0,0.0,0.0,0.0,0.0,0.0,0.0,0.0,0.0,0.0,0.0,0.0,0.0,0.0,0.0,0.3962,0.4715,0.5087,0.5323,0.5559,0.5758,0.6367,0.7484,0.8148,0.8871,0.9836,1.0327,1.0773,1.1015,1.081,1.0834,1.1015,1.0864,1.0803,1.0785,1.058,1.0496,1.0449,0.9991,0.9812,0.0,0.0,0.0,0.0,0.0,0.0,0.0,1.1286,1.2485,1.3747,1.3765,1.5292,1.6847,1.6695,1.7603,1.86,1.8453,1.9462,2.065,2.1472,2.1559,2.1465,2.1493,2.0846,2.0369,2.0718,2.0557,2.0329,2.0103,2.002,1.9877,1.9612,1.9222,1.8917,1.8814,1.875,1.8664,1.8616,1.8125,1.7486,1.6768,1.6139,1.5414,1.4492,1.3905,1.3399,1.3109,1.2294,1.1689,1.1394,1.0619,0.9904,0.9248,0.7914,0.5925,0.3259,0.0643,-0.3311,-0.8198,-0.9982,-1.1921,-1.379,-1.4893,-1.5452,-1.574,-1.6418,-1.6775,-1.6956,-1.7545,-1.8252,-1.8959,0.0,0.0,0.0,0.0,0.0,0.0,0.0,0.0,0.0,0.0,0.0,0.0,0.0,0.0,0.0,0.0,0.0,0.0,0.0,0.4151,0.442,0.4841,0.5057,0.5323,0.5559,0.5712,0.6479,0.8093,0.844,0.9045,0.9916,1.0481,1.0791,1.0918,1.0779,1.0725,1.0737,1.0725,1.0719,1.0707,1.0568,1.0592,1.0629,1.0202,1.0132,1.0217,0.9661,0.0,0.0,0.0,0.0,0.0,0.0,0.0,1.3119,1.3498,1.4703,1.5984,1.6373,1.7225,1.8109,1.8577,1.9682,2.0707,2.1199,2.112,2.1036,2.1211,2.0684,2.0247,2.0388,2.0351,2.0288,2.0145,2.0222,2.0123,1.9638,1.9642,1.9603,1.9376,1.9551,1.9603,1.9339,1.8871,1.8287,1.7522,1.6679,1.5881,1.5197,1.4498,1.3939,1.3544,1.2982,1.2531,1.2176,1.1387,1.0778,1.0414,0.9252,0.6977,0.3647,-0.0171,-0.3609,-0.6652,-0.9598,-1.1512,-1.2731,-1.4769,-1.5644,-1.5758,-1.6426,-1.6741,-1.6916,-1.7558,-1.8094,-1.8588,0.0,0.0,0.0,0.0,0.0,0.0,0.0,0.0,0.0,0.0,0.0,0.0,0.0,0.0,0.0,0.0,0.0,0.0,0.0,0.4798,0.4912,0.5012,0.5015,0.5249,0.5559,0.5637,0.6633,0.8703,0.8703,0.918,1.0203,1.0545,1.0791,1.0791,1.0791,1.0671,1.0478,1.0647,1.0719,1.0719,1.0671,1.0779,1.0954,1.0634,1.0633,1.0718,0.9884,1.0109,1.0812,1.0519,0.0,0.0,0.0,0.0,1.2294,1.331,1.4115,1.4945,1.6182,1.7002,1.786,1.9147,2.0146,2.0819,2.0925,2.0716,2.0593,2.091,2.0588,2.0306,2.0274,2.0217,2.0142,1.9972,2.0309,2.0266,1.942,1.994,2.0239,1.9849,2.0208,2.0326,1.9939,1.9421,1.8857,1.8254,1.7106,1.6366,1.6184,1.5213,1.4592,1.4355,1.3815,1.3406,1.3124,1.233,1.1807,1.1514,1.0555,0.8079,0.4215,-0.0855,-0.3601,-0.4661,-0.8534,-1.0649,-1.1504,-1.4127,-1.5333,-1.5579,-1.6376,-1.6645,-1.6692,-1.7585,-1.7948,-1.8147,0.0,0.0,0.0,0.0,0.0,0.0,0.0,0.0,0.0,0.0,0.0,0.0,0.0,0.0605,0.0,0.0,0.0,0.0,0.4729,0.0,0.0,0.5015,0.5168,0.5401,0.5559,0.5786,0.6784,0.8703,0.8703,0.9561,1.1313,1.1115,1.1057,1.1057,1.1057,1.1039,1.0997,1.0803,1.0719,1.0701,1.0472,1.0399,1.0383,0.9846,0.9712,0.9694,0.9803,0.9965,1.0143,1.0738,1.0887,0.0,0.0,0.0,1.2219,1.331,1.4115,1.4945,1.6182,1.708,1.8025,1.9562,1.9957,2.0118,2.0664,2.0668,2.0484,2.0438,1.9964,1.9641,1.999,1.9918,1.9768,1.9752,2.0076,2.0292,2.0166,2.0494,2.0728,2.0646,2.0958,2.1134,2.1086,1.9881,1.9061,1.8965,1.7472,1.6659,1.685,1.6235,1.593,1.6065,1.5228,1.4659,1.4443,1.3775,1.3513,1.367,1.1198,0.9138,0.733,0.2811,-0.17,-0.5963,-0.7036,-0.9538,-1.2853,-1.3521,-1.4315,-1.5167,-1.6086,-1.6322,-1.6342,-1.7838,-1.863,-1.8974,0.0,0.0,0.0,0.0,0.0,0.0,0.0,0.0,0.0,0.0,0.0,0.0,0.0,0.0303,0.0,0.0,0.0,0.0,0.4654,0.4847,0.0,0.0,0.5054,0.5249,0.5559,0.5712,0.6483,0.8016,0.8475,0.9357,1.0614,1.0946,1.1196,1.1341,1.1184,1.1033,1.0882,1.0767,1.0719,1.0713,1.0592,1.0635,1.0689,1.0292,1.0294,1.0319,0.9712,0.9823,1.0284,1.0064,1.023,1.0478,1.0673,0.0,0.0,0.0,1.3003,1.4153,1.5685,1.6684,1.7512,1.8313,1.9172,1.9901,2.0359,2.0395,2.0448,2.0599,2.0085,1.9622,1.9811,1.9775,1.9833,2.0239,2.0444,2.0662,2.0828,2.0991,2.115,2.1355,2.146,2.1595,2.179,2.0582,1.9721,1.9565,1.8104,1.7215,1.7216,1.6834,1.657,1.647,1.6037,1.566,1.5418,1.4829,1.4114,1.3244,1.2454,1.0754,0.8262,0.6753,0.3121,-0.2103,-0.6073,-0.8942,-1.1051,-1.3619,-1.5247,-1.616,-1.6578,-1.7089,-1.7712,-1.8489,-1.9163,-1.9707,0.0,0.0,0.0,0.0,0.0,0.0,0.0,0.0,0.0,0.0,0.0,0.0,0.0606,0.0,0.0,0.0,0.0,0.0,0.4607,0.0,0.0,0.0,0.0,0.514,0.5559,0.5637,0.6328,0.7787,0.8394,0.9266,1.0312,1.0848,1.1262,1.1516,1.1238,1.1003,1.0816,1.0816,1.0816,1.0816,1.0816,1.0936,1.1087,1.0894,1.0942,1.0983,0.9935,1.0099,1.0545,0.9564,0.9706,1.0194,0.9995,1.0085,0.0,0.0,0.0,1.3726,1.5224,1.6242,1.6955,1.7335,1.8566,1.9798,2.0131,2.0254,2.0429,2.0837,2.0244,1.9762,1.996,1.9995,2.0204,2.0844,2.0958,2.1039,2.1276,2.1446,2.1628,2.1853,2.2005,2.2141,2.2412,2.1393,2.0539,2.0164,1.9058,1.8229,1.788,1.7846,1.7716,1.7394,1.7397,1.7171,1.6696,1.6103,1.4994,1.3485,1.3875,1.2601,0.98,0.9658,0.7165,0.2589,-0.3303,-0.7064,-0.9289,-1.2487,-1.4833,-1.6439,-1.6632,-1.737,-1.8371,-1.8904,-1.9498,-2.0062,0.0,0.0,0.0,0.0,0.0,0.0,0.0,0.0,0.0,0.0,0.0,0.0,0.2269,0.302,0.3405,0.3369,0.0,0.0,0.0,0.0,0.0,0.0,0.0,0.0,0.5556,0.5637,0.6637,0.8627,0.8703,0.9647,1.1426,1.1238,1.1262,1.1516,1.1238,1.1105,1.1093,1.1093,1.1093,1.1093,1.1093,1.1099,1.1111,1.1093,1.1099,1.1105,1.1007,1.0845,1.0569,0.9908,0.981,0.9819,0.9332,0.9497,1.0008,0.0,0.0,0.0,1.502,1.5884,1.674,1.7279,1.8405,1.9579,2.0067,2.0254,2.0429,2.0837,2.0244,1.9925,2.0613,2.0761,2.0877,2.1293,2.1308,2.1308,2.1386,2.1836,2.2164,2.2164,2.2678,2.3042,2.3042,2.2294,2.1522,2.0815,2.0448,1.9907,1.9144,1.9815,2.0093,1.9816,2.0069,1.9675,1.8557,1.7783,1.6865,1.5837,1.5338,1.4492,1.3245,1.0733,0.857,0.6607,0.2754,-0.2679,-0.8835,-0.8852,-1.1242,-1.4971,-1.568,-1.6336,-1.7118,-1.8833,-1.9543,-1.9737,0.0,0.0,0.0,0.0,0.0,0.0,0.0,0.0,0.0,0.0,0.0,0.0,0.0,0.2858,0.3203,0.3538,0.4198,0.0,0.0,0.0,0.0,0.0,0.0,0.0,0.0,0.5637,0.6328,0.794,0.847,0.9276,1.0503,1.0935,1.1166,1.1256,1.1154,1.1111,1.1111,1.126,1.126,1.1335,1.1409,1.1409,1.1242,1.1071,1.0931,1.0816,1.0478,1.0405,1.0371,0.9996,0.9888,0.9874,0.9667,0.9688,0.9989,1.0989,1.2151,1.3243,1.3923,1.5108,1.6275,1.681,1.8167,1.9527,2.0067,2.0805,2.1241,2.095,2.0978,2.1061,2.1103,2.0974,2.1055,2.1615,2.1735,2.1895,2.2303,2.2537,2.2704,2.2822,2.3183,2.3427,2.3427,2.2844,2.2311,2.1875,2.1256,2.0721,2.0241,2.0508,2.0603,2.0524,2.062,2.0197,1.9282,1.8817,1.7846,1.6387,1.6577,1.5729,1.3893,1.2943,1.1233,0.8855,0.5991,0.0259,-0.7179,-0.8733,-1.1779,-1.5451,-1.5492,-1.6665,-1.8332,-1.8846,-1.9682,-2.0601,0.0,0.0,0.0,0.0,0.0,0.0,0.0,0.0,0.0,0.1723,0.0,0.0,0.0,0.0,0.3874,0.4084,0.4502,0.4762,0.4607,0.4683,0.0,0.0,0.0,0.0,0.0,0.5591,0.6252,0.7391,0.8218,0.9011,0.9685,1.0656,1.1063,1.0979,1.0979,1.1033,1.1111,1.126,1.1335,1.1335,1.1484,1.1428,1.1181,1.1075,1.0808,1.0544,1.0125,1.0054,1.0101,0.972,0.9675,0.9742,0.9466,0.9616,1.0047,1.0919,1.1841,1.2634,1.3321,1.4569,1.5806,1.6415,1.7775,1.9137,1.9901,2.0752,2.1397,2.1268,2.1323,2.1455,2.1617,2.1311,2.1323,2.2096,2.233,2.2556,2.2958,2.3153,2.3277,2.3419,2.3702,2.3886,2.3886,2.3584,2.318,2.2738,2.2464,2.2058,2.1444,2.1756,2.1899,2.1793,2.1476,2.0958,2.0243,1.9738,1.8733,1.7317,1.7451,1.6676,1.5096,1.4694,1.3037,1.0376,0.8536,0.3262,-0.4199,-0.7191,-1.052,-1.3893,-1.4658,-1.6205,-1.8087,-1.8489,-1.9316,-2.0351,0.0,0.0,0.0,0.0,0.0,0.0,0.0,0.0,0.1723,0.2662,0.0,0.0,0.0,0.0,0.0,0.5142,0.5026,0.4954,0.4731,0.4734,0.0,0.0,0.0,0.0,0.5556,0.5654,0.6172,0.7204,0.8088,0.8789,0.9303,1.0493,1.0966,1.0719,1.0719,1.0858,1.1087,1.1087,1.1093,1.1099,1.1323,1.1089,1.0707,1.0922,1.0685,1.0315,1.0309,1.0077,0.9801,0.9181,0.9162,0.9438,0.8765,0.921,1.0104,1.0773,1.1703,1.2634,0.0,0.0,0.0,1.614,1.7158,1.8293,1.9527,2.0175,2.0781,2.1715,2.1245,2.1014,2.2096,2.1842,2.1781,2.2721,2.3056,2.323,2.33,2.3656,2.3905,2.3905,2.4264,2.4505,2.4505,2.4505,2.4185,2.3397,2.4054,2.3965,2.2718,2.3638,2.4096,2.3816,2.2841,2.2067,2.155,2.053,1.961,1.8732,1.7988,1.7426,1.706,1.5851,1.3847,1.1273,1.0526,0.6501,0.0174,-0.3621,-0.7074,-1.0168,-1.2984,-1.4829,-1.6114,-1.7727,-1.8406,-1.8823,0.0,0.0,0.0,0.0,0.0,0.0,0.0,0.1254,0.2348,0.0,0.0,0.0,0.5559,0.5637,0.5541,0.5269,0.5393,0.533,0.5007,0.5086,0.5112,0.5055,0.4991,0.5212,0.5559,0.56,0.6132,0.7204,0.801,0.8787,0.9608,1.0399,1.0791,1.0719,1.0719,1.0653,1.0544,1.0685,1.0867,1.1046,1.1263,1.1028,1.0645,1.0715,1.041,0.9958,0.9766,0.9772,0.9874,0.9661,0.9811,1.0012,0.962,0.9693,0.9862,1.011,1.0856,1.1787,1.2458,0.0,0.0,0.0,0.0,0.0,1.9475,2.0377,2.1123,2.1757,2.2185,2.2302,2.1995,2.2408,2.2685,2.2446,2.2781,2.314,2.3346,2.3631,2.3941,2.4229,2.4353,2.4474,2.4642,2.4639,2.4529,2.4254,2.4441,2.4396,2.4001,2.4118,2.4096,2.3876,2.3554,2.3064,2.2383,2.151,2.0585,1.9627,1.8653,1.7941,1.7402,1.616,1.5023,1.3946,1.1329,0.9133,0.6919,0.1441,-0.4211,-0.9565,-1.125,-1.3606,-1.6349,-1.8298,-1.9046,-1.9244,0.0,0.0,0.0,0.0,0.0,0.0157,0.0471,0.1723,0.2817,0.0,0.0,0.0,0.587,0.587,0.5792,0.5553,0.5634,0.56,0.529,0.5357,0.5343,0.5208,0.5278,0.5396,0.5625,0.5645,0.6051,0.6693,0.7419,0.8173,0.9052,0.9768,1.0272,1.055,1.0441,1.0369,1.0315,1.0165,1.0416,1.0863,1.1078,1.0916,1.0453,1.0411,1.0135,0.9688,0.9538,0.958,0.9712,0.9712,0.9808,0.991,0.976,0.9734,0.9804,0.9804,1.0491,1.1365,1.1787,1.2879,1.4154,1.5148,0.0,0.0,1.8608,1.9517,2.0401,2.1379,2.1728,2.1948,2.2269,2.2742,2.2942,2.2559,2.3,2.3385,2.3468,2.3801,2.4118,2.4441,2.4556,2.47,2.4898,2.4912,2.4898,2.4851,2.4851,2.476,2.4522,2.432,2.4078,2.3876,2.3816,2.3451,2.2727,2.2238,2.1366,2.0118,1.9175,1.8404,1.772,1.6715,1.5881,1.5184,1.3188,1.148,0.9814,0.5466,0.0709,-0.4179,-0.8305,-1.0798,-1.2518,-1.6312,-1.7653,-1.7889,0.0,0.0,0.0,0.0,0.0079,0.0392,0.1176,0.2271,0.3285,0.0,0.5312,0.6022,0.6261,0.6338,0.618,0.5941,0.5941,0.5867,0.5634,0.5637,0.5576,0.5439,0.5591,0.5657,0.5699,0.5755,0.5901,0.6006,0.6656,0.7291,0.8009,0.8829,0.9586,1.0134,0.9976,1.0055,1.0143,0.9712,0.9928,1.0635,1.0777,1.0637,1.026,1.0166,0.9909,0.9484,0.9484,0.9484,0.9484,0.9514,0.9508,0.949,0.952,0.9637,0.974,0.974,1.0428,1.1178,1.124,1.222,1.3442,1.4034,1.5138,0.0,1.7357,1.8124,1.9036,2.0611,2.0555,2.0749,2.254,2.2793,2.2786,2.2946,2.3502,2.385,2.3603,2.3945,2.43,2.4559,2.476,2.4947,2.5168,2.5199,2.518,2.5191,2.5191,2.5006,2.4538,2.4355,2.4116,2.3837,2.3726,2.3397,2.2835,2.2654,2.1894,2.0572,1.9735,1.8905,1.8121,1.7427,1.6538,1.5545,1.5387,1.3533,1.0474,0.8607,0.6116,0.2679,-0.5308,-0.7684,-0.7401,-1.3579,-1.5659,-1.5848,0.0,0.0,0.0,0.0,0.0549,0.1176,0.1489,0.2818,0.4066,0.4608,0.555,0.6257,0.6261,0.6338,0.618,0.5941,0.6099,0.6103,0.5864,0.5864,0.58,0.5657,0.5609,0.5569,0.5564,0.5754,0.5832,0.5844,0.6535,0.7011,0.7216,0.8447,0.9045,0.9181,0.9685,0.9784,0.964,0.9748,0.9886,1.0091,1.0091,1.0061,1.0013,0.9959,0.9777,0.9484,0.9484,0.9484,0.9514,0.9724,0.9658,0.952,0.973,0.9717,0.9548,0.9548,0.9862,1.0358,1.0899,1.1469,1.2274,1.3786,1.4382,0.0,1.7124,1.7688,1.8189,1.9441,2.0342,2.098,2.122,2.2214,2.3101,2.3266,2.3814,2.4019,2.3454,2.3584,2.3925,2.4459,2.4543,2.4719,2.5082,2.5126,2.5151,2.521,2.5191,2.5051,2.4673,2.4575,2.4355,2.3958,2.328,2.3131,2.3578,2.2347,2.1912,2.22,2.078,1.9694,1.8935,1.8145,1.738,1.6554,1.573,1.4592,1.3181,1.0873,0.659,0.0817,-0.5832,-0.8618,-0.9734,-1.616,-1.7532,-1.657,-0.0079,0.0,0.0157,0.0549,0.1019,0.1645,0.2662,0.3675,0.4533,0.5234,0.5864,0.6338,0.6338,0.6338,0.6261,0.6099,0.6257,0.6257,0.6099,0.6099,0.6,0.5775,0.569,0.5635,0.5563,0.5699,0.5735,0.58,0.6086,0.6506,0.6999,0.7817,0.8523,0.9086,0.9519,0.9676,0.9676,0.9676,0.9754,0.9874,0.9874,0.994,1.0062,0.9921,0.9792,0.9676,0.9676,0.9612,0.9502,0.9634,0.9391,0.9104,0.9569,0.9385,0.9017,0.9017,0.9408,0.9919,0.9888,1.0584,1.1725,1.294,1.3726,0.0,0.0,1.6574,1.7114,1.8258,1.8765,1.9419,2.0694,2.1312,2.1874,2.2629,2.3195,2.3533,2.3545,2.4218,2.4791,2.5022,2.5427,2.5843,2.6205,2.5912,2.5565,2.5229,2.5191,2.5051,2.4673,2.4591,2.4372,2.3958,2.3497,2.3376,2.3664,2.2973,2.2533,2.2299,2.097,2.0027,1.9347,1.8095,1.7427,1.7247,1.6322,1.5488,1.4546,1.2051,0.8848,0.4932,-0.1199,-0.4826,-0.7313,-1.3197,-1.5541,-1.6097,0.0,0.0,0.0314,0.1176,0.1488,0.2192,0.391,0.4453,0.4999,0.5864,0.618,0.6338,0.6338,0.6338,0.6338,0.6338,0.6338,0.6338,0.6338,0.6338,0.6135,0.5857,0.5844,0.5766,0.5593,0.5616,0.5688,0.58,0.5657,0.608,0.6999,0.7346,0.8096,0.9264,0.953,0.9748,0.9928,0.967,0.9807,1.0128,1.0073,1.0085,1.011,0.9903,0.9804,0.974,0.974,0.9612,0.9484,0.9484,0.9151,0.8818,0.935,0.9151,0.8689,0.8689,0.9145,0.9472,0.9005,0.9857,1.0961,1.1888,1.2943,1.3996,0.0,0.0,0.0,1.6907,1.7,1.7594,1.9859,1.9931,2.0174,2.1783,2.2229,2.2692,2.3553,2.4881,2.5763,2.58,2.6433,2.7008,2.7346,2.6887,2.6168,2.5213,2.5313,2.5203,2.4642,2.454,2.4318,2.3937,2.3712,2.3587,2.3553,2.3523,2.2909,2.1761,2.0923,2.0096,1.9216,1.7916,1.7443,1.762,1.7003,1.6242,1.5314,1.3192,1.1492,0.9634,0.3317,-0.0404,-0.2944,-0.9411,-1.2492,-1.3949,0.0,0.0,0.0314,0.1176,0.2035,0.3051,0.4217,0.5154,0.5864,0.618,0.6261,0.6338,0.6338,0.6338,0.6338,0.6338,0.6338,0.6338,0.6338,0.6338,0.6183,0.601,0.6003,0.5874,0.5596,0.5711,0.5786,0.58,0.5657,0.608,0.694,0.7491,0.8155,0.8956,0.981,1.026,1.0266,0.994,1.0302,1.1028,1.0816,1.0419,0.991,0.9839,0.9676,0.9548,0.9548,0.9548,0.9484,0.9484,0.942,0.9414,0.9484,0.942,0.9414,0.9414,0.9139,0.8935,0.9536,0.9292,0.9334,1.0975,1.1806,1.2545,1.4004,0.0,1.53,1.534,0.0,1.7025,1.7316,0.0,0.0,2.1367,2.1291,2.1445,2.2959,2.4577,2.5858,2.6489,2.6668,2.6879,2.7285,2.7442,2.6829,2.5075,2.5767,2.5767,2.465,2.458,2.4392,2.3996,2.3285,2.3189,2.3774,2.2916,2.2075,2.1271,2.1098,1.9974,1.8012,1.835,1.81,1.7455,1.7528,1.6873,1.5738,1.5371,1.3335,0.9748,0.2368,0.0912,0.1647,-0.9108,-1.0782,-0.8763,0.0,0.0,0.0471,0.188,0.2506,0.3363,0.4999,0.5783,0.618,0.6261,0.6338,0.6338,0.6338,0.6338,0.6338,0.6338,0.6335,0.6349,0.6345,0.6339,0.6278,0.604,0.603,0.5891,0.5596,0.5647,0.5637,0.5545,0.5488,0.5891,0.6627,0.7288,0.8115,0.9193,0.9775,1.0119,1.0321,1.0212,1.019,1.029,1.084,1.0762,1.0451,1.0595,1.0203,0.9631,0.9923,0.9568,0.904,0.919,0.8988,0.8765,0.9302,0.9215,0.8823,0.8431,0.8689,0.9075,0.856,0.876,0.9365,1.0705,1.1167,1.1727,1.3288,1.3756,1.4077,1.468,0.0,0.0,0.0,0.0,0.0,0.0,1.9665,2.0261,2.1591,2.3247,2.476,2.5913,2.7004,2.7695,2.7699,2.7911,2.7487,2.6172,2.6136,2.5865,2.517,2.4634,2.4229,2.3937,2.359,2.3469,2.3602,2.2744,2.1998,2.1411,2.0494,1.9538,1.8591,1.7993,1.7664,1.7545,1.7215,1.6862,1.6454,1.5915,1.4592,1.2411,0.7754,0.3986,0.036,-0.6449,-0.929,-1.0634,0.0,0.0156,0.0784,0.2193,0.2895,0.383,0.5709,0.618,0.6338,0.6338,0.6338,0.6338,0.6338,0.6338,0.6338,0.6338,0.639,0.6413,0.6349,0.6393,0.6359,0.6105,0.6054,0.5928,0.5715,0.5671,0.5593,0.5484,0.5443,0.5818,0.6473,0.7202,0.8101,0.9247,0.9828,1.0287,1.0534,1.0604,1.0594,1.0611,1.1447,1.168,1.1509,1.1319,1.0663,0.9986,1.0073,0.9485,0.8705,0.8957,0.8699,0.8483,0.9178,0.9087,0.8689,0.8107,0.8516,0.8937,0.8156,0.8458,0.9218,1.0246,1.0677,1.1106,1.2313,1.2603,1.2911,1.3942,1.3578,0.0,0.0,0.0,1.5236,1.7087,0.0,1.8667,2.0147,2.1743,2.3478,2.5382,2.7312,2.83,2.788,2.8294,2.811,2.6935,2.6687,2.626,2.5483,2.4854,2.4316,2.3917,2.3837,2.362,2.3164,2.2513,2.1688,2.0655,1.9384,1.8659,1.837,1.7356,1.7129,1.7482,1.7069,1.6952,1.6942,1.6235,1.5548,1.4692,1.2509,0.7867,0.1877,-0.263,-0.6344,-0.9824,0.0,0.0694,0.1332,0.1568,0.3127,0.4763,0.6103,0.6261,0.6338,0.6338,0.6338,0.6338,0.6338,0.6338,0.6338,0.6338,0.639,0.6413,0.6349,0.6393,0.6407,0.6257,0.6108,0.6023,0.6017,0.5871,0.5793,0.5786,0.565,0.592,0.6591,0.7405,0.816,0.8934,1.0178,1.0839,1.108,1.1416,1.2166,1.3116,1.3166,1.3338,1.3218,1.1608,1.0823,1.0467,0.9728,0.9097,0.8681,0.8687,0.8855,0.9064,0.9076,0.9262,0.9484,0.9414,0.8851,0.8329,0.9215,0.8601,0.81,0.9472,1.0135,1.0509,1.0809,1.1397,1.2059,1.2884,1.2716,1.2696,1.3659,1.316,1.3403,1.593,1.5823,0.0,0.0,2.0366,2.2354,2.5238,2.7441,2.8372,2.7515,2.8602,2.8633,2.6833,2.7587,2.7308,2.5419,2.5289,2.4862,2.3915,2.3896,2.3412,2.2346,2.2051,2.0705,1.8291,1.7789,1.7153,1.6403,1.6619,1.6814,1.7052,1.7482,1.7412,1.6993,1.6686,1.6212,1.5548,1.4498,1.2546,0.9447,0.2182,-0.1026,-0.2817,0.0,0.1233,0.2348,0.2581,0.3203,0.4297,0.6025,0.6338,0.6224,0.6122,0.6196,0.6183,0.5979,0.6139,0.622,0.6115,0.6332,0.6413,0.6349,0.6305,0.6312,0.6342,0.6112,0.603,0.603,0.5979,0.5857,0.5661,0.5613,0.6147,0.7158,0.7423,0.823,0.96,0.9985,1.0424,1.0881,1.1139,1.1469,1.1818,1.2629,1.3329,1.3803,1.3434,1.2059,1.0363,1.0609,0.9631,0.8189,0.8532,0.8591,0.8579,0.8753,0.8873,0.889,0.8465,0.8397,0.8471,0.8321,0.8215,0.8317,0.9138,0.9292,0.9446,1.0352,1.0429,1.061,1.1679,1.1459,1.1251,1.179,1.2305,1.2913,1.3726,1.4426,1.5426,0.0,1.8812,2.0737,2.2425,2.5133,2.7101,2.7736,2.7888,2.7949,2.7966,2.7405,2.6728,2.5936,2.5217,2.4478,2.3678,2.3468,2.2939,2.2033,2.129,2.0246,1.8914,1.7462,1.6631,1.6354,1.6095,1.6015,1.6109,1.6717,1.6885,1.6738,1.6815,1.6385,1.5634,1.4886,1.3128,1.018,0.3735,-0.0431,-0.4023,0.0527,0.1849,0.2895,0.2737,0.3337,0.4394,0.5943,0.6179,0.6122,0.5969,0.6084,0.6081,0.583,0.5979,0.6078,0.6034,0.6254,0.6335,0.6186,0.6278,0.6288,0.6183,0.6135,0.6088,0.603,0.6084,0.5942,0.5589,0.564,0.6173,0.7055,0.7321,0.8113,0.9394,0.9759,1.0211,1.0848,1.1329,1.1689,1.1973,1.3017,1.37,1.4198,1.4446,1.2873,1.0679,1.1169,1.0006,0.8293,0.8626,0.8595,0.8433,0.8546,0.8603,0.8622,0.8204,0.8317,0.8439,0.7946,0.796,0.8199,0.8445,0.8465,0.8596,0.9557,0.9492,0.9584,1.0684,1.0572,1.0379,1.0809,1.144,1.1947,1.2254,1.301,1.4064,0.0,1.7351,1.9026,2.0398,2.3462,2.5891,2.6934,2.7307,2.7618,2.7939,2.7411,2.6638,2.569,2.514,2.4431,2.3383,2.3206,2.2509,2.1242,2.0591,1.9645,1.846,1.6636,1.5866,1.6089,1.5519,1.5334,1.5502,1.6271,1.6596,1.6623,1.6686,1.6443,1.5945,1.5257,1.3853,1.1618,0.6185,0.0579,-0.5309,0.1657,0.2466,0.2974,0.219,0.3603,0.513,0.5881,0.603,0.5973,0.5813,0.5925,0.5959,0.5796,0.5793,0.5857,0.5996,0.6149,0.6176,0.6027,0.6274,0.6305,0.603,0.6152,0.6162,0.602,0.6169,0.6112,0.5669,0.5806,0.6066,0.6478,0.7125,0.7842,0.8565,0.9472,1.0301,1.1024,1.1981,1.2806,1.3571,1.4198,1.4455,1.4455,1.4506,1.3241,1.1407,1.1323,1.0212,0.8876,0.8981,0.8857,0.8602,0.8379,0.8441,0.8639,0.8685,0.8447,0.8185,0.7946,0.784,0.7812,0.7561,0.7669,0.7985,0.8466,0.8577,0.8856,0.9868,1.0001,1.0102,1.0639,1.0531,1.064,1.1489,1.1595,1.2422,1.4811,1.5925,1.7171,1.9172,2.2355,2.4593,2.5212,2.6805,2.75,2.6836,2.7539,2.7005,2.4766,2.5112,2.4673,2.3172,2.3049,2.2042,2.0009,1.9958,1.891,1.6912,1.5352,1.4932,1.5478,1.4829,1.4766,1.5191,1.6119,1.6523,1.657,1.6289,1.6344,1.6448,1.5651,1.4882,1.3695,0.9271,0.2103,-0.5952,0.247,0.3426,0.4431,0.4885,0.5457,0.593,0.5972,0.603,0.5935,0.5677,0.5769,0.5762,0.5501,0.5671,0.5776,0.5708,0.5833,0.5901,0.5864,0.5833,0.583,0.5861,0.5796,0.6079,0.6656,0.6307,0.6271,0.66,0.6572,0.6896,0.74,0.7977,0.856,0.9285,0.9485,1.0043,1.0797,1.146,1.2591,1.389,1.407,1.4139,1.4139,1.4387,1.3531,1.2159,1.2159,1.1108,0.9658,0.9249,0.9042,0.8838,0.8375,0.8154,0.8118,0.8031,0.7915,0.7719,0.744,0.736,0.7424,0.758,0.7556,0.7579,0.7998,0.7904,0.7936,0.8514,0.8692,0.8889,0.9474,0.9904,1.0271,1.0722,1.2089,1.3049,1.3081,1.4532,1.5925,1.6771,1.864,2.1116,2.439,2.4679,2.5159,2.6398,2.6394,2.5993,2.5218,2.5132,2.4663,2.3665,2.2357,2.1053,1.9736,1.9169,1.7996,1.6232,1.5128,1.4447,1.4114,1.3718,1.3891,1.4473,1.4973,1.5606,1.6289,1.6188,1.5935,1.5622,1.5621,1.409,1.1398,0.6971,0.2484,-0.2296,0.3708,0.4681,0.559,0.608,0.6146,0.6088,0.5871,0.5837,0.5752,0.5521,0.5616,0.562,0.5452,0.5508,0.5603,0.5593,0.5661,0.5708,0.5708,0.5691,0.5828,0.612,0.6183,0.6526,0.7242,0.7074,0.6897,0.6708,0.7148,0.7507,0.755,0.8223,0.8882,0.9484,0.9484,0.9885,1.0594,1.1604,1.2826,1.401,1.4139,1.4198,0.0,1.4446,1.3771,1.2784,1.2831,1.1786,1.0336,1.0072,0.9607,0.9093,0.8738,0.8292,0.786,0.7809,0.7622,0.7339,0.6941,0.6919,0.706,0.702,0.7007,0.7148,0.7633,0.7601,0.7611,0.7941,0.8165,0.8374,0.8679,0.913,0.9626,0.9992,1.1352,1.2243,1.1973,1.3124,1.4419,1.5452,1.6526,1.8451,2.1689,2.2611,2.3592,2.5026,2.4818,2.4481,2.423,2.4113,2.3642,2.2736,2.1742,2.0575,1.9207,1.8624,1.7418,1.5654,1.4814,1.4076,1.3418,1.3279,1.3405,1.3797,1.4438,1.5098,1.5779,1.5872,1.5838,1.5652,1.508,1.3784,1.1768,0.8094,0.4279,0.0038,0.5042,0.5802,0.6386,0.6203,0.6078,0.5898,0.5606,0.5579,0.5535,0.5449,0.5477,0.5508,0.5442,0.5428,0.5413,0.5549,0.5559,0.5628,0.5693,0.5811,0.6102,0.6712,0.6859,0.7216,0.7783,0.8094,0.7742,0.6696,0.772,0.799,0.7555,0.8312,0.8952,0.9484,0.9484,0.9862,1.0611,1.2135,1.325,1.407,1.4387,1.4515,1.4506,1.4451,1.3956,1.3286,1.3231,1.2299,1.1065,1.1032,1.0312,0.9458,0.9263,0.8597,0.781,0.7772,0.7462,0.7038,0.6474,0.6585,0.6738,0.6299,0.6449,0.6836,0.7313,0.7427,0.7491,0.7732,0.7999,0.8184,0.8073,0.8455,0.8951,0.9517,1.02,1.0857,1.1358,1.1965,1.3063,1.4842,1.5482,0.0,1.8395,2.0685,2.2362,2.3095,2.3176,2.3022,2.2622,2.2766,2.2423,2.1391,2.1093,2.0213,1.872,1.8177,1.6929,1.5016,1.4433,1.3743,1.3007,1.3007,1.3053,1.3206,1.4156,1.4784,1.5121,1.554,1.5839,1.5924,1.4381,1.3717,1.3289,1.066,0.6758,0.2026,0.5996,0.622,0.6173,0.5776,0.5783,0.5742,0.5447,0.5508,0.5535,0.5449,0.5452,0.5459,0.5432,0.5428,0.5439,0.5466,0.5403,0.5663,0.625,0.6277,0.6614,0.7245,0.7277,0.7673,0.8354,0.8005,0.7947,0.8312,0.8529,0.8529,0.8513,0.9054,0.9414,0.9484,0.9484,1.0351,1.1725,1.2239,1.3219,1.4446,1.4455,1.4515,1.4478,1.4121,1.3699,1.325,1.2901,1.2419,1.1819,1.1174,1.0568,0.9961,0.951,0.8687,0.786,0.7688,0.732,0.6863,0.6472,0.6464,0.6551,0.6606,0.6747,0.6898,0.7069,0.7095,0.7108,0.7161,0.7399,0.7716,0.7915,0.8433,0.9051,0.9873,1.0365,1.0829,1.1122,1.1822,1.2815,1.4076,1.4644,1.5599,1.7319,1.9399,2.0868,2.1302,2.2454,2.2819,2.2081,2.2497,2.2404,2.172,2.0243,1.9208,1.872,1.7468,1.5905,1.4031,1.3925,1.3232,1.205,1.205,1.2336,1.2907,1.3585,1.4139,1.4593,1.537,1.5594,1.533,1.4114,1.3617,1.3323,1.0957,0.8682,0.6052,0.6383,0.6312,0.6166,0.5871,0.5749,0.5616,0.5463,0.5423,0.5447,0.5435,0.5428,0.5428,0.5428,0.5686,0.5947,0.5947,0.621,0.6601,0.6924,0.6924,0.7251,0.7972,0.7967,0.8296,0.9017,0.8926,0.8786,0.8596,0.9059,0.9059,0.8591,0.9209,0.9484,0.9548,0.9977,1.085,1.1919,1.257,1.342,1.4258,1.4446,1.4515,1.4469,1.4047,1.3635,1.3241,1.2819,1.2466,1.2076,1.1701,1.1191,1.0685,1.0123,0.9242,0.834,0.7769,0.7291,0.6873,0.6563,0.6532,0.6617,0.6751,0.6872,0.6943,0.6985,0.6979,0.6979,0.6979,0.7134,0.7375,0.7795,0.8486,0.9072,0.9364,0.9876,1.0304,1.0672,1.1075,1.198,1.3771,1.4417,1.5007,1.5794,1.744,1.8971,2.0147,2.0468,2.0699,2.0866,2.1325,2.1201,2.0436,1.9232,1.8375,1.7941,1.6427,1.4958,1.3532,1.3272,1.2583,1.1601,1.1725,1.1903,1.2117,1.2862,1.3439,1.393,1.5178,1.5433,1.4956,1.4041,1.3532,1.3107,1.1712,1.0134,0.8,0.6386,0.6288,0.6142,0.5925,0.5722,0.5538,0.5452,0.5491,0.5557,0.5428,0.5428,0.5425,0.5624,0.6075,0.6465,0.6597,0.712,0.7451,0.7647,0.7647,0.7972,0.8689,0.8689,0.8952,0.9484,0.9682,0.9485,0.8689,0.9485,0.9414,0.8753,0.928,0.967,0.9856,1.0528,1.1344,1.2174,1.2964,1.364,1.4139,1.4387,1.4515,1.446,1.3947,1.3571,1.3231,1.277,1.2393,1.2076,1.2076,1.1728,1.1217,1.0736,0.9892,0.8898,0.8131,0.7482,0.702,0.6712,0.6704,0.6751,0.6872,0.695,0.6965,0.6941,0.6927,0.6914,0.6854,0.684,0.7041,0.7709,0.8297,0.8684,0.8808,0.9106,0.9589,1.0383,1.0387,1.1151,1.344,1.416,1.4483,1.459,1.5743,1.7103,1.8697,1.8372,1.8459,1.9398,1.9794,1.9602,1.8798,1.7996,1.7384,1.693,1.53,1.4038,1.3044,1.2617,1.2052,1.1333,1.1549,1.1571,1.1452,1.2293,1.2917,1.3438,1.4665,1.4979,1.4574,1.3952,1.3474,1.3051,1.2342,1.1111,0.9083,0.6098,0.6061,0.5918,0.5498,0.5515,0.5538,0.5452,0.5947,0.6075,0.5495,0.5428,0.562,0.6268,0.6334,0.6662,0.7256,0.7386,0.7712,0.8361,0.8425,0.8689,0.935,0.9414,0.9414,0.9484,0.9508,0.9508,0.9414,0.9508,0.9508,0.942,0.967,1.0168,1.0829,1.0954,1.1764,1.3147,1.3268,1.3761,1.4455,1.4515,1.4515,1.4433,1.3644,1.3323,1.3195,1.2406,1.2104,1.2076,1.2076,1.1728,1.1267,1.1217,1.0258,0.9138,0.8912,0.8105,0.7244,0.709,0.6987,0.6872,0.6914,0.695,0.6954,0.6693,0.6627,0.656,0.633,0.6277,0.6539,0.7399,0.7141,0.7303,0.8763,0.8469,0.8685,1.0406,1.0347,1.0824,1.2604,1.3341,1.3951,1.454,1.5034,1.5603,1.6198,1.6899,1.7549,1.8034,1.8152,1.8033,1.7666,1.6606,1.598,1.5929,1.4398,1.3161,1.2223,1.2167,1.1787,1.1132,1.1155,1.1256,1.1429,1.2205,1.2873,1.3472,1.3508,1.3738,1.4026,1.3603,1.3472,1.3429,1.2449,1.1248,0.983,0.5905,0.5823,0.5708,0.5532,0.5805,0.6089,0.6148,0.6724,0.7055,0.6798,0.6666,0.6732,0.699,0.7381,0.7772,0.8032,0.8431,0.8823,0.928,0.9274,0.9408,0.9798,0.9798,0.9798,0.9798,0.9798,0.9798,0.9798,0.9798,0.9798,0.9798,1.0288,1.0968,1.1826,1.2205,1.2765,1.345,1.383,1.4198,1.4515,1.4515,1.4515,1.4423,1.3607,1.3296,1.3186,1.2369,1.2076,1.2076,1.2076,1.1977,1.1728,1.1427,1.0646,0.9776,0.9197,0.8489,0.7873,0.7341,0.7255,0.7196,0.7027,0.6985,0.6989,0.6932,0.6901,0.6817,0.6546,0.6336,0.6357,0.6881,0.7076,0.7301,0.7733,0.8011,0.8505,0.9376,0.9532,1.0081,1.1492,1.2698,1.3359,1.3322,1.3877,1.426,1.4286,1.5731,1.6584,1.6505,1.7231,1.7368,1.6697,1.5535,1.4969,1.4969,1.2982,1.1884,1.1626,1.1259,1.1009,1.0873,1.1015,1.121,1.1429,1.1805,1.219,1.2613,1.2837,1.3444,1.4184,1.3696,1.3608,1.3638,1.2914,1.2093,1.1089,0.6376,0.6344,0.6253,0.6203,0.6556,0.692,0.7046,0.7632,0.8091,0.8091,0.8161,0.8037,0.7837,0.8291,0.8748,0.8947,0.9344,0.9734,0.9862,0.9862,0.9926,0.9983,0.9983,0.9983,0.9983,0.9983,0.9983,0.9983,0.9983,1.011,1.0288,1.1024,1.1826,1.2696,1.3139,1.3511,1.3821,1.4327,1.4515,1.4515,1.4515,1.4515,1.4423,1.3607,1.3296,1.3186,1.2369,1.2076,1.2076,1.2076,1.2076,1.2026,1.1669,1.115,1.0535,0.9845,0.9227,0.8597,0.806,0.7751,0.7516,0.7398,0.7203,0.7058,0.7141,0.707,0.6878,0.6526,0.6251,0.6156,0.6431,0.6841,0.7137,0.7148,0.7615,0.8181,0.8747,0.8902,0.9481,1.0822,1.1897,1.253,1.2436,1.3046,1.3334,1.3223,1.4572,1.5342,1.5228,1.6192,1.6374,1.5611,1.4525,1.3846,1.3514,1.1673,1.0846,1.1031,1.0597,1.0474,1.0621,1.0897,1.1085,1.1201,1.1388,1.1617,1.1913,1.2237,1.3177,1.4339,1.3783,1.3731,1.3891,1.3251,1.2695,1.2043,0.7728,0.7758,0.7832,0.7681,0.7837,0.7962,0.7962,0.8538,0.8988,0.8988,0.9582,0.9652,0.8801,0.886,0.9256,0.9919,0.9983,0.9983,0.9983,0.9983,0.9983,0.9983,0.9983,0.9983,0.9983,0.9983,0.9983,0.9983,0.9983,1.0351,1.1017,1.1888,1.2704,1.3511,1.3502,1.3881,1.4506,1.4515,1.4515,1.4515,1.4515,1.4515,1.4423,1.3607,1.3296,1.3186,1.2369,1.2076,1.2076,1.2076,1.2076,1.2076,1.2076,1.1728,1.1267,1.1267,1.0383,0.939,0.939,0.8568,0.7807,0.8193,0.7696,0.7134,0.7279,0.6977,0.654,0.5924,0.5826,0.5888,0.6161,0.6203,0.6492,0.7365,0.7221,0.7517,0.8999,0.8756,0.9038,1.07,1.1005,1.146,1.2239,1.2666,1.3037,1.3268,1.3459,1.3777,1.438,1.4942,1.4956,1.4333,1.3472,1.2518,1.1449,1.0539,1.0211,1.0412,1.0399,1.0399,1.0399,1.0681,1.0777,1.0705,1.1005,1.1305,1.16,1.16,1.2702,1.4339,1.3651,1.3802,1.4296,1.3419,1.2951,1.2413,0.7687,0.7876,0.7982,0.7912,0.8345,0.8737,0.8877,0.9454,0.9907,0.9907,1.0174,1.0238,0.9849,0.9716,0.9786,0.9983,0.9983,1.0047,1.0174,1.0174,1.0238,1.0371,1.0428,1.0428,1.0428,1.0428,1.0618,1.1045,1.1045,1.16,1.2696,1.3009,1.3511,1.4198,1.4198,1.4327,1.4515,1.4515,1.4515,1.4515,1.4515,1.4517,1.443,1.3919,1.3691,1.353,1.2769,1.2529,1.2529,1.2529,1.2332,1.2126,1.2431,1.1977,1.1326,1.1326,1.0575,0.9757,0.9482,0.902,0.8561,0.8357,0.7888,0.754,0.7641,0.7182,0.6707,0.6529,0.6114,0.5938,0.6399,0.6336,0.6418,0.7054,0.7255,0.7585,0.8228,0.8342,0.8663,0.9362,1.0367,1.1138,1.141,1.2061,1.2295,1.176,1.1969,1.2536,1.3477,1.382,1.3757,1.3275,1.2346,1.1619,1.1191,1.0196,0.9788,0.9982,1.0135,1.0336,1.0597,1.0398,1.0447,1.0705,1.0825,1.1168,1.16,1.1442,1.232,1.3766,1.3593,1.368,1.3887,1.416,1.388,1.3191,0.8549,0.8742,0.8871,0.8871,0.9256,0.9646,0.9786,1.011,1.0428,1.0428,1.0498,1.0561,1.0434,1.0301,1.0238,1.0238,1.0238,1.0308,1.0371,1.0428,1.0498,1.0561,1.0807,1.0933,1.0933,1.117,1.1476,1.1911,1.2158,1.265,1.3511,1.3761,1.407,1.4515,1.4515,1.4515,1.4515,1.4515,1.4515,1.4497,1.4517,1.4619,1.4715,1.4072,1.3985,1.3971,1.3027,1.2774,1.2861,1.2725,1.2618,1.2559,1.2803,1.2412,1.1778,1.1628,1.1015,1.0256,1.003,0.9495,0.8975,0.8854,0.8403,0.7915,0.7826,0.7475,0.7103,0.6863,0.6589,0.6511,0.6807,0.6716,0.6744,0.719,0.7398,0.7575,0.7842,0.8183,0.8619,0.9284,0.998,1.0686,1.1338,1.1706,1.1743,1.1531,1.1591,1.1904,1.2582,1.2891,1.2828,1.2327,1.1545,1.0862,1.0362,0.9682,0.9511,0.9802,1.0237,1.0612,1.0881,1.0768,1.0717,1.0708,1.1002,1.1429,1.1926,1.1725,1.2515,1.3843,1.394,1.3852,1.3716,1.4502,1.4328,1.363,1.0047,1.0174,1.0301,1.0301,1.0498,1.0624,1.0624,1.0624,1.0624,1.0624,1.0624,1.0624,1.0624,1.0624,1.0624,1.0681,1.0624,1.0624,1.0624,1.0624,1.0624,1.0681,1.1178,1.1545,1.1545,1.2212,1.2512,1.2573,1.326,1.3571,1.3571,1.4198,1.4515,1.4515,1.4515,1.4515,1.4515,1.4515,1.4515,1.4529,1.4554,1.4821,1.5167,1.4245,1.4204,1.4457,1.3243,1.3027,1.317,1.2861,1.2949,1.3218,1.3218,1.2997,1.2627,1.2274,1.1564,1.0938,1.091,1.0034,0.9171,0.9603,0.9083,0.8347,0.7933,0.7826,0.7644,0.7042,0.7176,0.7416,0.7411,0.7378,0.7474,0.7784,0.7687,0.7693,0.8011,0.8308,0.895,1.0202,0.985,1.0223,1.1886,1.1517,1.1471,1.2157,1.1921,1.1743,1.1715,1.2063,1.1949,1.1415,1.0954,1.0199,0.9104,0.9127,0.941,0.9953,1.0668,1.1115,1.1293,1.1629,1.1421,1.0845,1.1466,1.2046,1.2545,1.2323,1.3071,1.4374,1.4554,1.4256,1.3782,1.4571,1.4446,1.3815,1.0238,1.0371,1.0561,1.0561,1.0561,1.0624,1.0624,1.0624,1.0624,1.0624,1.0624,1.0624,1.0624,1.0624,1.0807,1.124,1.087,1.0624,1.0624,1.0624,1.0807,1.1303,1.1421,1.1725,1.2266,1.2451,1.2757,1.326,1.395,1.4258,1.4258,1.4446,1.4515,1.4515,1.4515,1.4515,1.4515,1.4515,1.4734,1.5059,1.5013,1.5288,1.5642,1.5432,1.5164,1.4889,1.4299,1.39,1.3668,1.3573,1.3382,1.3266,1.3563,1.32,1.2676,1.2578,1.1967,1.1361,1.1217,1.0628,1.0008,1.0007,0.9468,0.8803,0.8239,0.8019,0.7959,0.8014,0.7766,0.771,0.8258,0.8148,0.818,0.8804,0.8722,0.8881,0.9684,0.9692,0.9908,1.0621,1.091,1.1226,1.1692,1.2004,1.194,1.137,1.1253,1.1111,1.0913,1.0641,1.0479,1.0438,0.9984,0.9541,0.9104,0.9448,1.0207,1.1318,1.1176,1.1463,1.2179,1.1767,1.1764,1.2088,1.2091,1.2492,1.3141,1.2869,1.3136,1.3802,1.4585,1.4414,1.3848,1.5047,1.5316,1.5048,1.0428,1.0561,1.0624,1.0624,1.0624,1.0624,1.0624,1.0624,1.0624,1.0624,1.0624,1.0624,1.0624,1.087,1.1115,1.1483,1.1178,1.1115,1.1476,1.1476,1.16,1.1965,1.2282,1.2581,1.2948,1.326,1.3571,1.395,1.4327,1.4515,1.4515,1.4515,1.4515,1.4515,1.4515,1.4515,1.4506,1.4734,1.4951,1.5216,1.5414,1.5757,1.6129,1.6074,1.5897,1.5644,1.4978,1.4569,1.4345,1.3931,1.3763,1.38,1.3999,1.3678,1.3152,1.2997,1.2273,1.1491,1.1334,1.0908,1.045,1.0342,1.0021,0.9608,0.9229,0.9181,0.9187,0.9137,0.8888,0.8888,0.946,0.9268,0.9217,0.9796,0.9711,0.9779,1.03,1.0213,1.0326,1.091,1.0871,1.0976,1.1546,1.1611,1.1528,1.1196,1.0985,1.0783,1.0659,1.0086,0.9791,0.9856,0.9451,0.9223,0.9226,1.0008,1.0876,1.1858,1.1689,1.197,1.2545,1.2455,1.2442,1.2522,1.2904,1.3263,1.3523,1.3481,1.3616,1.4,1.4755,1.4648,1.4219,1.5477,1.5807,1.5564,1.0624,1.0624,1.0624,1.0624,1.0624,1.0624,1.0624,1.0688,1.0744,1.0744,1.0807,1.0863,1.0863,1.1358,1.167,1.1794,1.1787,1.1973,1.2451,1.2512,1.2573,1.2634,1.3199,1.3571,1.3631,1.4258,1.4506,1.4506,1.4565,1.4625,1.4734,1.4734,1.4734,1.4843,1.4843,1.4793,1.4793,1.5177,1.54,1.5429,1.5832,1.6314,1.6768,1.6602,1.6595,1.651,1.5686,1.5312,1.5088,1.4387,1.4298,1.4512,1.4512,1.4233,1.3847,1.3494,1.2673,1.179,1.1487,1.1149,1.0794,1.0673,1.0572,1.05,1.0416,1.0499,1.0521,1.0234,1.0143,1.0262,1.0784,1.0493,1.0389,1.0892,1.0743,1.059,1.0754,1.0567,1.062,1.1284,1.0573,1.0472,1.1509,1.1088,1.0892,1.1276,1.0906,1.0618,1.0551,0.9895,0.9495,0.9495,0.9189,0.918,0.9618,1.0669,1.1548,1.2134,1.2275,1.2537,1.2852,1.3295,1.3226,1.2819,1.3704,1.3979,1.3841,1.4047,1.4251,1.4487,1.5,1.497,1.4786,1.5777,1.6044,1.5864,1.0624,1.0624,1.0624,1.0624,1.0624,1.0624,1.0624,1.1052,1.1358,1.1358,1.1849,1.2205,1.2205,1.2266,1.2581,1.3139,1.3199,1.3009,1.2512,1.2512,1.2757,1.3321,1.3442,1.3761,1.4327,1.4547,1.4656,1.4656,1.4852,1.5196,1.57,1.57,1.5921,1.6348,1.6348,1.6244,1.6026,1.6083,1.6208,1.6389,1.6701,1.7113,1.7523,1.775,1.7573,1.7242,1.7094,1.6489,1.5759,1.5631,1.5313,1.4971,1.4971,1.472,1.4376,1.4318,1.395,1.3356,1.2253,1.1744,1.1368,1.0975,1.0954,1.1015,1.0856,1.0758,1.0712,1.0899,1.0783,1.0949,1.1877,1.1609,1.1581,1.2477,1.1835,1.1533,1.2377,1.1777,1.1415,1.1985,1.1602,1.1378,1.1562,1.1519,1.132,1.1003,1.0585,1.0176,0.9769,0.933,0.9102,0.9102,0.9043,0.9508,1.0563,1.137,1.2279,1.3251,1.2808,1.3116,1.4023,1.3643,1.369,1.4029,1.4082,1.4192,1.4363,1.4365,1.4474,1.471,1.5374,1.5565,1.555,1.5779,1.613,1.6405,1.1052,1.0807,1.0681,1.1052,1.117,1.1358,1.16,1.1841,1.2027,1.2027,1.2328,1.2512,1.2512,1.2818,1.313,1.3442,1.3821,1.3941,1.3674,1.3623,1.3752,1.4112,1.4172,1.4359,1.4743,1.4852,1.4843,1.4843,1.5313,1.5652,1.5931,1.6197,1.6472,1.6687,1.6687,1.6631,1.6518,1.681,1.6944,1.7067,1.7457,1.7689,1.792,1.8236,1.8097,1.7748,1.763,1.7224,1.665,1.6097,1.5752,1.5464,1.5188,1.496,1.4801,1.4549,1.4014,1.3346,1.2744,1.2081,1.1579,1.1553,1.1542,1.1597,1.1696,1.1756,1.1803,1.192,1.1733,1.1802,1.2755,1.256,1.251,1.3201,1.2926,1.2586,1.2529,1.1964,1.1509,1.1499,1.1133,1.092,1.092,1.092,1.0693,1.0254,1.0039,0.9746,0.9281,0.9111,0.9214,0.9642,0.985,1.0323,1.1138,1.194,1.2572,1.3082,1.2815,1.3116,1.3848,1.3615,1.3835,1.442,1.4707,1.4831,1.4783,1.5015,1.5136,1.5226,1.5565,1.5824,1.609,1.6491,1.6732,1.6815,1.1725,1.1358,1.1178,1.1663,1.1911,1.2151,1.2451,1.2634,1.2757,1.2757,1.2879,1.3,1.3,1.3502,1.3872,1.3872,1.4318,1.4684,1.4775,1.4675,1.4675,1.4775,1.4775,1.4843,1.497,1.5147,1.5264,1.5264,1.5874,1.6255,1.6425,1.681,1.7079,1.7246,1.7246,1.7191,1.7191,1.7545,1.7611,1.7611,1.8018,1.8193,1.8247,1.856,1.8506,1.8298,1.827,1.7942,1.7438,1.6678,1.6244,1.5963,1.5451,1.5244,1.5187,1.4892,1.4134,1.3376,1.3264,1.2653,1.2056,1.2136,1.2138,1.2138,1.2413,1.2591,1.2709,1.2709,1.2449,1.2535,1.3506,1.3313,1.3214,1.369,1.3596,1.317,1.2312,1.1778,1.1279,1.0947,1.0449,1.0127,1.0127,1.0039,0.9844,0.9476,0.9447,0.931,0.9023,0.9004,0.9397,1.0316,1.0821,1.1238,1.1561,1.2318,1.2745,1.278,1.278,1.3082,1.3594,1.3615,1.3967,1.4533,1.5196,1.533,1.5134,1.5565,1.5754,1.5769,1.5811,1.6065,1.6479,1.7288,1.7453,1.7344,1.2451,1.2389,1.2389,1.2451,1.2451,1.2451,1.2512,1.3009,1.345,1.345,1.4112,1.4529,1.4529,1.4725,1.4911,1.4911,1.4911,1.498,1.497,1.498,1.498,1.497,1.497,1.497,1.497,1.5652,1.5999,1.5999,1.6765,1.7368,1.7929,1.7984,1.8321,1.8815,1.8815,1.8709,1.8441,1.8506,1.8344,1.8084,1.8398,1.856,1.8614,1.8881,1.8934,1.8987,1.9359,1.8924,1.8109,1.7921,1.7264,1.6441,1.5915,1.5748,1.5748,1.5691,1.5163,1.4499,1.4033,1.3658,1.3201,1.2531,1.252,1.2639,1.2674,1.2674,1.2709,1.2709,1.2674,1.2999,1.4057,1.3813,1.3618,1.4143,1.3573,1.2834,1.2271,1.1474,1.0947,1.0918,1.0147,0.9641,0.9641,0.9326,0.9082,0.9053,0.9053,0.9043,0.9004,0.9004,0.9534,1.0736,1.159,1.202,1.2056,1.2461,1.2815,1.3072,1.3072,1.3335,1.3874,1.4013,1.4214,1.4533,1.5134,1.5389,1.5418,1.5797,1.608,1.6246,1.6246,1.6382,1.6686,1.7753,1.8117,1.8268,1.3425,1.3252,1.3191,1.3364,1.3786,1.4094,1.4043,1.43,1.4428,1.4428,1.4725,1.4902,1.4902,1.497,1.497,1.497,1.497,1.5039,1.5098,1.5098,1.5098,1.5098,1.5196,1.542,1.5806,1.6093,1.6425,1.6765,1.7424,1.7875,1.8093,1.8483,1.8762,1.8987,1.8987,1.8934,1.8827,1.8827,1.8774,1.8679,1.8774,1.8987,1.9186,1.904,1.9303,1.9708,1.9604,1.9377,1.9017,1.8503,1.778,1.7014,1.6591,1.6306,1.6163,1.6392,1.6275,1.5878,1.4974,1.4138,1.3378,1.2934,1.2885,1.2885,1.2745,1.2709,1.2709,1.2709,1.2709,1.2926,1.3662,1.3629,1.356,1.3776,1.3522,1.2966,1.1913,1.1491,1.1085,1.0587,1.0234,1.0029,1.0029,0.9893,0.9687,0.9378,0.9359,0.9277,0.9014,0.9723,1.0564,1.1578,1.2224,1.2508,1.2484,1.2627,1.2745,1.285,1.3104,1.3412,1.3782,1.4264,1.4613,1.4845,1.5521,1.5726,1.5566,1.6188,1.6394,1.6328,1.6474,1.6865,1.7389,1.8121,1.868,1.9197,1.4341,1.4112,1.4052,1.4282,1.4706,1.502,1.5029,1.497,1.497,1.497,1.5039,1.5039,1.5039,1.5088,1.5147,1.5147,1.5147,1.5137,1.5264,1.543,1.5546,1.5546,1.5642,1.5968,1.6585,1.6754,1.709,1.7479,1.8093,1.8375,1.8375,1.8827,1.8987,1.8987,1.8987,1.8987,1.8987,1.8987,1.9093,1.9198,1.9198,1.946,1.9772,1.946,1.972,2.0182,2.0016,1.9914,1.9699,1.8947,1.8282,1.7636,1.7104,1.6693,1.6552,1.6833,1.6831,1.6565,1.5582,1.4683,1.3916,1.3373,1.3232,1.3163,1.2885,1.2815,1.2815,1.2709,1.2709,1.2866,1.3409,1.3505,1.35,1.3481,1.3408,1.2907,1.1672,1.1373,1.1072,1.039,1.0166,1.0078,1.0078,0.9961,0.9756,0.9417,0.9524,0.9597,0.9617,1.0651,1.1522,1.2174,1.2615,1.2803,1.2768,1.2768,1.2768,1.2768,1.3263,1.3589,1.3802,1.4568,1.4954,1.5029,1.5811,1.6011,1.5784,1.6775,1.7072,1.6943,1.7322,1.7775,1.8255,1.9038,1.9567,2.0087,1.497,1.497,1.497,1.497,1.497,1.497,1.497,1.497,1.497,1.497,1.5098,1.5215,1.5215,1.5313,1.541,1.541,1.541,1.541,1.541,1.5968,1.6312,1.6301,1.6301,1.6585,1.7202,1.7809,1.8093,1.8093,1.8709,1.8987,1.8987,1.8987,1.8987,1.8987,1.8987,1.8987,1.8987,1.8987,1.9251,1.9617,1.9617,1.9875,2.0182,2.0182,2.0182,2.0283,2.066,2.056,2.0104,1.9383,1.8839,1.8323,1.7222,1.6918,1.6918,1.6918,1.6725,1.6375,1.5757,1.543,1.4944,1.3791,1.348,1.3425,1.3163,1.3107,1.3037,1.2745,1.2709,1.2866,1.3397,1.3493,1.3493,1.3493,1.3167,1.2564,1.1619,1.1142,1.0774,1.0361,0.9902,0.9602,0.9602,0.9258,0.9014,0.9014,0.9404,1.0036,1.095,1.1763,1.2246,1.2413,1.272,1.2896,1.2896,1.2896,1.2896,1.2896,1.3589,1.3901,1.3934,1.4937,1.5255,1.5059,1.5924,1.6207,1.6113,1.7599,1.8199,1.8264,1.8947,1.9223,1.936,2.0622,2.0935,2.095,1.5303,1.5303,1.5303,1.5303,1.5303,1.5303,1.5303,1.5303,1.5303,1.5303,1.5303,1.5362,1.5362,1.5362,1.541,1.541,1.541,1.5575,1.6026,1.6197,1.6698,1.7534,1.7146,1.7202,1.782,1.7984,1.8321,1.8709,1.8934,1.8987,1.8987,1.8987,1.8987,1.8987,1.8987,1.9146,1.9408,1.9408,1.9668,2.0029,2.0029,2.0271,2.061,2.0321,2.0523,2.1068,2.1042,2.0894,2.0591,2.0421,1.9548,1.8357,1.7666,1.7733,1.8029,1.8029,1.8101,1.8064,1.7444,1.722,1.6621,1.4339,1.3775,1.3708,1.3425,1.3391,1.3288,1.3025,1.3012,1.305,1.301,1.3046,1.307,1.307,1.2962,1.2602,1.1833,1.1627,1.1292,1.0582,1.0396,1.0306,1.0306,1.0196,1.0116,1.0116,1.0487,1.0957,1.1542,1.2066,1.2473,1.272,1.2955,1.3025,1.3025,1.322,1.331,1.3344,1.4052,1.4406,1.4438,1.5389,1.5682,1.5507,1.6727,1.7143,1.7032,1.8551,1.9077,1.8958,1.9591,2.0116,2.0605,2.1208,2.1815,2.2467,1.541,1.541,1.541,1.541,1.541,1.541,1.541,1.541,1.541,1.541,1.541,1.541,1.541,1.541,1.541,1.541,1.5633,1.6026,1.6641,1.6866,1.7313,1.8093,1.7984,1.8093,1.8429,1.8483,1.8643,1.8987,1.8987,1.8987,1.8987,1.8987,1.8987,1.8987,1.9146,1.9356,1.9617,1.9772,2.0067,2.0472,2.056,2.0858,2.1202,2.1055,2.1299,2.1712,2.1636,2.1479,2.1301,2.1149,2.0079,1.8759,1.8316,1.8383,1.8669,1.8669,1.8831,1.8898,1.8057,1.7805,1.7271,1.5139,1.4626,1.4459,1.3954,1.3868,1.3769,1.3514,1.3501,1.3421,1.3138,1.3104,1.3069,1.2931,1.2896,1.2685,1.2113,1.1884,1.1553,1.0916,1.084,1.0764,1.0621,1.0725,1.084,1.084,1.1217,1.1627,1.2066,1.2437,1.2768,1.3012,1.3094,1.3198,1.3323,1.348,1.3581,1.3581,1.4195,1.4596,1.4831,1.5906,1.6305,1.6233,1.7535,1.7948,1.7846,1.9393,1.9937,1.9887,2.0639,2.1232,2.173,2.2044,2.2513,2.3093,1.541,1.541,1.541,1.541,1.541,1.541,1.541,1.541,1.541,1.541,1.5468,1.5468,1.541,1.5526,1.5526,1.5468,1.6026,1.6641,1.7257,1.7809,1.8147,1.8201,1.8709,1.8999,1.8999,1.8999,1.8999,1.8999,1.8999,1.904,1.904,1.904,1.904,1.9146,1.95,1.9708,1.9811,2.0169,2.0573,2.0944,2.1188,2.1492,2.1841,2.2137,2.2184,2.2184,2.2231,2.2231,2.2118,2.1457,2.05,1.9468,1.907,1.8968,1.9006,1.9006,1.9177,1.9156,1.8129,1.7751,1.7394,1.625,1.5915,1.5632,1.4653,1.4438,1.4342,1.4084,1.4019,1.3934,1.3615,1.3514,1.3412,1.3035,1.2931,1.2803,1.2473,1.2102,1.1737,1.133,1.1292,1.1105,1.0736,1.0992,1.1255,1.1292,1.1664,1.2066,1.2508,1.2885,1.3141,1.3198,1.3198,1.3357,1.3715,1.3715,1.3735,1.3815,1.4157,1.4669,1.5283,1.6458,1.706,1.7181,1.8326,1.8683,1.8639,2.0185,2.0794,2.0888,2.1883,2.2422,2.2695,2.2947,2.3069,2.3189,1.541,1.541,1.541,1.541,1.541,1.541,1.541,1.541,1.541,1.541,1.5806,1.5911,1.5468,1.6255,1.6641,1.614,1.6641,1.7257,1.7875,1.8038,1.8321,1.8762,1.8934,1.9052,1.917,1.9052,1.9052,1.917,1.917,1.9223,1.9316,1.9316,1.9552,1.994,2.0042,2.0497,2.1166,2.1264,2.1554,2.1888,2.1983,2.203,2.2137,2.2184,2.2184,2.2231,2.2417,2.237,2.2062,2.1197,2.0851,2.0582,1.9775,1.9639,1.9762,1.9762,1.996,2.0108,1.9867,1.9783,1.9451,1.8144,1.7666,1.7003,1.5128,1.47,1.4624,1.4374,1.4374,1.431,1.4019,1.3802,1.3648,1.3535,1.3323,1.3012,1.2615,1.2496,1.2318,1.1957,1.1884,1.1737,1.133,1.1367,1.1553,1.1884,1.2246,1.2461,1.2567,1.2943,1.3163,1.3198,1.3198,1.3357,1.3715,1.3715,1.398,1.4574,1.4637,1.5298,1.6366,1.6804,1.7409,1.816,1.9123,1.9546,1.9609,2.0986,2.1578,2.1637,2.2313,2.2849,2.3236,2.33,2.3566,2.3998,1.6255,1.6255,1.6197,1.5853,1.5853,1.5853,1.5853,1.5853,1.5911,1.6197,1.6528,1.6585,1.6301,1.681,1.7202,1.7146,1.7424,1.7929,1.8602,1.8602,1.8762,1.9146,1.921,1.921,1.9275,1.921,1.921,1.9328,1.9328,1.9328,1.942,1.942,1.9708,2.0232,2.0383,2.0894,2.1616,2.1793,2.1996,2.2231,2.2324,2.237,2.2417,2.2509,2.2509,2.2555,2.2859,2.3038,2.2834,2.1564,2.1289,2.1347,2.0349,2.0115,2.0185,2.0185,2.0392,2.0512,2.0289,2.0159,1.9872,1.8949,1.8422,1.7669,1.5621,1.5193,1.5102,1.4873,1.4873,1.478,1.4497,1.4337,1.4111,1.3749,1.3547,1.3323,1.2931,1.2708,1.2532,1.2354,1.2354,1.2246,1.2054,1.1884,1.1957,1.2318,1.2496,1.2673,1.2861,1.3094,1.3198,1.3198,1.3357,1.3615,1.398,1.398,1.4474,1.5484,1.5326,1.5799,1.6879,1.7622,1.8361,1.9108,1.9909,2.0369,2.059,2.1453,2.1869,2.2056,2.2508,2.3017,2.3437,2.3437,2.3777,2.4303,1.7202,1.7202,1.7034,1.6528,1.6472,1.6472,1.6472,1.6472,1.6641,1.7146,1.7313,1.7368,1.7257,1.7368,1.7644,1.8255,1.8321,1.8602,1.917,1.9223,1.9275,1.942,1.942,1.942,1.942,1.942,1.942,1.942,1.942,1.9473,1.9473,1.9565,1.9901,2.0434,2.0845,2.1348,2.1841,2.2184,2.2324,2.2324,2.2646,2.2692,2.2661,2.2873,2.2978,2.3008,2.329,2.3653,2.3785,2.2194,2.1838,2.1866,2.081,2.0478,2.0478,2.0478,2.0628,2.0695,2.027,2.0071,1.9846,1.9269,1.8871,1.8191,1.6472,1.5935,1.5743,1.5563,1.5416,1.5222,1.4932,1.4808,1.4511,1.3914,1.3715,1.3514,1.3232,1.2896,1.2708,1.2708,1.2638,1.2638,1.272,1.2389,1.2318,1.2673,1.2708,1.2861,1.3198,1.3198,1.3232,1.3301,1.3547,1.3914,1.4397,1.4492,1.5091,1.6213,1.6188,1.6615,1.738,1.8555,1.9398,2.0004,2.0557,2.099,2.1325,2.1661,2.1969,2.2248,2.2607,2.3074,2.3522,2.361,2.3921,2.4357,1.7202,1.7202,1.7146,1.709,1.709,1.709,1.709,1.7213,1.7213,1.7202,1.7863,1.8093,1.7435,1.7918,1.8578,1.9146,1.9198,1.9251,1.9368,1.9368,1.9368,1.942,1.942,1.9473,1.9565,1.9565,1.9565,1.9565,1.9565,1.9604,1.9759,2.0207,2.0746,2.1272,2.1779,2.2278,2.2752,2.2797,2.2797,2.2843,2.3157,2.3127,2.2888,2.3201,2.3319,2.3334,2.3363,2.3653,2.3812,2.2685,2.2301,2.2167,2.1101,2.0761,2.0761,2.0761,2.0761,2.0794,2.0695,2.0665,2.0526,1.9846,1.9657,1.9342,1.8238,1.7258,1.6547,1.6516,1.5859,1.5283,1.5253,1.4777,1.4319,1.4222,1.3695,1.3267,1.3198,1.3163,1.3116,1.3116,1.2826,1.2756,1.3094,1.2756,1.272,1.3082,1.3116,1.3129,1.3198,1.3198,1.3323,1.3615,1.3682,1.4046,1.4746,1.5235,1.5758,1.6227,1.7567,1.8384,1.8733,1.9179,1.9825,2.0668,2.0747,2.099,2.1325,2.1661,2.1998,2.2341,2.2865,2.3277,2.3649,2.4039,2.4247,2.4357,1.8417,1.8417,1.8309,1.7972,1.7918,1.7918,1.7918,1.7972,1.8093,1.8363,1.875,1.8869,1.8536,1.8815,1.9081,1.9368,1.942,1.942,1.9512,1.9512,1.9565,1.9604,1.9604,1.9656,1.9708,1.9708,1.9708,1.9708,1.9708,1.9901,2.0258,2.051,2.1042,2.1874,2.2077,2.2463,2.2888,2.2888,2.3023,2.3216,2.3319,2.3436,2.3538,2.3653,2.3739,2.3739,2.3739,2.4094,2.4346,2.2879,2.2527,2.2462,2.1203,2.0794,2.0794,2.0794,2.0794,2.0794,2.0794,2.0794,2.0731,2.0431,2.0352,2.0241,1.9846,1.8951,1.7912,1.6923,1.6366,1.5934,1.5401,1.5056,1.4746,1.4365,1.4026,1.3661,1.3267,1.3198,1.3198,1.3198,1.3047,1.3012,1.3198,1.3047,1.3012,1.3198,1.3198,1.3198,1.3198,1.3391,1.3547,1.3715,1.4111,1.4617,1.5286,1.5748,1.6547,1.7673,1.8555,1.8992,1.9025,1.9741,2.0396,2.0974,2.0974,2.1261,2.1764,2.184,2.2169,2.266,2.2892,2.3265,2.3714,2.421,2.4411,2.4445]}]]